[[{"header":{"parameterUnit":"m.s-1","parameterCategory":1,"la1":31.0,"la2":29.5877,"lo1":-88.7671,"lo2":-86.6584,"dy":0.0162,"dx":0.0185,"nx":115,"ny":88,"refTime":"2023-09-30T06:00:00:Z","depth":0,"parameterNumber":2,"parameterNumberName":"U-component_of_WINDS"},"data":[0.0,0.0,0.0,0.0,0.0,0.0,0.0,0.0,0.0,0.0,0.0,0.0,0.0,0.0,0.0,0.0,0.0,0.0,0.0,0.0,0.0,0.0,0.0,0.0,0.0,0.0,0.0,0.0,0.0,0.0,0.0,0.0,0.0,0.0,0.0,0.0,0.0,0.0,0.0,0.0,0.0,0.0,0.0,0.0,0.0,0.0,0.0,0.0,0.0,0.0,0.0,0.0,0.0,0.0,0.0,0.0,0.0,0.0,0.0,0.0,0.0,0.0,0.0,0.0,0.0,0.0,0.0,0.0,0.0,0.0,0.0,0.0,0.0,0.0,0.0,0.0,0.0,0.0,0.0,0.0,0.0,0.0,0.0,0.0,0.0,0.0,0.0,0.0,0.0,0.0,0.0,0.0,0.0,0.0,0.0,0.0,0.0,0.0,0.0,0.0,0.0,0.0,0.0,0.0,0.0,0.0,0.0,0.0,0.0,0.0,0.0,0.0,0.0,0.0,0.0,0.0,0.0,0.0,0.0,0.0,0.0,0.0,0.0,0.0,0.0,0.0,0.0,0.0,0.0,0.0,0.0,0.0,0.0,0.0,0.0,0.0,0.0,0.0,0.0,0.0,0.0,0.0,0.0,0.0,0.0,0.0,0.0,0.0,0.0,0.0,0.0,0.0,0.0,0.0,0.0,0.0,0.0,0.0,0.0,0.0,0.0,0.0,0.0,0.0,0.0,0.0,0.0,0.0,0.0,0.0,0.0,0.0,0.0,0.0,0.0,0.0,0.0,0.0,0.0,0.0,0.0,0.0,0.0,0.0,0.0,0.0,0.0,0.0,0.0,0.0,0.0,0.0,0.0,0.0,0.0,0.0,0.0,0.0,0.0,0.0,0.0,0.0,0.0,0.0,0.0,0.0,0.0,0.0,0.0,0.0,0.0,0.0,0.0,0.0,0.0,0.0,0.0,0.0,0.0,0.0,0.0,0.0,0.0,0.0,0.0,0.0,0.0,0.0,0.0,0.0,0.0,0.0,0.0,0.0,0.0,0.0,0.0,0.0,0.0,0.0,0.0,0.0,0.0,0.0,0.0,0.0,0.0,0.0,0.0,0.0,0.0,0.0,0.0,0.0,0.0,0.0,0.0,0.0,0.0,0.0,0.0,0.0,0.0,0.0,0.0,0.0,0.0,0.0,0.0,0.0,0.0,0.0,0.0,0.0,0.0,0.0,0.0,0.0,0.0,0.0,0.0,0.0,0.0,0.0,0.0,0.0,0.0,0.0,0.0,0.0,0.0,0.0,0.0,0.0,0.0,0.0,0.0,0.0,0.0,0.0,0.0,0.0,0.0,0.0,0.0,0.0,0.0,0.0,0.0,0.0,0.0,0.0,0.0,0.0,0.0,0.0,0.0,0.0,0.0,0.0,0.0,0.0,0.0,0.0,0.0,0.0,0.0,0.0,0.0,0.0,0.0,0.0,0.0,0.0,0.0,0.0,0.0,0.0,0.0,0.0,0.0,0.0,0.0,0.0,0.0,0.0,0.0,0.0,0.0,0.0,0.0,0.0,0.0,0.0,0.0,0.0,0.0,0.0,0.0,0.0,0.0,0.0,0.0,0.0,0.0,0.0,0.0,0.0,0.0,0.0,0.0,0.0,0.0,0.0,0.0,0.0,0.0,0.0,0.0,0.0,0.0,0.0,0.0,0.0,0.0,0.0,0.0,0.0,0.0,0.0,0.0,0.0,0.0,0.0,0.0,0.0,0.0,0.0,0.0,0.0,0.0,0.0,0.0,0.0,0.0,0.0,0.0,0.0,0.0,0.0,0.0,0.0,0.0,0.0,0.0,0.0,0.0,0.0,0.0,0.0,0.0,0.0,0.0,0.0,0.0,0.0,0.0,0.0,0.0,0.0,0.0,0.0,0.0,0.0,0.0,0.0,0.0,0.0,0.0,0.0,0.0,0.0,0.0,0.0,0.0,0.0,0.0,0.0,0.0,0.0,0.0,0.0,0.0,0.0,0.0,0.0,0.0,0.0,0.0,0.0,0.0,0.0,0.0,0.0,0.0,0.0,0.0,0.0,0.0,0.0,0.0,0.0,0.0,0.0,0.0,0.0,0.0,0.0,0.0,0.0,0.0,0.0,0.0,0.0,0.0,0.0,0.0,0.0,0.0,0.0,0.0,0.0,0.0,0.0,0.0,0.0,0.0,0.0,0.0,0.0,0.0,0.0,0.0,0.0,0.0,0.0,0.0,0.0,0.0,0.0,0.0,0.0,0.0,0.0,0.0,0.0,0.0,0.0,0.0,0.0,0.0,0.0,0.0,0.0,0.0,0.0,0.0,0.0,0.0,0.0,0.0,0.0,0.0,0.0,0.0,0.0,0.0,0.0,0.0,0.0,0.0,0.0,0.0,0.0,0.0,0.0,0.0,0.0,0.0,0.0,0.0,0.0,0.0,0.0,0.0,0.0,0.0,0.0,0.0,0.0,0.0,0.0,0.0,0.0,0.0,0.0,0.0,0.0,0.0,0.0,0.0,0.0,0.0,0.0,0.0,0.0,0.0,0.0,0.0,0.0,0.0,0.0,0.0,0.0,0.0,0.0,0.0,0.0,0.0,0.0,0.0,0.0,0.0,0.0,0.0,0.0,0.0,0.0,0.0,0.0,0.0,0.0,0.0,0.0,0.0,0.0,0.0,0.0,0.0,0.0,0.0,0.0,0.0,0.0,0.0,0.0,0.0,0.0,0.0,0.0,0.0,0.0,0.0,0.0,0.0,0.0,0.0,0.0,0.0,0.0,0.0,0.0,0.0,0.0,0.0,0.0,0.0,0.0,0.0,0.0,0.0,0.0,0.0,0.0,0.0,0.0,0.0,0.0,0.0,0.0,0.0,0.0,0.0,0.0,0.0,0.0,0.0,0.0,0.0,0.0,0.0,0.0,0.0,0.0,0.0,0.0,0.0,0.0,0.0,0.0,0.0,0.0,0.0,0.0,0.0,0.0,0.0,0.0,0.0,0.0,0.0,0.0,0.0,0.0,0.0,0.0,0.0,0.0,0.0,0.0,0.0,0.0,0.0,0.0,0.0,0.0,0.0,0.0,0.0,0.0,0.0,0.0,0.0,0.0,0.0,0.0,0.0,0.0,0.0,0.0,0.0,0.0,0.0,0.0,0.0,0.0,0.0,0.0,0.0,0.0,0.0,0.0,0.0,0.0,0.0,0.0,0.0,0.0,0.0,0.0,0.0,0.0,0.0,0.0,0.0,0.0,0.0,0.0,0.0,0.0,0.0,0.0,0.0,0.0,0.0,0.0,0.0,0.0,0.0,0.0,0.0,0.0,0.0,0.0,0.0,0.0,0.0,0.0,0.0,0.0,0.0,0.0,0.0,0.0,0.0,0.0,0.0,0.0,0.0,0.0,0.0,0.0,0.0,0.0,0.0,0.0,0.0,0.0,0.0,0.0,0.0,0.0,0.0,0.0,0.0,0.0,0.0,0.0,0.0,0.0,0.0,0.0,0.0,0.0,0.0,0.0,0.0,0.0,0.0,0.0,0.0,0.0,0.0,0.0,0.0,0.0,0.0,0.0,0.0,0.0,0.0,0.0,0.0,0.0,0.0,0.0,0.0,0.0,0.0,0.0,0.0,0.0,0.0,0.0,0.0,0.0,0.0,0.0,0.0,0.0,0.0,0.0,0.0,0.0,0.0,0.0,0.0,0.0,0.0,0.0,0.0,0.0,0.0,0.0,0.0,0.0,0.0,0.0,0.0,0.0,0.0,0.0,0.0,0.0,0.0,0.0,0.0,0.0,0.0,0.0,0.0,0.0,0.0,0.0,0.0,0.0,0.0,0.0,0.0,0.0,0.0,0.0,0.0,0.0,0.0,0.0,0.0,0.0,0.0,0.0,0.0,0.0,0.0,0.0,0.0,0.0,0.0,0.0,0.0,0.0,0.0,0.0,0.0,0.0,0.0,0.0,0.0,0.0,0.0,0.0,0.0,0.0,0.0,0.0,0.0,0.0,0.0,0.0,0.0,0.0,0.0,0.0,0.0,0.0,0.0,0.0,0.0,0.0,0.0,0.0,0.0,0.0,0.0,0.0,0.0,0.0,0.0,0.0,0.0,0.0,0.0,0.0,0.0,0.0,0.0,0.0,0.0,0.0,0.0,0.0,0.0,0.0,0.0,0.0,0.0,0.0,0.0,0.0,0.0,0.0,0.0,0.0,0.0,0.0,0.0,0.0,0.0,0.0,0.0,0.0,0.0,0.0,0.0,0.0,0.0,0.0,0.6914,0.0,0.0,0.0,0.0,0.0,0.0,0.0,0.0,0.0,0.0,0.0,0.0,0.0,0.0,0.0,0.0,0.0,0.0,0.0,0.0,0.0,0.0,0.0,0.0,0.0,0.0,0.0,0.0,0.0,0.0,0.0,0.0,0.0,0.0,0.0,0.0,0.0,0.0,0.0,0.0,0.0,0.0,0.0,0.0,0.0,0.0,0.0,0.0,0.0,0.0,0.0,0.0,0.0,0.0,0.0,0.0,0.0,0.0,0.0,0.0,0.0,0.0,0.0,0.0,0.0,0.0,0.0,0.0,0.0,0.0,0.0,0.0,0.0,0.0,0.0,0.0,0.0,0.0,0.0,0.0,0.0,0.0,0.0,0.0,0.0,0.0,0.0,0.0,0.0,0.0,0.0,0.0,0.0,0.0,0.0,0.0,0.0,0.0,0.0,0.0,0.0,0.0,0.0,0.0,0.0,0.0,0.0,0.0,0.0,0.0,0.6983,0.6983,0.6964,0.6925,0.6893,0.0,0.0,0.0,0.0,0.0,0.0,0.0,0.0,0.0,0.0,0.0,0.0,0.0,0.0,0.0,0.0,0.0,0.0,0.0,0.0,0.0,0.0,0.0,0.0,0.0,0.0,0.0,0.0,0.0,0.0,0.0,0.0,0.0,0.0,0.0,0.0,0.0,0.0,0.0,0.0,0.0,0.0,0.0,0.0,0.0,0.0,0.0,0.0,0.0,0.0,0.0,0.0,0.0,0.0,0.0,0.0,0.0,0.0,0.0,0.0,0.0,0.0,0.0,0.0,0.0,0.0,0.0,0.0,0.0,0.0,0.0,0.0,0.0,0.0,0.0,0.0,0.0,0.0,0.0,0.0,0.0,0.0,0.0,0.0,0.0,0.0,0.0,0.0,0.0,0.0,0.0,0.0,0.0,0.0,0.0,0.0,0.0,0.0,0.0,0.0,0.0,0.0,0.0,0.0,0.0,0.0,0.0,0.0,0.0,0.0,0.0,0.0,0.6914,0.6851,0.6808,0.0,0.0,0.0,0.0,0.0,0.0,0.0,0.0,0.0,0.0,0.0,0.0,0.0,0.0,0.0,0.0,0.0,0.0,0.0,0.0,0.0,0.0,0.0,0.0,0.0,0.0,0.0,0.0,0.0,0.0,0.0,0.0,0.0,0.0,0.0,0.0,0.0,0.0,0.0,0.0,0.0,0.0,0.0,0.0,0.0,0.0,0.0,0.0,0.0,0.0,0.0,0.0,0.0,0.0,0.0,0.0,0.0,0.0,0.0,0.0,0.0,0.0,0.0,0.0,0.0,0.0,0.0,0.0,0.0,0.0,0.0,0.0,0.0,0.0,0.0,0.0,0.0,0.0,0.0,0.0,0.0,0.0,0.0,0.0,0.0,0.0,0.0,0.0,0.0,0.0,0.0,0.0,0.0,0.0,0.0,0.0,0.0,0.0,0.0,0.0,0.0,0.0,0.0,0.0,0.0,0.0,0.0,0.0,0.0,0.0,0.6933,0.6983,0.6821,0.0,0.6553,0.0,0.0,0.0,0.0,0.0,0.0,0.0,0.0,0.0,0.0,0.0,0.0,0.0,0.0,0.0,0.0,0.0,0.0,0.0,0.0,0.0,0.0,0.0,0.0,0.0,0.0,0.0,0.0,0.0,0.0,0.0,0.0,0.0,0.0,0.0,0.0,0.0,0.0,0.0,0.0,0.0,0.0,0.0,0.0,0.0,0.0,0.0,0.0,0.0,0.0,0.0,0.0,0.0,0.0,0.0,0.0,0.0,0.0,0.0,0.0,0.0,0.0,0.0,0.0,0.0,0.0,0.0,0.0,0.0,0.0,0.0,0.0,0.0,0.0,0.0,0.0,0.0,0.0,0.0,0.0,0.0,0.0,0.0,0.0,0.0,0.0,0.0,0.0,0.0,0.0,0.0,0.0,0.0,0.0,0.0,0.0,0.0,0.0,0.0,0.0,0.0,0.0,0.0,0.0,0.0,0.0,0.0,0.0,0.0,0.0,0.7505,0.7539,0.7301,0.7107,0.0,0.0,0.0,0.0,0.0,0.0,0.0,0.0,0.0,0.0,0.0,0.0,0.0,0.0,0.0,0.0,0.0,0.0,0.0,0.0,0.0,0.0,0.0,0.0,0.0,0.0,0.0,0.0,0.0,0.0,0.0,0.0,0.0,0.0,0.0,0.0,0.0,0.0,0.0,0.0,0.0,0.0,0.0,0.0,0.0,0.0,0.0,0.0,0.0,0.0,0.0,0.0,0.0,0.0,0.0,0.0,0.0,0.0,0.0,0.0,0.0,0.0,0.0,0.0,0.0,0.0,0.0,0.0,0.0,0.0,0.0,0.0,0.0,0.0,0.0,0.0,0.0,0.0,0.0,0.0,0.0,0.0,0.0,0.0,0.0,0.0,0.0,0.0,0.0,0.0,0.0,0.0,0.0,0.0,0.0,0.0,0.0,0.0,0.0,0.0,0.0,0.0,0.0,0.0,0.0,0.0,0.0,0.0,0.0,0.0,0.7769,0.7828,0.7804,0.7613,0.7446,0.7266,0.0,0.0,0.0,0.0,0.0,0.0,0.0,0.0,0.0,0.0,0.0,0.0,0.0,0.0,0.0,0.0,0.0,0.0,0.0,0.0,0.0,0.0,0.0,0.0,0.0,0.0,0.0,0.0,0.0,0.0,0.0,0.0,0.0,0.0,0.0,0.0,0.0,0.0,0.0,0.0,0.0,0.0,0.0,0.0,0.0,0.0,0.0,0.0,0.0,0.0,0.0,0.0,0.0,0.0,0.0,0.0,0.0,0.0,0.0,0.0,0.0,0.0,0.0,0.0,0.0,0.0,0.0,0.0,0.0,0.0,0.0,0.0,0.0,0.0,0.0,0.0,0.0,0.0,0.0,0.0,0.0,0.0,0.0,0.0,0.0,0.0,0.0,0.0,0.0,0.0,0.0,0.0,0.0,0.0,0.0,0.0,0.0,0.0,0.0,0.0,0.0,0.0,0.0,0.0,0.0,0.0,0.0,0.0,0.7874,0.7768,0.7697,0.7651,0.7541,0.747,0.0,0.0,0.0,0.0,0.0,0.0,0.0,0.0,0.0,0.0,0.0,0.0,0.0,0.0,0.0,0.0,0.0,0.0,0.0,0.0,0.0,0.0,0.0,0.0,0.0,0.0,0.0,0.0,0.0,0.0,0.0,0.0,0.0,0.0,0.0,0.0,0.0,0.0,0.0,0.0,0.0,0.0,0.0,0.0,0.0,0.0,0.0,0.0,0.0,0.0,0.0,0.0,0.0,0.0,0.0,0.0,0.0,0.0,0.0,0.0,0.0,0.0,0.0,0.0,0.0,0.0,0.0,0.0,0.0,0.0,0.0,0.0,0.0,0.0,0.0,0.0,0.0,0.0,0.0,0.0,0.0,0.0,0.0,0.0,0.0,0.0,0.0,0.0,0.0,0.0,0.0,0.0,0.0,0.0,0.0,0.0,0.0,0.0,0.0,0.0,0.0,0.0,0.0,0.0,0.0,0.0,0.0,0.0,0.0,0.8216,0.8251,0.8229,0.8114,0.8012,0.7871,0.0,0.0,0.0,0.0,0.0,0.0,0.0,0.0,0.0,0.0,0.0,0.0,0.0,0.0,0.0,0.0,0.0,0.0,0.0,0.0,0.0,0.0,0.0,0.0,0.0,0.0,0.0,0.0,0.0,0.0,0.0,0.0,0.0,0.0,0.0,0.0,0.0,0.0,0.0,0.0,0.0,0.0,0.0,0.0,0.0,0.0,0.0,0.0,0.0,0.0,0.0,0.0,0.0,0.0,0.0,0.0,0.0,0.0,0.0,0.0,0.0,0.0,0.0,0.0,0.0,0.0,0.0,0.0,0.0,0.0,0.0,0.0,0.0,0.0,0.0,0.0,0.0,0.0,0.0,0.0,0.0,0.0,0.0,0.0,0.0,0.0,0.0,0.0,0.0,0.0,0.0,0.0,0.0,0.0,0.0,0.0,0.0,0.0,0.0,0.0,0.0,0.0,0.0,0.0,0.0,0.0,0.0,0.0,0.0,0.8472,0.0,0.8593,0.8395,0.8328,0.8181,0.0,0.0,0.0,0.0,0.0,0.0,0.0,0.0,0.0,0.0,0.0,0.0,0.0,0.0,0.0,0.0,0.0,0.0,0.0,0.0,0.0,0.0,0.0,0.0,0.0,0.0,0.0,0.0,0.0,0.0,0.0,0.0,0.0,0.0,0.0,0.0,0.0,0.0,0.0,0.0,0.0,0.0,0.0,0.0,0.0,0.0,0.0,0.0,0.0,0.0,0.0,0.0,0.0,0.0,0.0,0.0,0.0,0.0,0.0,0.0,0.0,0.0,0.0,0.0,0.0,0.0,0.0,0.0,0.0,0.0,0.0,0.0,0.0,0.0,0.0,0.0,0.0,0.0,0.0,0.0,0.0,0.0,0.0,0.0,0.0,0.0,0.0,0.0,0.0,0.0,0.0,0.0,0.0,0.0,0.0,0.0,0.0,0.0,0.0,0.0,0.0,0.0,0.0,0.0,0.0,0.0,0.0,0.0,0.8738,0.8606,0.8712,0.8646,0.8395,0.8394,0.8328,0.0,0.0,0.0,0.0,0.0,0.0,0.0,0.0,0.0,0.0,0.0,0.0,0.0,0.0,0.0,0.0,0.0,0.0,0.0,0.0,0.0,0.0,0.0,0.0,0.0,0.0,0.0,0.0,0.0,0.0,0.0,0.0,0.0,0.0,0.0,0.0,0.0,0.0,0.0,0.0,0.0,0.0,0.0,0.0,0.0,0.0,0.0,0.0,0.0,0.0,0.0,0.0,0.0,0.0,0.0,0.0,0.0,0.0,0.0,0.0,0.0,0.0,0.0,0.0,0.0,0.0,0.0,0.0,0.0,0.0,0.0,0.0,0.0,0.0,0.0,0.0,0.0,0.0,0.0,0.0,0.0,0.0,0.0,0.0,0.0,0.0,0.0,0.0,0.0,0.0,0.0,0.0,0.0,0.0,0.0,0.0,0.0,0.0,0.0,0.0,0.0,0.0,0.0,0.0,0.0,0.0,0.0,0.0,0.0,0.8619,0.8553,0.8434,0.8275,0.8301,0.8303,0.0,0.0,0.0,0.0,0.0,0.0,0.0,0.0,0.0,0.0,0.0,0.0,0.0,0.0,0.0,0.0,0.0,0.0,0.0,0.0,0.0,0.0,0.0,0.0,0.0,0.0,0.0,0.0,0.0,0.0,0.0,0.0,0.0,0.0,0.0,0.0,0.0,0.0,0.0,0.0,0.0,0.0,0.0,0.0,0.0,0.0,0.0,0.0,0.0,0.0,0.0,0.0,0.0,0.0,0.0,0.0,0.0,0.0,0.0,0.0,0.0,0.0,0.0,0.0,0.0,0.0,0.0,0.0,0.0,0.0,0.0,0.0,0.0,0.0,0.0,0.0,0.0,0.0,0.0,0.0,0.0,0.0,0.0,0.0,0.0,0.0,0.0,0.0,0.0,0.0,0.0,0.0,0.0,0.0,0.0,0.0,0.0,0.0,0.0,0.0,0.0,0.0,0.0,0.0,0.0,0.0,0.0,0.0,0.0,0.9246,0.9219,0.9132,0.8904,0.8995,0.8893,0.8596,0.0,0.0,0.0,0.0,0.0,0.0,0.0,0.0,0.0,0.0,0.0,0.0,0.0,0.0,0.0,0.0,0.0,0.0,0.0,0.0,0.0,0.0,0.0,0.0,0.0,0.0,0.0,0.0,0.0,0.0,0.0,0.0,0.0,0.0,0.0,0.0,0.0,0.0,0.0,0.0,0.0,0.0,0.0,0.0,0.0,0.0,0.0,0.0,0.0,0.0,0.0,0.0,0.0,0.0,0.0,0.0,0.0,0.0,0.0,0.0,0.0,0.0,0.0,0.0,0.0,0.0,0.0,0.0,0.0,0.0,0.0,0.0,0.0,0.0,0.0,0.0,0.0,0.0,0.0,0.0,0.0,0.0,0.0,0.0,0.0,0.0,0.0,0.0,0.0,0.0,0.0,0.0,0.0,0.0,0.0,0.0,0.0,0.0,0.0,0.0,0.0,0.0,0.0,0.0,0.0,0.0,0.0,0.0,1.0392,1.064,1.0547,1.0146,1.0216,0.9896,0.0,0.0,0.0,0.0,0.0,0.0,0.0,0.0,0.0,0.0,0.0,0.0,0.0,0.0,0.0,0.0,0.0,0.0,0.0,0.0,0.0,0.0,0.0,0.0,0.0,0.0,0.0,0.0,0.0,0.0,0.0,0.0,0.0,0.0,0.0,0.0,0.0,0.0,0.0,0.0,0.0,0.0,0.0,0.0,0.0,0.0,0.0,0.0,0.0,0.0,0.0,0.0,0.0,0.0,0.0,0.0,0.0,0.0,0.0,0.0,0.0,0.0,0.0,0.0,0.0,0.0,0.0,0.0,0.0,0.0,0.0,0.0,0.0,0.0,0.0,0.0,0.0,0.0,0.0,0.0,0.0,0.0,0.0,0.0,0.0,0.0,0.0,0.0,0.0,0.0,0.0,0.0,0.0,0.0,0.0,0.0,0.0,0.0,0.0,0.0,0.0,0.0,0.0,0.0,0.0,0.0,0.0,0.0,0.0,1.1624,1.2218,1.1959,1.081,1.0463,1.0203,0.0,0.0,0.0,0.0,0.0,0.0,0.0,0.0,0.0,0.0,0.0,0.0,0.0,0.0,0.0,0.0,0.0,0.0,0.0,0.0,0.0,0.0,0.0,0.0,0.0,0.0,0.0,0.0,0.0,0.0,0.0,0.0,0.0,0.0,0.0,0.0,0.0,0.0,0.0,0.0,0.0,0.0,0.0,0.0,0.0,0.0,0.0,0.0,0.0,0.0,0.0,0.0,0.0,0.0,0.0,0.0,0.0,0.0,0.0,0.0,0.0,0.0,0.0,0.0,0.0,0.0,0.0,0.0,0.0,0.0,0.0,0.0,0.0,0.0,0.0,0.0,0.0,0.0,0.0,0.0,0.0,0.0,0.0,0.0,0.0,0.0,0.0,0.0,0.0,0.0,0.0,0.0,0.0,0.0,0.0,0.0,0.0,0.0,0.0,0.0,0.0,0.0,0.0,0.0,0.0,0.0,0.0,0.0,1.1709,1.2176,1.3107,1.3174,1.2308,1.1493,1.0886,0.0,0.0,0.0,0.0,0.0,0.0,0.0,0.0,0.0,0.0,0.0,0.0,0.0,0.0,0.0,0.0,0.0,0.0,0.0,0.0,0.0,0.0,0.0,0.0,0.0,0.0,0.0,0.0,0.0,0.0,0.0,0.0,0.0,0.0,0.0,0.0,0.0,0.0,0.0,0.0,0.0,0.0,0.0,0.0,0.0,0.0,0.0,0.0,0.0,0.0,0.0,0.0,0.0,0.0,0.0,0.0,0.0,0.0,0.0,0.0,0.0,0.0,0.0,0.0,0.0,0.0,0.0,0.0,0.0,0.0,0.0,0.0,0.0,0.0,0.0,0.0,0.0,0.0,0.0,0.0,0.0,0.0,0.0,0.0,0.0,0.0,0.0,0.0,0.0,0.0,0.0,0.0,0.0,0.0,0.0,0.0,0.0,0.0,0.0,0.0,0.0,0.0,0.0,0.0,0.0,0.0,0.0,0.0,1.221,1.2433,1.3527,1.4148,1.4135,1.2817,1.1751,0.0,0.0,0.0,0.0,0.0,0.0,0.0,0.0,0.0,0.0,0.0,0.0,0.0,0.0,0.0,0.0,0.0,0.0,0.0,0.0,0.0,0.0,0.0,0.0,0.0,0.0,0.0,0.0,0.0,0.0,0.0,0.0,0.0,0.0,0.0,0.0,0.0,0.0,0.0,0.0,0.0,0.0,0.0,0.0,0.0,0.0,0.0,0.0,0.0,0.0,0.0,0.0,0.0,0.0,0.0,0.0,0.0,0.0,0.0,0.0,0.0,0.0,0.0,0.0,0.0,0.0,0.0,0.0,0.0,0.0,0.0,0.0,0.0,0.0,0.0,0.0,0.0,0.0,0.0,0.0,0.0,0.0,0.0,0.0,0.0,0.0,0.0,0.0,0.0,0.0,0.0,0.0,0.0,0.0,0.0,0.0,0.0,0.0,0.0,0.0,0.0,0.0,0.0,0.0,0.0,0.0,0.0,0.0,1.2443,1.316,1.3984,1.4536,1.4785,1.2877,1.1875,0.0,0.0,0.0,0.0,0.0,0.0,0.0,0.0,0.0,0.0,0.0,0.0,0.0,0.0,0.0,0.0,0.0,0.0,0.0,0.0,0.0,0.0,0.0,0.0,0.0,0.0,0.0,0.0,0.0,0.0,0.0,0.0,0.0,0.0,0.0,0.0,0.0,0.0,0.0,0.0,0.0,0.0,0.0,0.0,0.0,0.0,0.0,0.0,1.4102,0.0,0.0,0.0,0.0,0.0,0.0,0.0,0.0,0.0,0.0,0.0,0.0,0.0,0.0,0.0,0.0,0.0,0.0,0.0,0.0,0.0,0.0,0.0,0.0,0.0,0.0,0.0,0.0,0.0,0.0,0.0,0.0,0.0,0.0,0.0,0.0,0.0,0.0,0.0,0.0,0.0,0.0,0.0,0.0,0.0,0.0,0.0,0.0,0.0,0.0,0.0,0.0,0.0,0.0,0.0,0.0,0.0,0.0,0.0,1.2897,1.3717,1.4386,1.4825,1.4932,1.3539,1.2628,0.0,0.0,0.0,0.0,0.0,0.0,0.0,0.0,0.0,0.0,0.0,0.0,0.0,0.0,0.0,0.0,0.0,0.0,0.0,0.0,0.0,0.0,0.0,0.0,0.0,0.0,0.0,0.0,0.0,0.0,0.0,0.0,0.0,0.0,0.0,0.0,0.0,0.0,0.0,0.0,0.0,0.0,0.0,0.0,0.0,0.0,0.0,0.0,0.0,0.0,0.0,0.0,0.0,0.0,0.0,0.0,0.0,0.0,0.0,0.0,0.0,0.0,0.0,0.0,0.0,0.0,0.0,0.0,0.0,0.0,0.0,0.0,0.0,0.0,0.0,0.0,0.0,0.0,0.0,0.0,0.0,0.0,0.0,0.0,0.0,0.0,0.0,0.0,0.0,0.0,0.0,0.0,0.0,0.0,0.0,0.0,0.0,0.0,0.0,0.0,0.0,0.0,0.0,0.0,0.0,0.0,0.0,1.2626,1.3351,1.4269,1.4798,1.5089,1.5106,1.4348,1.3558,1.2772,0.0,0.0,0.0,0.0,0.0,0.0,0.0,0.0,0.0,0.0,0.0,0.0,0.0,0.0,0.0,0.0,0.0,0.0,0.0,0.0,0.0,0.0,0.0,0.0,0.0,0.0,0.0,0.0,0.0,0.0,0.0,0.0,0.0,0.0,0.0,0.0,0.0,0.0,1.5171,1.5342,0.0,0.0,0.0,0.0,0.0,0.0,0.0,0.0,1.5435,0.0,0.0,0.0,0.0,0.0,0.0,0.0,0.0,0.0,0.0,0.0,0.0,0.0,0.0,0.0,0.0,0.0,0.0,0.0,0.0,0.0,0.0,0.0,0.0,0.0,0.0,0.0,0.0,0.0,0.0,0.0,0.0,0.0,0.0,0.0,0.0,0.0,0.0,0.0,0.0,0.0,0.0,0.0,0.0,0.0,0.0,0.0,0.0,0.0,0.0,0.0,0.0,0.0,0.0,0.0,0.0,1.2973,1.2943,1.3641,1.5137,1.5271,1.5444,1.5635,1.4942,1.4165,1.3369,0.0,0.0,0.0,0.0,0.0,0.0,0.0,0.0,0.0,0.0,0.0,0.0,0.0,0.0,0.0,0.0,0.0,0.0,0.0,0.0,0.0,0.0,0.0,0.0,0.0,0.0,0.0,0.0,0.0,0.0,0.0,0.0,0.0,0.0,0.0,0.0,0.0,0.0,0.0,1.6247,1.6038,0.0,0.0,0.0,0.0,0.0,0.0,0.0,0.0,1.4951,0.0,0.0,0.0,0.0,0.0,0.0,0.0,0.0,0.0,0.0,0.0,0.0,0.0,0.0,0.0,0.0,0.0,0.0,0.0,0.0,0.0,0.0,0.0,0.0,0.0,0.0,0.0,0.0,0.0,0.0,0.0,0.0,0.0,0.0,0.0,0.0,0.0,0.0,0.0,0.0,0.0,0.0,0.0,0.0,0.0,0.0,0.0,0.0,0.0,0.0,0.0,0.0,0.0,0.0,0.0,1.338,1.3785,1.4515,1.5555,1.5595,1.5661,1.5771,1.5087,1.4395,0.0,0.0,0.0,0.0,0.0,0.0,0.0,0.0,0.0,0.0,0.0,0.0,0.0,0.0,0.0,0.0,0.0,0.0,0.0,0.0,0.0,0.0,0.0,0.0,0.0,0.0,0.0,0.0,0.0,0.0,0.0,0.0,0.0,0.0,0.0,0.0,0.0,0.0,0.0,0.0,1.6649,1.6437,1.7074,0.0,0.0,0.0,0.0,0.0,0.0,1.6034,1.5478,0.0,0.0,0.0,0.0,0.0,0.0,0.0,0.0,0.0,0.0,0.0,0.0,0.0,0.0,0.0,0.0,0.0,0.0,0.0,0.0,0.0,0.0,0.0,0.0,0.0,0.0,0.0,0.0,0.0,0.0,0.0,0.0,0.0,0.0,0.0,0.0,0.0,0.0,0.0,0.0,0.0,0.0,0.0,0.0,0.0,0.0,0.0,0.0,0.0,0.0,0.0,0.0,0.0,0.0,0.0,1.3714,1.4549,1.5267,1.5781,1.5861,1.5888,1.5875,1.5068,1.4394,0.0,0.0,0.0,0.0,0.0,0.0,0.0,0.0,0.0,0.0,0.0,0.0,0.0,0.0,0.0,0.0,0.0,0.0,0.0,0.0,0.0,0.0,0.0,0.0,0.0,0.0,0.0,0.0,0.0,0.0,0.0,0.0,0.0,0.0,0.0,0.0,0.0,0.0,0.0,0.0,0.0,1.7045,1.7337,1.7099,0.0,0.0,0.0,0.0,1.6525,1.6215,0.0,0.0,0.0,0.0,0.0,0.0,0.0,0.0,0.0,0.0,0.0,0.0,0.0,0.0,0.0,0.0,0.0,0.0,0.0,0.0,0.0,0.0,0.0,0.0,0.0,0.0,0.0,0.0,0.0,0.0,0.0,0.0,0.0,0.0,0.0,0.0,0.0,0.0,0.0,0.0,0.0,0.0,0.0,0.0,0.0,0.0,0.0,0.0,0.0,0.0,0.0,0.0,0.0,0.0,0.0,0.0,1.4028,1.4665,1.5244,1.5781,1.6086,1.6244,1.623,1.4998,1.4215,0.0,0.0,0.0,0.0,0.0,0.0,0.0,0.0,0.0,0.0,0.0,0.0,0.0,0.0,0.0,0.0,0.0,0.0,0.0,0.0,0.0,0.0,0.0,0.0,0.0,0.0,0.0,0.0,0.0,0.0,0.0,0.0,0.0,0.0,0.0,0.0,0.0,0.0,0.0,0.0,0.0,1.8078,1.801,1.7935,1.7332,0.0,0.0,1.6272,1.605,1.556,0.0,0.0,0.0,0.0,0.0,0.0,0.0,0.0,0.0,0.0,0.0,0.0,0.0,0.0,0.0,0.0,0.0,0.0,0.0,0.0,0.0,0.0,0.0,0.0,0.0,0.0,0.0,0.0,0.0,0.0,0.0,0.0,0.0,0.0,0.0,0.0,0.0,0.0,0.0,0.0,0.0,0.0,0.0,0.0,0.0,0.0,0.0,0.0,0.0,0.0,0.0,0.0,0.0,0.0,0.0,1.3908,1.4349,1.5267,1.5936,1.6313,1.646,1.6513,1.6513,1.5079,1.4235,0.0,0.0,0.0,0.0,0.0,0.0,0.0,0.0,0.0,0.0,0.0,0.0,0.0,0.0,0.0,0.0,0.0,0.0,0.0,0.0,0.0,0.0,0.0,0.0,0.0,0.0,0.0,0.0,0.0,0.0,0.0,0.0,0.0,0.0,0.0,0.0,0.0,0.0,0.0,0.0,0.0,0.0,1.7728,1.8023,0.0,0.0,0.0,1.7114,1.655,0.0,0.0,0.0,0.0,0.0,0.0,0.0,0.0,0.0,0.0,0.0,0.0,0.0,0.0,0.0,0.0,0.0,0.0,0.0,0.0,0.0,0.0,0.0,0.0,0.0,0.0,0.0,0.0,0.0,0.0,0.0,0.0,0.0,0.0,0.0,0.0,0.0,0.0,0.0,0.0,0.0,0.0,0.0,0.0,0.0,0.0,0.0,0.0,0.0,0.0,0.0,0.0,0.0,0.0,0.0,0.0,0.0,1.4643,1.5815,1.6486,1.67,1.678,1.682,1.6807,1.5504,0.0,0.0,0.0,0.0,0.0,0.0,0.0,0.0,0.0,0.0,0.0,0.0,0.0,0.0,0.0,0.0,0.0,0.0,0.0,0.0,0.0,0.0,0.0,0.0,0.0,0.0,0.0,1.7217,0.0,0.0,0.0,0.0,0.0,0.0,0.0,0.0,0.0,0.0,0.0,0.0,0.0,0.0,1.7629,1.7206,1.7809,1.7779,0.0,0.0,1.7388,1.6724,1.692,1.6757,0.0,0.0,0.0,0.0,0.0,0.0,0.0,0.0,0.0,0.0,0.0,0.0,0.0,0.0,0.0,0.0,0.0,0.0,0.0,0.0,0.0,0.0,0.0,0.0,0.0,0.0,0.0,0.0,0.0,0.0,0.0,0.0,0.0,0.0,0.0,0.0,0.0,0.0,0.0,0.0,0.0,0.0,0.0,0.0,0.0,0.0,0.0,0.0,0.0,0.0,0.0,0.0,0.0,0.0,1.5184,1.5031,1.611,1.6687,1.6714,1.7006,1.7179,1.714,1.6591,1.5779,0.0,0.0,0.0,0.0,0.0,0.0,0.0,0.0,0.0,0.0,0.0,0.0,0.0,0.0,0.0,0.0,0.0,0.0,0.0,0.0,0.0,0.0,0.0,0.0,0.0,0.0,0.0,0.0,0.0,0.0,0.0,0.0,0.0,0.0,0.0,0.0,0.0,0.0,0.0,0.0,0.0,1.8027,1.6673,1.7302,1.7455,0.0,1.6242,1.6357,1.5922,1.6365,1.6403,1.5395,0.0,0.0,0.0,0.0,0.0,0.0,0.0,0.0,0.0,0.0,0.0,0.0,0.0,0.0,0.0,0.0,0.0,0.0,0.0,0.0,0.0,0.0,0.0,0.0,0.0,0.0,0.0,0.0,0.0,0.0,0.0,0.0,0.0,0.0,0.0,0.0,0.0,0.0,0.0,0.0,0.0,0.0,0.0,0.0,0.0,0.0,0.0,0.0,0.0,0.0,0.0,0.0,0.0,1.5205,1.5267,1.6404,1.7086,1.7235,1.7381,1.7448,1.7434,1.6776,1.5895,0.0,0.0,0.0,0.0,0.0,0.0,0.0,0.0,0.0,0.0,0.0,0.0,0.0,0.0,0.0,0.0,0.0,0.0,0.0,0.0,0.0,0.0,0.0,0.0,0.0,0.0,0.0,0.0,1.776,1.7503,1.6809,0.0,0.0,0.0,0.0,0.0,0.0,0.0,0.0,0.0,0.0,1.7302,1.7211,1.7727,0.0,0.0,1.7045,1.7141,1.5987,1.6166,1.6003,1.473,1.426,0.0,0.0,0.0,0.0,0.0,0.0,0.0,0.0,0.0,0.0,0.0,0.0,0.0,0.0,0.0,0.0,0.0,0.0,0.0,0.0,0.0,0.0,0.0,0.0,0.0,0.0,0.0,0.0,0.0,0.0,0.0,0.0,0.0,0.0,0.0,0.0,0.0,0.0,0.0,0.0,0.0,0.0,0.0,0.0,0.0,0.0,0.0,0.0,0.0,0.0,0.0,0.0,1.539,1.5455,1.6687,1.7394,1.7608,1.7608,1.7608,1.7595,1.7052,1.6295,0.0,0.0,0.0,0.0,0.0,0.0,0.0,0.0,0.0,0.0,0.0,0.0,0.0,0.0,0.0,0.0,0.0,0.0,0.0,0.0,0.0,0.0,0.0,0.0,0.0,0.0,0.0,0.0,1.7229,1.6809,1.589,0.0,0.0,0.0,0.0,0.0,0.0,0.0,0.0,0.0,0.0,1.6856,1.7118,1.7369,1.725,1.6424,1.678,1.6805,1.5735,1.5818,1.5682,1.4665,0.0,0.0,0.0,0.0,0.0,0.0,0.0,0.0,0.0,0.0,0.0,0.0,0.0,0.0,0.0,0.0,0.0,0.0,0.0,0.0,0.0,0.0,0.0,0.0,0.0,0.0,0.0,1.6632,0.0,0.0,1.6233,0.0,0.0,0.0,0.0,0.0,0.0,0.0,0.0,0.0,0.0,0.0,0.0,0.0,0.0,0.0,0.0,0.0,0.0,0.0,0.0,0.0,0.0,1.5998,1.551,1.6866,1.7595,1.7608,1.7608,1.7608,1.7608,1.7569,1.7197,1.6348,0.0,0.0,0.0,0.0,0.0,0.0,0.0,0.0,0.0,0.0,0.0,0.0,0.0,0.0,0.0,0.0,0.0,0.0,0.0,0.0,0.0,0.0,0.0,0.0,0.0,0.0,1.5335,1.5006,1.4725,0.0,0.0,0.0,0.0,0.0,0.0,0.0,0.0,0.0,1.5797,1.6662,1.6978,1.5991,1.5869,1.5839,1.5511,1.5013,1.4718,1.5022,1.5253,1.5427,0.0,0.0,0.0,0.0,0.0,0.0,0.0,0.0,0.0,0.0,0.0,0.0,0.0,0.0,0.0,0.0,0.0,0.0,0.0,0.0,0.0,0.0,0.0,0.0,0.0,0.0,0.0,1.6009,1.5785,0.0,0.0,0.0,0.0,0.0,0.0,0.0,0.0,0.0,0.0,0.0,1.6459,1.6037,0.0,0.0,0.0,0.0,0.0,0.0,0.0,0.0,0.0,0.0,0.0,0.0,1.5796,1.5586,1.6879,1.7608,1.7608,1.7608,1.7608,1.7608,1.7608,1.7237,1.6413,0.0,0.0,0.0,0.0,0.0,0.0,0.0,0.0,0.0,0.0,0.0,0.0,0.0,0.0,0.0,0.0,0.0,0.0,0.0,0.0,0.0,0.0,0.0,0.0,0.0,1.6373,0.0,0.0,0.0,0.0,0.0,0.0,0.0,0.0,0.0,0.0,1.5515,1.5878,1.5547,1.5682,1.5822,1.5815,1.5808,1.5901,0.0,0.0,0.0,0.0,0.0,0.0,0.0,0.0,0.0,0.0,0.0,0.0,0.0,0.0,1.5311,1.4148,1.4074,1.4261,1.4482,0.0,0.0,0.0,0.0,0.0,0.0,0.0,0.0,0.0,0.0,0.0,0.0,0.0,0.0,1.597,1.5575,1.5703,0.0,0.0,0.0,0.0,0.0,0.0,0.0,0.0,1.5576,1.5926,1.6741,1.6358,1.6299,0.0,1.6569,1.5843,0.0,0.0,0.0,0.0,0.0,0.0,0.0,0.0,1.5594,1.5467,1.6853,1.7608,1.7608,1.7608,1.7608,1.7608,1.7608,1.7356,1.6842,1.5869,1.513,0.0,0.0,0.0,0.0,0.0,0.0,0.0,0.0,0.0,0.0,0.0,0.0,0.0,0.0,0.0,0.0,0.0,0.0,0.0,0.0,0.0,0.0,0.0,1.5596,0.0,0.0,0.0,0.0,0.0,0.0,0.0,0.0,0.0,1.4461,1.5162,1.5573,1.5554,1.5574,1.5588,1.5538,0.0,0.0,0.0,0.0,0.0,0.0,0.0,1.4741,1.4567,1.4714,1.4928,1.5231,1.5912,1.6393,1.631,0.0,0.0,1.5126,1.507,1.519,1.5401,1.5117,1.4728,1.4503,1.4358,1.4201,0.0,0.0,0.0,0.0,0.0,0.0,0.0,0.0,1.6337,1.6224,0.0,1.6392,0.0,0.0,0.0,0.0,1.5879,1.5717,0.0,0.0,1.6498,1.6382,1.5925,1.6228,1.619,1.5875,1.5899,1.5775,1.5564,1.671,0.0,0.0,0.0,0.0,0.0,0.0,1.5404,1.5325,1.679,1.7608,1.7608,1.7608,1.7608,1.7608,1.7608,1.7608,1.7555,1.6842,1.6501,1.6637,1.4705,0.0,0.0,0.0,0.0,0.0,0.0,0.0,0.0,0.0,0.0,0.0,0.0,0.0,0.0,0.0,0.0,0.0,0.0,0.0,0.0,1.4572,0.0,0.0,0.0,0.0,0.0,0.0,0.0,0.0,0.0,1.3345,1.3972,1.4736,1.5428,1.5718,0.0,0.0,0.0,0.0,1.5647,1.4299,1.4299,1.437,1.4145,1.4767,1.5477,1.602,0.0,0.0,1.6668,1.6643,1.6541,1.6336,1.5793,1.5617,1.6456,1.6267,1.6168,1.6243,1.5344,1.4516,1.4428,1.3928,1.3269,1.6379,0.0,0.0,0.0,0.0,1.6709,1.6677,1.6667,1.6914,1.6743,1.6307,1.6411,0.0,0.0,0.0,0.0,0.0,0.0,1.5636,1.6431,1.6416,1.6633,1.7074,1.7193,1.718,1.7074,1.7074,1.7034,1.6979,1.7335,1.6529,1.4647,0.0,0.0,0.0,0.0,1.5671,1.6089,1.7066,1.7608,1.7608,1.7608,1.7608,1.7608,1.7608,1.7608,1.7608,1.7396,1.7105,1.6752,1.6001,0.0,0.0,0.0,0.0,0.0,0.0,0.0,0.0,0.0,0.0,0.0,0.0,0.0,0.0,0.0,0.0,0.0,0.0,0.0,1.5739,1.5271,1.4598,0.0,0.0,0.0,0.0,0.0,0.0,0.0,0.0,0.0,1.3136,1.3249,1.3882,0.0,0.0,1.3368,1.3545,1.3555,1.3516,1.3541,1.3427,0.0,1.3828,1.3749,1.3679,1.3839,1.4552,1.5108,1.5238,1.5704,1.6046,1.5955,1.5908,1.595,1.6132,1.545,1.5267,1.6138,1.5999,1.5627,1.56,1.5366,1.4876,1.5321,1.5514,1.6086,1.6639,1.7036,1.6939,1.6821,1.6777,1.696,1.671,1.6183,1.6396,1.6176,1.5618,1.5857,0.0,0.0,0.0,1.6048,1.6995,1.6869,1.71,1.7595,1.7608,1.7608,1.7608,1.7608,1.7608,1.7608,1.6808,1.5719,1.4304,0.0,1.4517,1.4446,1.5389,1.6021,1.6413,1.7184,1.7608,1.7608,1.7608,1.7608,1.7608,1.7608,1.7608,1.7608,1.7608,1.7449,1.7107,1.6555,1.5942,0.0,0.0,0.0,0.0,0.0,0.0,0.0,0.0,0.0,0.0,0.0,1.5576,1.4336,0.0,0.0,0.0,1.6528,1.6549,1.5713,1.5012,0.0,0.0,0.0,0.0,0.0,0.0,0.0,1.0788,1.1538,1.2217,1.2424,1.1887,1.2282,1.4457,1.3543,1.2748,1.2933,0.0,1.3273,1.343,1.3456,1.3584,1.3926,1.3905,1.3877,1.4148,1.459,1.4993,1.524,1.5664,1.591,1.5881,1.5618,1.5339,1.5339,1.4321,1.4073,1.5941,1.5823,1.5377,1.5337,1.4972,1.4363,1.3363,1.3492,1.4818,1.5985,1.6885,1.6184,1.6111,1.6451,1.6591,1.6325,1.5875,1.6515,1.6179,1.5223,1.5109,0.0,1.6404,1.6306,1.6731,1.7608,1.7608,1.7608,1.7608,1.7503,1.7477,1.7477,1.7371,1.7318,1.7239,1.5507,1.4513,1.4281,1.5557,1.5778,1.5024,1.575,1.621,1.6338,1.7119,1.7582,1.7649,1.7675,1.7689,1.7689,1.7649,1.7689,1.7675,1.7689,1.7689,1.7662,1.6749,1.6366,1.6663,0.0,0.0,0.0,0.0,0.0,0.0,0.0,0.0,0.0,0.0,0.0,0.0,0.0,0.0,1.532,1.5684,0.0,1.5451,1.4215,0.0,0.0,0.0,1.1633,1.1881,1.2213,1.2052,1.104,0.0,0.0,1.1808,1.0752,1.0854,1.3287,1.3546,1.3351,1.2909,1.3556,1.4022,1.3382,1.3774,1.4065,1.3905,1.4281,1.4731,1.5258,1.5753,1.5504,1.5566,1.5597,1.5711,1.5649,1.4849,1.4094,1.4085,1.3173,1.3064,1.5338,1.4986,1.422,1.4234,1.3488,1.2739,1.3912,1.3943,1.429,1.4361,1.4246,1.4276,1.4321,1.4498,1.561,1.6,1.5941,1.6938,1.7247,1.6929,1.6075,1.6253,1.7249,1.6405,1.6585,1.7582,1.7608,1.7608,1.7582,1.6723,1.6287,1.6234,1.537,1.4942,1.4904,1.4483,1.41,1.3816,1.427,1.3903,1.2844,1.3678,1.4713,1.5945,1.6626,1.7397,1.8277,1.8277,1.8277,1.8277,1.8277,1.8277,1.8277,1.8277,1.837,1.8571,1.8169,1.7676,1.7173,1.5811,0.0,0.0,0.0,0.0,0.0,0.0,0.0,0.0,0.0,1.4095,1.2826,0.0,1.4603,0.0,1.591,1.6203,1.5684,1.4478,0.0,0.0,1.2276,1.1657,1.1154,1.1436,1.1133,0.9808,1.0144,1.0584,1.0841,1.0576,1.0707,1.1673,1.1487,1.143,1.2078,1.1913,1.1758,1.1853,1.2143,1.2306,1.241,1.2435,1.275,1.3133,1.2871,1.2771,1.3355,1.3155,1.3067,1.3364,1.3292,1.3109,1.3158,1.2873,1.2865,1.349,1.3879,1.4195,1.4195,1.3922,1.3452,1.2773,1.2724,1.2724,1.2505,1.2245,1.3387,1.3864,1.3954,1.4752,1.5102,1.5129,1.5769,1.6047,1.6021,1.537,1.545,1.5982,1.537,1.5423,1.6047,1.6047,1.6047,1.6021,1.5396,1.5102,1.5076,1.4433,1.4137,1.4179,1.3727,1.3437,1.3311,1.29,1.2301,1.1651,1.2846,1.3872,1.4628,1.5146,1.5863,1.6745,1.681,1.6833,1.6867,1.6491,1.6345,1.6547,1.6469,1.6533,1.6752,1.7042,1.6795,1.5923,1.4895,1.3941,0.0,0.0,0.0,0.0,0.0,0.0,0.0,0.0,0.0,0.0,0.0,1.3987,1.3694,1.4789,1.5183,1.4365,1.3303,1.2556,1.2269,1.1652,1.1114,1.0844,1.1,1.0833,1.0099,1.023,1.0486,1.0768,1.0729,1.0785,1.1256,1.094,1.0921,1.1574,1.1463,1.133,1.1532,1.171,1.1822,1.1855,1.1881,1.1993,1.2187,1.2018,1.1958,1.2357,1.225,1.215,1.239,1.2502,1.2531,1.2531,1.2531,1.2538,1.2608,1.2938,1.3363,1.3658,1.3776,1.3585,1.1135,1.1033,1.1033,1.0907,1.0918,1.2902,1.3704,1.3679,1.3814,1.3959,1.4126,1.4153,1.4153,1.4126,1.3959,1.3949,1.411,1.3949,1.3976,1.411,1.4142,1.4153,1.4126,1.4023,1.3953,1.3953,1.3817,1.3812,1.3954,1.3,1.259,1.2644,1.1691,1.1094,1.1003,1.2452,1.3219,1.3224,1.3651,1.4119,1.4685,1.4582,1.4609,1.4676,1.3906,1.3616,1.3977,1.3845,1.3845,1.405,1.4888,1.5035,1.4204,1.339,1.2675,0.0,1.0839,0.0,0.0,0.0,0.0,0.0,0.0,0.0,0.0,1.3575,1.3152,1.2311,1.3252,1.3549,1.2596,1.1752,1.1371,1.169,1.0957,1.048,1.0747,1.0777,1.082,1.0898,1.0672,1.0635,1.0999,1.0909,1.0934,1.1232,1.1138,1.1073,1.1421,1.1549,1.1614,1.1898,1.1942,1.1898,1.1962,1.2049,1.213,1.2214,1.2164,1.2184,1.2323,1.2232,1.2224,1.2251,1.2286,1.2293,1.2259,1.2293,1.2259,1.2328,1.2397,1.2544,1.2903,1.3096,1.3223,1.1171,1.1175,1.1147,1.1122,1.1147,1.1566,1.1593,1.1419,1.2309,1.3331,1.4318,1.4356,1.4356,1.4252,1.3192,1.3221,1.403,1.3139,1.3221,1.411,1.4287,1.4346,1.4301,1.3562,1.3201,1.3144,1.2219,1.1754,1.1797,1.1568,1.1377,1.1134,1.1052,1.0886,1.0558,0.0,0.0,0.0,1.4235,1.466,1.459,1.4049,1.3726,1.3756,1.3433,0.0,1.346,1.3561,1.3651,1.3701,1.4086,0.0,0.0,0.0,0.0,0.0,0.0,0.0,0.0,0.0,0.0,0.0,1.2841,1.2756,1.2623,1.2864,1.3146,1.342,1.2852,1.2476,1.2639,1.159,1.0932,1.0972,1.0914,1.0773,1.0593,1.0707,1.0713,1.0482,1.0362,1.0417,1.0626,1.0582,1.0644,1.0861,1.0919,1.1056,1.1386,1.1372,1.1345,1.149,1.1649,1.171,1.1827,1.1883,1.204,1.2349,1.214,1.2135,1.2583,1.2352,1.2244,1.2493,1.26,1.2564,1.26,1.26,1.2529,1.26,1.266,1.2695,1.2417,1.2418,1.2433,1.12,1.1092,1.0924,1.0812,0.0,1.0763,1.0669,1.0534,1.1248,1.1861,1.2373,1.2373,1.2373,1.2335,1.1656,1.1668,1.219,1.1612,1.1668,1.2227,1.2327,1.2373,1.2344,1.1882,1.1676,1.1639,1.1043,1.078,1.0858,1.0858,1.0812,1.0755,1.0848,1.0848,1.0771,1.1189,1.1695,1.2303,1.2773,1.3107,1.3279,1.3063,1.2946,1.2998,1.2402,0.0,0.0,0.0,0.0,0.0,0.0,0.0,0.0,1.2694,0.0,1.2173,1.1719,1.1621,1.1977,1.2013,1.2125,1.241,1.2173,1.2003,1.1999,1.204,1.2207,1.248,1.1949,1.166,1.1821,1.1195,1.0791,1.0798,1.0779,1.0704,1.0628,1.0679,1.0723,1.0621,1.0508,1.0555,1.0664,1.0684,1.0778,1.0921,1.107,1.1218,1.1443,1.1436,1.1443,1.1586,1.1742,1.183,1.1837,1.1904,1.1996,1.225,1.2141,1.2137,1.2462,1.2288,1.2166,1.2349,1.2385,1.2422,1.2422,1.2385,1.2385,1.2392,1.2442,1.2442,1.2215,1.2365,1.2598,1.1131,1.0955,1.0651,1.0487,1.039,1.039,1.0324,1.0324,1.0556,0.0,0.0,1.0345,1.0345,1.0316,1.0316,1.0308,1.0308,1.0308,1.0308,1.0308,1.033,1.0345,1.0316,1.0375,1.039,1.039,1.039,1.0457,1.0562,1.0539,1.0629,1.0778,1.0815,1.0919,1.1122,1.167,1.169,1.1224,1.1177,1.1418,1.1879,1.1921,1.1971,1.2095,1.1224,1.0895,1.1219,1.0878,1.0819,1.1037,1.1839,1.1967,1.1327,1.1619,1.1475,1.0722,1.0815,1.1069,1.1475,1.1507,1.1569,1.1719,1.1543,1.1476,1.1623,1.1364,1.1192,1.1141,1.1114,1.1053,1.0924,1.0834,1.0806,1.0774,1.0649,1.0622,1.0704,1.0785,1.0846,1.0914,1.0867,1.0853,1.0968,1.0988,1.1043,1.1226,1.1375,1.1538,1.1687,1.1651,1.1694,1.1837,1.1952,1.205,1.1965,1.202,1.2145,1.2193,1.2186,1.2179,1.2179,1.2179,1.2179,1.221,1.2179,1.2179,1.2179,1.2217,1.2179,1.2173,1.2179,1.2179,1.2203,1.254,1.2787,1.0838,1.0816,1.0786,1.074,1.0718,1.0718,1.0568,1.032,1.0458,1.0487,1.0487,1.0458,1.0487,1.048,1.0368,1.0308,1.0308,1.0308,1.0308,1.0316,1.042,1.0487,1.0465,1.0658,1.0718,1.0748,1.0718,1.0763,1.0755,1.0725,1.08,1.077,1.0904,1.1029,1.1184,1.1268,1.1301,1.1213,1.141,1.1509,1.1459,1.0844,1.0482,1.0519,1.0303,1.0137,1.0206,1.0319,1.037,1.0424,1.0776,1.1101,1.1425,1.1529,1.1581,1.1595,1.1635,1.1619,1.1494,1.1517,1.1515,1.1525,1.1355,1.1243,1.1265,1.1235,1.1109,1.0898,1.0839,1.0694,1.0589,1.0659,1.0741,1.0729,1.0792,1.086,1.0901,1.1029,1.1152,1.1186,1.1152,1.1158,1.1301,1.1258,1.1241,1.1502,1.1694,1.1834,1.206,1.1965,1.1884,1.1993,1.2084,1.2108,1.2189,1.2237,1.2298,1.2427,1.242,1.2406,1.2406,1.24,1.24,1.2427,1.2406,1.2413,1.242,1.244,1.2413,1.2406,1.24,1.2413,1.2406,1.245,1.2402,0.8483,0.8452,0.8264,0.8202,0.8196,0.8166,0.8063,0.7911,0.7977,0.8835,1.0081,1.0111,1.0111,1.0134,1.0063,1.0035,1.0035,1.0035,1.0028,1.0042,1.0105,1.016,1.0231,1.0224,0.9934,0.9386,0.9255,0.8848,0.8195,0.8133,0.8133,0.8206,0.8987,0.9634,1.0097,1.0799,1.1337,1.1621,1.1562,1.1522,1.1446,1.1216,1.1079,1.1048,1.0891,1.0808,1.0838,1.0786,1.0792,1.0792,1.0911,1.1079,1.1333,1.1433,1.1556,1.1628,1.1734,1.1753,1.169,1.1468,1.1373,1.146,1.1206,1.1087,1.1197,1.1106,1.102,1.1031,1.0886,1.0745,1.0636,1.0644,1.0758,1.0806,1.0941,1.1097,1.1252,1.1362,1.1443,1.1426,1.0628,1.0457,1.1469,1.0828,1.0776,1.1587,1.204,1.225,1.2379,1.2284,1.2172,1.2284,1.2298,1.2325,1.2393,1.2406,1.2433,1.2494,1.2501,1.2501,1.2501,1.2501,1.2501,1.2501,1.2501,1.2501,1.2501,1.2501,1.2501,1.2501,1.2501,1.2501,1.2488,1.2447,1.2332,0.6389,0.6357,0.6102,0.6006,0.6002,0.5934,0.5929,0.5926,0.5957,0.7069,0.8799,0.8928,0.8927,0.8927,0.8927,0.8927,0.8903,0.8934,0.8916,0.8916,0.8946,0.902,0.9068,0.9008,0.8477,0.7684,0.7518,0.6944,0.6032,0.5902,0.5958,0.6093,0.713,0.7958,0.851,0.9594,1.0362,1.0724,1.0518,1.0759,1.1558,1.175,1.1817,1.1802,1.165,1.1583,1.1575,1.1431,1.134,1.134,1.134,1.134,1.1347,1.1483,1.155,1.146,1.1571,1.1633,1.157,1.134,1.127,1.143,1.1131,1.1063,1.122,1.1111,1.1056,1.1097,1.1029,1.0914,1.086,1.0867,1.0934,1.1056,1.1199,1.1355,1.1572,1.1647,1.1484,1.1175,1.0031,0.9708,1.0257,0.9663,0.9601,1.1133,1.2091,1.2488,1.2501,1.2501,1.2501,1.2501,1.2501,1.2488,1.2501,1.2494,1.2494,1.2501,1.2501,1.2501,1.2501,1.2501,1.2501,1.2501,1.2501,1.2501,1.2501,1.2501,1.2501,1.2501,1.2501,1.2501,1.2501,1.2494,1.244,0.601,0.6038,0.5885,0.6006,0.5913,0.5902,0.5862,0.5882,0.5982,0.6081,0.6311,0.6279,0.6302,0.6263,0.6333,0.6399,0.6403,0.6261,0.6331,0.6375,0.6326,0.6368,0.6509,0.6432,0.6313,0.6206,0.6193,0.6057,0.577,0.5838,0.6008,0.6253,0.6411,0.6568,0.6759,0.6914,0.7027,0.7005,0.6988,0.8531,1.1578,1.181,1.1817,1.1817,1.1769,1.1762,1.1729,1.1747,1.1732,1.1732,1.1724,1.1732,1.1732,1.1754,1.1589,1.1266,1.1247,1.1178,1.1015,1.1118,1.1221,1.1207,1.1214,1.124,1.139,1.1355,1.1233,1.1036,1.109,1.1166,1.1172,1.1335,1.1457,1.1435,1.1418,1.1592,1.1489,1.1698,1.1225,0.9648,0.9298,0.9135,0.8156,0.7837,0.8296,0.9921,1.113,1.203,1.2231,1.2231,1.2385,1.2463,1.2501,1.2501,1.2501,1.2501,1.2501,1.2501,1.2501,1.2501,1.2501,1.2501,1.2501,1.2501,1.2501,1.2501,1.2501,1.2501,1.2501,1.2501,1.2501,1.2501,1.2501,1.2501,1.2467,0.3765,0.3765,0.3732,0.3745,0.3686,0.3684,0.3699,0.367,0.3702,0.3702,0.3697,0.3653,0.4485,0.593,0.5965,0.5961,0.5934,0.5938,0.5954,0.5954,0.599,0.6037,0.611,0.6029,0.5673,0.5004,0.4906,0.4465,0.3814,0.3686,0.374,0.3919,0.4653,0.5218,0.5413,0.6266,0.6681,0.6681,0.6681,0.7348,0.846,0.8678,0.9092,0.9915,1.0051,1.0454,1.1169,1.1256,1.1213,1.1169,1.1206,1.1289,1.1256,1.1374,1.1389,1.122,1.1186,1.1179,1.107,1.1131,1.1234,1.1322,1.1301,1.1362,1.1504,1.1443,1.1335,1.1246,1.126,1.1336,1.1301,1.1335,1.1417,1.1364,1.0687,1.0155,1.0238,0.9503,0.8701,0.8121,0.7297,0.7048,0.732,0.7421,0.7744,0.8443,0.9226,0.9964,1.0785,1.1017,1.1488,1.2269,1.2501,1.2501,1.2501,1.2501,1.2501,1.2501,1.2501,1.2501,1.2501,1.2501,1.2501,1.2501,1.2501,1.2501,1.2501,1.2501,1.2501,1.2501,1.2501,1.2501,1.2501,1.2501,1.2501,0.2189,0.2189,0.2189,0.2175,0.2123,0.2121,0.2109,0.2123,0.2121,0.2121,0.2121,0.2121,0.313,0.4777,0.4939,0.492,0.492,0.4907,0.4917,0.4949,0.4969,0.4975,0.5083,0.5008,0.4541,0.3813,0.3625,0.308,0.2221,0.2123,0.2125,0.2307,0.3207,0.382,0.4047,0.5095,0.5558,0.5519,0.5558,0.5493,0.5376,0.5334,0.6263,0.7965,0.8169,0.8652,0.9632,0.9701,0.9659,0.9563,0.9647,0.9701,0.9701,0.9859,0.9908,0.9908,0.9978,0.9997,0.9997,1.0027,1.0093,1.0184,1.0196,1.0239,1.0305,1.0251,1.0202,1.0119,1.0196,1.019,1.0735,1.0333,1.0112,1.009,0.9111,0.8582,0.8617,0.7673,0.7111,0.6601,0.5739,0.5078,0.5939,0.6381,0.6768,0.6811,0.7279,0.7825,0.9109,0.9731,1.0513,1.1643,1.2114,1.2501,1.2501,1.2501,1.2501,1.2501,1.2501,1.2501,1.2501,1.2501,1.2501,1.2501,1.2501,1.2501,1.2501,1.2501,1.2501,1.2501,1.2501,1.2501,1.2501,1.2501,1.2501,0.2189,0.2189,0.2189,0.2153,0.2186,0.2151,0.2185,0.2111,0.2147,0.2148,0.2112,0.2181,0.2284,0.2511,0.255,0.2354,0.2359,0.2486,0.2534,0.2504,0.25,0.2418,0.2353,0.2353,0.2386,0.249,0.2486,0.2351,0.2183,0.2185,0.2201,0.2229,0.2361,0.2396,0.2533,0.2706,0.2583,0.2834,0.2836,0.2618,0.2616,0.2616,0.3944,0.6213,0.6604,0.6713,0.6835,0.6766,0.6796,0.6723,0.6901,0.6839,0.6805,0.6844,0.6961,0.6895,0.7037,0.7083,0.7198,0.7366,0.7414,0.7355,0.7567,0.7323,0.7652,0.7643,0.7598,0.7319,0.7459,0.7823,0.8734,0.8243,0.7557,0.7499,0.724,0.7145,0.7186,0.6975,0.6483,0.532,0.4818,0.43,0.3178,0.4116,0.4938,0.5366,0.6381,0.7396,0.7669,0.8876,0.9692,1.0436,1.1372,1.2463,1.2501,1.2501,1.2501,1.2501,1.2501,1.2501,1.2501,1.2501,1.2501,1.2501,1.2501,1.2501,1.2501,1.2501,1.2501,1.2501,1.2501,1.2501,1.2501,1.2501,1.2501,0.1481,0.1515,0.1717,0.1717,0.1515,0.1515,0.1481,0.1515,0.1481,0.1481,0.1515,0.1717,0.1818,0.185,0.2066,0.2156,0.2156,0.2167,0.2171,0.2172,0.2183,0.2189,0.2189,0.2189,0.2189,0.2189,0.2189,0.2189,0.2189,0.2189,0.2193,0.2207,0.2202,0.2197,0.2226,0.2292,0.2279,0.2295,0.2296,0.2296,0.2296,0.2296,0.2864,0.3772,0.4842,0.5748,0.6649,0.6685,0.6625,0.65,0.6621,0.6685,0.6693,0.6772,0.6836,0.684,0.6905,0.6921,0.6925,0.6986,0.7002,0.7002,0.7002,0.6894,0.7002,0.7002,0.7002,0.6825,0.5996,0.5887,0.6213,0.6637,0.6995,0.6887,0.6159,0.5619,0.5428,0.483,0.3936,0.3471,0.3368,0.3101,0.2866,0.3062,0.3376,0.3454,0.3962,0.4782,0.5717,0.6499,0.7587,0.9459,1.0513,1.1295,1.2463,1.2501,1.2501,1.2501,1.2501,1.2501,1.2501,1.2501,1.2501,1.2501,1.2501,1.2501,1.2501,1.2501,1.2501,1.2501,1.2501,1.2501,1.2501,1.2501,1.2501,0.1111,0.1144,0.1346,0.1313,0.1111,0.1111,0.1111,0.1111,0.1111,0.1111,0.1144,0.1346,0.1447,0.1481,0.175,0.1851,0.1885,0.2053,0.2189,0.2189,0.2189,0.2189,0.2155,0.2088,0.1987,0.1987,0.1885,0.1851,0.1851,0.1851,0.1851,0.182,0.1844,0.1869,0.1859,0.192,0.1945,0.1964,0.2078,0.215,0.215,0.226,0.2296,0.2442,0.335,0.4351,0.5314,0.5346,0.5292,0.5183,0.5285,0.5346,0.5353,0.5424,0.5485,0.5485,0.5449,0.5485,0.5485,0.5485,0.5449,0.5485,0.5449,0.5485,0.5485,0.5485,0.5495,0.5259,0.4687,0.3978,0.4134,0.4905,0.555,0.5447,0.4647,0.4049,0.3987,0.3164,0.2668,0.2591,0.263,0.2553,0.2514,0.2514,0.2553,0.2514,0.2514,0.3062,0.3922,0.4779,0.5597,0.7898,0.8798,0.9853,1.094,1.1372,1.2108,1.2269,1.2501,1.2501,1.2501,1.2501,1.2501,1.2501,1.2501,1.2501,1.2501,1.2501,1.2501,1.2501,1.2501,1.2501,1.2501,1.2501,1.2501,0.1043,0.1043,0.1111,0.1043,0.0976,0.101,0.1043,0.101,0.101,0.0976,0.0976,0.1077,0.1111,0.1111,0.1178,0.1144,0.1313,0.1818,0.2088,0.2088,0.2122,0.2122,0.2054,0.175,0.1616,0.1582,0.1279,0.1144,0.1178,0.1212,0.1212,0.1147,0.1193,0.1242,0.1121,0.1241,0.1259,0.1344,0.1638,0.1786,0.1822,0.2041,0.2187,0.2223,0.2369,0.244,0.2475,0.2548,0.2691,0.2581,0.2545,0.2369,0.2656,0.2695,0.2478,0.2695,0.2515,0.2442,0.2515,0.2659,0.2804,0.2842,0.2553,0.2811,0.2922,0.2814,0.2829,0.2891,0.275,0.2539,0.2609,0.2826,0.2959,0.2583,0.2816,0.2794,0.2659,0.2552,0.2514,0.2514,0.2514,0.2514,0.2514,0.2514,0.2512,0.251,0.2512,0.2553,0.2944,0.3844,0.4779,0.5483,0.6694,0.8175,0.9187,1.0164,1.1172,1.1992,1.2347,1.2501,1.2501,1.2501,1.2501,1.2501,1.2501,1.2501,1.2501,1.2501,1.2501,1.2501,1.2501,1.2501,1.2501,1.2501,1.2501,-0.0135,0.0337,0.0572,0.0539,0.0337,0.0337,0.0337,0.0,0.0,0.0,0.0404,0.0606,0.0707,0.0774,0.0943,0.1077,0.1111,0.1346,0.1447,0.1447,0.1447,0.1481,0.1447,0.1313,0.1279,0.1245,0.1144,0.1111,0.1077,0.1077,0.1111,0.1112,0.1082,0.1091,0.1073,0.1122,0.1137,0.1223,0.1308,0.1386,0.1386,0.1495,0.1532,0.1532,0.1532,0.1532,0.1568,0.2005,0.226,0.2296,0.2296,0.2296,0.2296,0.2296,0.2296,0.2296,0.2296,0.2296,0.2296,0.2297,0.2297,0.23,0.2352,0.2363,0.2367,0.2383,0.2359,0.2409,0.241,0.2421,0.245,0.25,0.2509,0.2509,0.2487,0.25,0.2508,0.2511,0.2514,0.2514,0.2514,0.2506,0.2492,0.2496,0.2503,0.2491,0.25,0.2512,0.2632,0.2983,0.3842,0.4818,0.5796,0.6694,0.8136,0.9265,1.0081,1.1411,1.2153,1.2501,1.2501,1.2501,1.2501,1.2501,1.2501,1.2501,1.2501,1.2501,1.2501,1.2501,1.2501,1.2501,1.2501,1.2501,1.2501,-0.1378,-0.0606,-0.037,-0.0168,0.0,0.0,0.0,0.0,0.0,0.0,0.0,0.0202,0.0337,0.037,0.0572,0.0673,0.0673,0.0673,0.0707,0.0774,0.101,0.1077,0.1077,0.0943,0.0808,0.0707,0.0707,0.0707,0.0673,0.0707,0.0673,0.0673,0.0673,0.0678,0.0687,0.0697,0.0706,0.0787,0.0907,0.0985,0.0985,0.1131,0.1204,0.1204,0.1204,0.1204,0.1241,0.1678,0.1968,0.2114,0.2223,0.2296,0.2296,0.2296,0.2296,0.2296,0.2296,0.2296,0.2297,0.2307,0.235,0.2354,0.2378,0.2394,0.2398,0.2416,0.2425,0.2439,0.244,0.2453,0.2478,0.2485,0.2487,0.2485,0.2502,0.2508,0.25,0.2487,0.2441,0.2438,0.244,0.247,0.2463,0.2465,0.248,0.251,0.2485,0.2506,0.251,0.2514,0.3295,0.3842,0.4038,0.5405,0.7431,0.8366,0.9032,1.0513,1.196,1.2308,1.2501,1.2501,1.2501,1.2501,1.2501,1.2501,1.2501,1.2501,1.2501,1.2501,1.2501,1.2501,1.2501,1.2501,1.2501,-0.2521,-0.158,-0.1479,-0.0807,0.0,0.0,0.0,0.0,0.0,0.0,0.0,0.0,0.0,0.0,0.0,0.0,0.0,0.0,0.0,0.0,0.0642,0.0913,0.0876,0.0606,0.037,0.0135,0.0,0.0,0.0,0.0,0.0,0.0,0.0,0.0,0.0,0.0,0.0,0.0,0.0434,0.0583,0.0584,0.0876,0.1058,0.1058,0.1022,0.1022,0.1022,0.1168,0.1386,0.175,0.2005,0.215,0.2223,0.2261,0.2228,0.2304,0.2301,0.2307,0.231,0.2367,0.238,0.2383,0.2408,0.2427,0.2428,0.2435,0.2448,0.2507,0.2472,0.2518,0.2502,0.2504,0.2503,0.2506,0.2502,0.2495,0.251,0.2447,0.2438,0.2432,0.2425,0.2423,0.2424,0.2427,0.244,0.245,0.2499,0.2478,0.2499,0.2504,0.2511,0.2709,0.2983,0.4155,0.6186,0.6651,0.7548,0.997,1.1333,1.1798,1.2347,1.2463,1.2501,1.2501,1.2501,1.2501,1.2501,1.2501,1.2501,1.2501,1.2501,1.2501,1.2501,1.2501,1.2508,-0.2119,-0.0471,-0.0404,-0.0269,0.0,0.0,0.0,0.0,0.0,0.0,0.0,0.0,0.0,0.0,0.0,0.0,0.0,0.0,0.0,0.0,0.0173,0.0308,0.0304,0.0,0.0,0.0,0.0,0.0,0.0,0.0,0.0,0.0,0.0,0.0,0.0,0.0,0.0,0.0,0.0,0.0,0.0,0.0,0.0328,0.0328,0.0,0.0,0.0,0.062,0.0949,0.1314,0.1422,0.1641,0.1899,0.195,0.2034,0.2257,0.2348,0.2361,0.2362,0.2369,0.2412,0.2414,0.2439,0.2457,0.2496,0.2478,0.2492,0.2503,0.2502,0.2495,0.2485,0.252,0.2473,0.2454,0.2466,0.2513,0.2502,0.2443,0.2424,0.2424,0.2421,0.241,0.2399,0.2405,0.2416,0.2412,0.2427,0.245,0.2477,0.2492,0.2497,0.251,0.2826,0.3648,0.4508,0.4936,0.6378,0.9226,1.0552,1.1056,1.176,1.2385,1.2463,1.2501,1.2501,1.2501,1.2501,1.2501,1.2501,1.2501,1.2501,1.2501,1.2501,1.2501,1.2515,-0.3427,-0.1379,-0.1546,-0.0975,0.0,0.0,0.0,0.0,0.0,-0.037,-0.0774,-0.0874,-0.1244,-0.1713,0.0,0.0,-0.1616,-0.0546,0.0,0.0,-0.0279,0.0,0.0,0.0,0.0,0.0,0.0,0.0,0.0,0.0,0.0,0.0,0.0,0.0,0.0,0.0,0.0,0.0,0.0,0.0,0.0,0.0,0.0,0.0,0.0,0.0,0.0,0.022,0.0587,0.1061,0.1209,0.1323,0.1508,0.1562,0.1648,0.191,0.1886,0.1931,0.2122,0.2129,0.2251,0.241,0.247,0.2485,0.2491,0.2506,0.2514,0.2512,0.2503,0.2488,0.251,0.2496,0.2443,0.2431,0.2428,0.247,0.2469,0.2401,0.235,0.2348,0.2347,0.238,0.2361,0.2378,0.2382,0.2387,0.241,0.2438,0.2465,0.2476,0.2491,0.2506,0.2514,0.314,0.3454,0.3766,0.4701,0.747,0.8993,0.9615,1.094,1.1798,1.1953,1.1992,1.2269,1.2501,1.2501,1.2501,1.2501,1.2501,1.2501,1.2508,1.2508,1.2535,1.2542,-0.5443,-0.3295,-0.3662,-0.2553,-0.0673,0.0,0.0,0.0,0.0,-0.0774,-0.1748,-0.205,-0.2653,-0.4194,-0.283,-0.2997,-0.4008,-0.1889,-0.1694,-0.181,-0.1475,0.0,0.0,0.0,0.0,0.0,0.0,0.0,0.0,0.0,0.0,0.0,0.0,0.0,0.0,0.0,0.0,0.0,0.0,0.0,0.0,0.0,0.0,0.0,0.0,0.0,0.0,0.0,0.0333,0.1027,0.1073,0.1042,0.1118,0.113,0.1213,0.1291,0.137,0.1487,0.1715,0.1808,0.2009,0.2322,0.2419,0.2511,0.2506,0.2508,0.251,0.2493,0.2481,0.2506,0.2448,0.2429,0.2412,0.2401,0.2387,0.2413,0.2405,0.2349,0.2296,0.2296,0.2297,0.2297,0.2296,0.2299,0.2307,0.2364,0.239,0.242,0.2448,0.2472,0.2489,0.251,0.2514,0.2514,0.2632,0.2671,0.3805,0.5444,0.6733,0.7864,0.9731,1.063,1.0979,1.1211,1.1372,1.1876,1.2501,1.2501,1.2501,1.2501,1.2501,1.2515,1.2535,1.2576,1.2557,-0.4903,-0.3696,-0.4029,-0.3892,-0.3222,-0.215,-0.1647,-0.158,-0.0505,-0.1042,-0.195,-0.2185,-0.309,-0.4398,-0.4166,-0.4232,-0.4643,-0.3867,-0.3947,-0.3989,-0.3925,-0.3682,-0.3088,-0.1453,-0.0842,-0.1508,-0.1821,-0.2445,-0.3028,-0.2211,-0.1782,-0.1605,0.0,0.0,0.0,0.0,0.0,0.0,0.0,0.0,0.0,0.0,0.0,0.0,0.0,0.0,0.0,0.0,0.0,0.0,0.0301,0.0491,0.068,0.0725,0.0845,0.1039,0.1201,0.1284,0.1442,0.1636,0.1915,0.2028,0.2263,0.2504,0.2521,0.2499,0.2487,0.2462,0.2494,0.2481,0.2406,0.2371,0.2361,0.2322,0.2315,0.2308,0.2305,0.23,0.2297,0.2296,0.2296,0.2296,0.2296,0.2296,0.2303,0.2348,0.2372,0.2401,0.2433,0.2467,0.2491,0.2512,0.2514,0.2514,0.2514,0.2553,0.3179,0.3962,0.4899,0.5678,0.7552,0.8604,0.8643,0.942,1.0358,1.1056,1.1837,1.2501,1.2501,1.2501,1.2528,1.2589,1.2637,1.2611,1.2679,-0.5774,-0.4833,-0.5135,-0.4897,-0.4227,-0.349,-0.3155,-0.3021,-0.2383,-0.2788,-0.3895,-0.4096,-0.4967,-0.6172,-0.5743,-0.5697,-0.6134,-0.5719,-0.5497,-0.5376,-0.5021,-0.4973,-0.5267,-0.3584,-0.271,-0.3385,-0.3422,-0.4016,-0.4092,-0.3293,-0.219,-0.2163,-0.0784,0.0,0.0,0.0,0.0,0.0,0.0,0.0,0.0,0.0,0.0,0.0,0.0,0.0,0.0,0.0,0.0,0.0,0.0,0.0,0.0,0.0,0.0,0.0585,0.0665,0.0821,0.0975,0.1168,0.1359,0.1623,0.197,0.2116,0.2261,0.231,0.242,0.2432,0.2421,0.2444,0.2363,0.2348,0.2297,0.2296,0.2296,0.2296,0.2296,0.2296,0.2296,0.2296,0.2296,0.2296,0.2296,0.2296,0.231,0.2358,0.2388,0.2418,0.245,0.2481,0.2496,0.2512,0.2514,0.2514,0.2514,0.2592,0.2749,0.3179,0.3532,0.3922,0.4782,0.5486,0.5952,0.7513,0.9382,1.0164,1.0979,1.1682,1.2549,1.261,1.2657,1.2712,1.2766,1.2813,1.2901,-0.7016,-0.6272,-0.661,-0.6038,-0.5031,-0.473,-0.4629,-0.4596,-0.4361,-0.473,-0.6176,-0.641,-0.6777,-0.7989,-0.7311,-0.7579,-0.794,-0.7494,-0.6935,-0.6879,-0.6157,-0.6372,-0.6674,-0.6066,-0.5433,-0.5383,-0.515,-0.5267,-0.5158,-0.3921,-0.3654,-0.2865,-0.1202,0.0,0.0,0.0,0.0,0.0,0.0,0.0,0.0,0.0,0.0,0.0,0.0,0.0,0.0,0.0,0.0,0.0,0.0,0.0,0.0,0.0,0.0,0.0,0.0,0.0273,0.0504,0.0656,0.0845,0.1175,0.1516,0.1703,0.1815,0.2045,0.2193,0.2291,0.2312,0.2365,0.23,0.2297,0.2297,0.2296,0.2296,0.2296,0.2296,0.2296,0.2296,0.2296,0.2296,0.2296,0.2296,0.2297,0.2353,0.2373,0.2405,0.2435,0.2466,0.2489,0.2504,0.2512,0.2514,0.2514,0.2514,0.2514,0.2671,0.2749,0.2789,0.2867,0.2983,0.3532,0.4743,0.6928,0.8526,0.9431,1.0625,1.1875,1.2526,1.2646,1.2793,1.284,1.2908,1.3023,1.3111,-0.7588,-0.7755,-0.8084,-0.8084,-0.7679,-0.6606,-0.6071,-0.5837,-0.4931,-0.5131,-0.6343,-0.6477,-0.7345,-0.8205,-0.8563,-0.8615,-0.8623,-0.8321,-0.8328,-0.8454,-0.8054,-0.8342,-0.8335,-0.8189,-0.8177,-0.814,-0.7376,-0.7147,-0.7657,-0.7054,-0.5697,-0.5333,-0.3208,-0.1911,-0.1317,0.0,0.0,0.0,0.0,0.0,0.0,0.0,0.0,0.0,0.0,0.0,0.0,0.0,0.0,0.0,0.0,0.0,0.0,0.0,0.0,0.0,0.0,0.0,0.0,0.0423,0.0613,0.0798,0.1095,0.1315,0.1386,0.1652,0.1944,0.207,0.2203,0.2303,0.2297,0.2296,0.2296,0.2296,0.2296,0.2296,0.2296,0.2296,0.2296,0.2296,0.2296,0.2296,0.2296,0.2301,0.2356,0.2379,0.2408,0.2442,0.2474,0.2495,0.251,0.2514,0.2514,0.2514,0.2514,0.2514,0.2553,0.2592,0.2632,0.2632,0.2671,0.2592,0.3846,0.6559,0.8172,0.9081,1.0409,1.1913,1.2615,1.2881,1.2929,1.2969,1.3057,1.3146,1.32,-0.7861,-0.8356,-0.8551,-0.8623,-0.849,-0.7884,-0.755,-0.7445,-0.684,-0.6907,-0.7379,-0.7584,-0.7884,-0.8467,-0.8644,-0.8742,-0.8834,-0.8861,-0.8927,-0.8989,-0.9071,-0.9119,-0.9237,-0.9275,-0.9302,-0.9085,-0.8543,-0.843,-0.9044,-0.7661,-0.7083,-0.6306,-0.4442,-0.3054,-0.22,-0.1491,-0.0648,0.0,0.0,0.0,0.0,0.0,0.0,0.0,0.0,0.0,0.0,0.0,0.0,0.0,0.0,0.0,0.0,0.0,0.0,0.0,0.0,0.0,0.0,0.0228,0.0301,0.0335,0.0706,0.0889,0.1034,0.1403,0.181,0.2051,0.2114,0.2296,0.2296,0.2296,0.2296,0.2296,0.2296,0.2296,0.2296,0.2296,0.2296,0.2296,0.2296,0.2296,0.2296,0.2305,0.2323,0.2384,0.2412,0.2446,0.2482,0.2499,0.2514,0.2514,0.2514,0.2514,0.2514,0.2514,0.2514,0.2514,0.2514,0.2514,0.2514,0.2514,0.4333,0.6956,0.8063,0.8751,1.029,1.1817,1.2422,1.3071,1.3105,1.3119,1.3227,1.3308,1.3336,-0.7994,-0.8623,-0.8623,-0.8623,-0.8623,-0.859,-0.8551,-0.8623,-0.8518,-0.8451,-0.8623,-0.8556,-0.8523,-0.8623,-0.86,-0.8655,-0.8798,-0.8808,-0.8867,-0.8973,-0.9054,-0.9109,-0.9163,-0.9247,-0.9302,-0.9302,-0.9193,-0.9302,-0.9121,-0.8203,-0.7518,-0.6999,-0.573,-0.4173,-0.2946,-0.2177,-0.1337,0.0,0.0,0.0,0.0,0.0,0.0,0.0,0.0,0.0,0.0,0.0,0.0,0.0,0.0,0.0,0.0,0.0,0.0,0.0,0.0,0.0,0.0,0.0,0.0,0.0,0.0,0.0438,0.0657,0.1171,0.1789,0.2187,0.2296,0.2296,0.2296,0.2296,0.2296,0.2296,0.2296,0.2296,0.2296,0.2296,0.2296,0.2296,0.2296,0.2296,0.2296,0.2303,0.2319,0.2393,0.2421,0.2454,0.2488,0.2503,0.2514,0.2514,0.2514,0.2514,0.2514,0.2514,0.2514,0.2514,0.2514,0.2514,0.2514,0.2514,0.4773,0.69,0.7708,0.8521,1.015,1.1743,1.26,1.3152,1.3234,1.3288,1.3322,1.3356,1.337,-0.8256,-0.8623,-0.8623,-0.8623,-0.8623,-0.8623,-0.8623,-0.8623,-0.8623,-0.8623,-0.8623,-0.8623,-0.8623,-0.8623,-0.8623,-0.8694,-0.8747,-0.8802,-0.891,-0.9054,-0.9109,-0.9163,-0.9264,-0.9291,-0.9302,-0.9296,-0.9296,-0.9302,-0.9177,-0.8961,-0.8785,-0.8219,-0.71,-0.5691,-0.4158,-0.2972,-0.1381,0.0,0.0,0.0,0.0,0.0,0.0,0.0,0.0,0.0,0.0,0.0,0.0,0.0,0.0,0.0,0.0,0.0,0.0,0.0,0.0,0.0,0.0,0.0,0.0,0.0,0.0,0.0,0.0365,0.0839,0.1532,0.2223,0.226,0.2296,0.2296,0.2296,0.2296,0.2296,0.2296,0.2296,0.2296,0.2296,0.2296,0.2296,0.2296,0.2296,0.2296,0.2304,0.2316,0.2355,0.2431,0.2463,0.2491,0.2506,0.2514,0.2514,0.2514,0.2514,0.2514,0.2514,0.2514,0.2514,0.2514,0.2514,0.2514,0.2831,0.4544,0.632,0.7213,0.9078,1.1427,1.2732,1.3145,1.3268,1.3295,1.3336,1.3383,1.3397,1.3397,-0.8456,-0.8623,-0.8623,-0.8623,-0.8623,-0.8623,-0.8623,-0.8623,-0.8623,-0.8623,-0.8623,-0.8623,-0.8623,-0.8623,-0.8623,-0.8698,-0.8834,-0.8861,-0.9003,-0.9171,-0.9184,-0.9247,-0.9291,-0.9302,-0.9302,-0.9275,-0.9242,-0.9163,-0.9174,-0.9157,-0.9076,-0.8826,-0.8223,-0.7155,-0.5437,-0.4062,-0.269,0.0,0.0,0.0,0.0,0.0,0.0,0.0,0.0,0.0,0.0,0.0,0.0,0.0,0.0,0.0,0.0,0.0,0.0,0.0,0.0,0.0,0.0,0.0,0.0,0.0,0.0,0.0,0.0328,0.0657,0.1204,0.1932,0.2005,0.2078,0.2223,0.2296,0.2296,0.2296,0.2296,0.2296,0.2296,0.2296,0.2296,0.2296,0.2296,0.2296,0.2297,0.2305,0.2324,0.2402,0.2433,0.2461,0.2488,0.251,0.2514,0.2514,0.2514,0.2514,0.2514,0.2514,0.2514,0.2514,0.2514,0.2514,0.2514,0.3227,0.4665,0.6221,0.7533,0.9784,1.2566,1.3302,1.3322,1.3356,1.3397,1.3397,1.3397,1.3397,1.3397,-0.8623,-0.8623,-0.8623,-0.8623,-0.8623,-0.8623,-0.8623,-0.8623,-0.8623,-0.8623,-0.8623,-0.8623,-0.8623,-0.8623,-0.8634,-0.8693,-0.8889,-0.887,-0.8995,-0.9119,-0.9179,-0.9163,-0.9188,-0.9198,-0.9198,-0.9179,-0.9087,-0.9054,-0.9044,-0.9011,-0.8946,-0.8876,-0.8735,-0.7839,-0.6542,-0.4948,-0.3327,-0.1364,-0.0435,0.0,0.0,0.0,0.0,0.0,0.0,0.0,0.0,0.0,0.0,0.0,0.0,0.0,0.0,0.0,0.0,0.0,0.0,0.0,0.0,0.0,0.0,0.0,0.0,0.0146,0.0511,0.062,0.0839,0.1604,0.1641,0.1822,0.2078,0.215,0.2223,0.2223,0.2296,0.2296,0.2296,0.2296,0.2296,0.2296,0.2296,0.2296,0.2299,0.2305,0.2331,0.2412,0.2439,0.2422,0.2485,0.2512,0.2514,0.2514,0.2514,0.2514,0.2514,0.2514,0.2514,0.2514,0.2514,0.2514,0.2514,0.3031,0.4187,0.5826,0.7706,0.9982,1.2467,1.2959,1.3397,1.3397,1.3397,1.3397,1.3397,1.3397,1.3397,-0.8623,-0.8623,-0.8623,-0.8623,-0.8623,-0.8623,-0.8623,-0.8623,-0.8623,-0.8623,-0.8623,-0.8623,-0.8623,-0.8623,-0.8634,-0.866,-0.8791,-0.8819,-0.8889,-0.893,-0.8911,-0.8979,-0.8989,-0.8989,-0.8968,-0.8968,-0.8935,-0.893,-0.8903,-0.8861,-0.8812,-0.8785,-0.8851,-0.7908,-0.6698,-0.535,-0.3222,-0.134,-0.0255,0.0,0.0,0.0,0.0,0.0,0.0,0.0,0.0,0.0,0.0,0.0,0.0,0.0,0.0,0.0,0.0,0.0,0.0,0.0,0.0,0.0,0.0,0.0,0.0,0.0146,0.0438,0.0584,0.0839,0.1167,0.124,0.1495,0.1713,0.1859,0.2041,0.2223,0.2296,0.2296,0.2296,0.2296,0.2296,0.2296,0.2296,0.2296,0.2312,0.2322,0.234,0.2418,0.2459,0.2482,0.2493,0.2514,0.2514,0.2514,0.2514,0.2514,0.2514,0.2514,0.2514,0.2514,0.2514,0.2514,0.2514,0.3229,0.3709,0.6003,0.8033,1.0182,1.2056,1.2864,1.3383,1.3397,1.3397,1.3397,1.3397,1.3397,1.3397,-0.8423,-0.8623,-0.8623,-0.8623,-0.8623,-0.8623,-0.8623,-0.8623,-0.8623,-0.8623,-0.8623,-0.8623,-0.8623,-0.8623,-0.8595,-0.8688,-0.8792,-0.8808,-0.8845,-0.8881,-0.8919,-0.8914,-0.8914,-0.8903,-0.8919,-0.8892,-0.8849,-0.884,-0.8823,-0.8736,-0.877,-0.8803,-0.884,-0.8626,-0.7504,-0.5724,-0.3467,-0.1743,0.0,0.0,0.0,0.0,0.0,0.0,0.0,0.0,0.0,0.0,0.0,0.0,0.0,0.0,0.0,0.0,0.0,0.0,0.0,0.0,0.0,0.0,0.0,0.0,0.0,0.0,0.0,0.0,0.0,0.0693,0.0839,0.1058,0.1677,0.1822,0.1932,0.2187,0.2296,0.2296,0.2296,0.2296,0.2296,0.2296,0.2296,0.2296,0.2318,0.2339,0.2361,0.2425,0.2466,0.25,0.2508,0.2514,0.2514,0.2514,0.2514,0.2514,0.2514,0.2514,0.2514,0.2514,0.2514,0.2514,0.2514,0.2554,0.3467,0.5911,0.8163,1.0,1.1556,1.2829,1.337,1.339,1.3397,1.3397,1.3397,1.3397,1.3397,-0.839,-0.859,-0.8623,-0.8623,-0.8623,-0.8623,-0.8623,-0.8623,-0.8623,-0.8623,-0.8623,-0.8623,-0.8623,-0.8623,-0.859,-0.8622,-0.8721,-0.8715,-0.8764,-0.8802,-0.8823,-0.8811,-0.8811,-0.88,-0.8807,-0.8784,-0.8774,-0.8715,-0.8748,-0.8694,-0.8738,-0.8808,-0.8851,-0.8874,-0.8253,-0.6173,-0.3928,-0.233,0.0,0.0,0.0,0.0,0.0,0.0,0.0,0.0,0.0,0.0,0.0,0.0,0.0,0.0,0.0,0.0,0.0,0.0,0.0,0.0,0.0,0.0,0.0,0.0,0.0,0.0,0.0,0.0,0.0,0.0365,0.0474,0.0766,0.1494,0.1568,0.1859,0.2115,0.226,0.2296,0.2296,0.2296,0.2296,0.2296,0.2296,0.2297,0.2319,0.2346,0.2428,0.2451,0.2481,0.2507,0.251,0.2514,0.2514,0.2514,0.2514,0.2514,0.2514,0.2514,0.2514,0.2514,0.2514,0.2514,0.2514,0.2514,0.3652,0.6348,0.8366,0.9778,1.1317,1.2914,1.3308,1.339,1.3397,1.3397,1.3397,1.3397,1.3397,-0.8584,-0.8623,-0.8623,-0.8623,-0.8623,-0.8623,-0.8623,-0.8623,-0.8623,-0.8623,-0.8623,-0.8623,-0.8623,-0.8623,-0.8623,-0.8639,-0.8645,-0.8611,-0.8628,-0.8644,-0.8666,-0.8628,-0.8628,-0.8644,-0.8671,-0.8611,-0.8645,-0.8656,-0.8645,-0.8732,-0.8787,-0.8851,-0.8986,-0.9071,-0.8784,-0.6177,-0.3964,-0.2366,-0.0948,0.0,0.0,0.0,0.0,0.0,0.0,0.0,0.0,0.0,0.0,0.0,0.0,0.0,0.0,0.0,0.0,0.0,0.0,0.0,0.0,0.0,0.0,0.0,0.0,0.0,0.0,0.0,0.0,0.0,0.0,0.0,0.0912,0.1277,0.1714,0.2079,0.2223,0.2296,0.2296,0.2296,0.2296,0.2296,0.2296,0.23,0.232,0.235,0.2446,0.2481,0.2504,0.2514,0.2514,0.2514,0.2514,0.2514,0.2514,0.2514,0.2514,0.2514,0.2514,0.2514,0.2514,0.2514,0.2514,0.2514,0.4201,0.6833,0.8225,0.9326,1.1178,1.3132,1.3282,1.339,1.3397,1.3397,1.3397,1.3397,1.3397,-0.839,-0.8623,-0.8623,-0.8623,-0.8623,-0.8623,-0.8623,-0.8623,-0.8623,-0.8623,-0.8623,-0.8623,-0.8623,-0.8623,-0.8623,-0.8623,-0.8623,-0.8623,-0.8623,-0.8623,-0.8623,-0.8623,-0.8623,-0.8623,-0.8623,-0.8623,-0.8623,-0.8623,-0.8628,-0.8759,-0.8823,-0.8892,-0.9076,-0.9231,-0.8421,-0.6427,-0.4293,-0.3494,0.0,0.0,0.0,0.0,0.0,0.0,0.0,0.0,0.0,0.0,0.0,0.0,0.0,0.0,0.0,0.0,0.0,0.0,0.0,0.0,0.0,0.0,0.0,0.0,0.0,0.0,0.0,0.0,0.0,0.0,0.0,0.0,0.0985,0.1168,0.1532,0.2079,0.2296,0.2296,0.2296,0.2296,0.2296,0.2296,0.2296,0.2326,0.2348,0.2361,0.2447,0.2488,0.251,0.2514,0.2514,0.2514,0.2514,0.2514,0.2514,0.2514,0.2514,0.2514,0.2514,0.2514,0.2514,0.2514,0.2514,0.2514,0.44,0.6837,0.7842,0.8875,1.1282,1.3207,1.3329,1.339,1.3397,1.3397,1.3397,1.3397,1.3397,-0.839,-0.8584,-0.8623,-0.8623,-0.8623,-0.8623,-0.8623,-0.8623,-0.8623,-0.8623,-0.8623,-0.8623,-0.8623,-0.8623,-0.8623,-0.8623,-0.8623,-0.8623,-0.8623,-0.8623,-0.8623,-0.8623,-0.8623,-0.8623,-0.8623,-0.8623,-0.8595,-0.86,-0.8666,-0.878,-0.8927,-0.9054,-0.9184,-0.8842,-0.7883,-0.6036,-0.4657,-0.3712,0.0,0.0,0.0,0.0,0.0,0.0,0.0,0.0,0.0,0.0,0.0,0.0,0.0,0.0,0.0,0.0,0.0,0.0,0.0,0.0,0.0,0.0,0.0,0.0,0.0,0.0,0.0,0.0,0.0,0.0,0.0,0.0,0.0839,0.0985,0.1349,0.1895,0.2114,0.2114,0.2296,0.2296,0.2296,0.2296,0.2303,0.2338,0.2373,0.2386,0.2407,0.2481,0.2514,0.2514,0.2514,0.2514,0.2514,0.2514,0.2514,0.2553,0.2553,0.2514,0.2514,0.2514,0.2514,0.2514,0.2514,0.2592,0.4714,0.6659,0.7756,0.928,1.1812,1.3261,1.3349,1.339,1.3397,1.3397,1.3397,1.3397,1.3397,-0.859,-0.8623,-0.8623,-0.8623,-0.8623,-0.8623,-0.8623,-0.8623,-0.8623,-0.8623,-0.8623,-0.8623,-0.8623,-0.8623,-0.8623,-0.8623,-0.8623,-0.8623,-0.8623,-0.8623,-0.8623,-0.8623,-0.8623,-0.8623,-0.8623,-0.8623,-0.8611,-0.8677,-0.8774,-0.8899,-0.9073,-0.9226,-0.928,-0.8574,-0.7195,-0.5782,-0.4657,-0.3457,0.0,0.0,0.0,0.0,0.0,0.0,0.0,0.0,0.0,0.0,0.0,0.0,0.0,0.0,0.0,0.0,0.0,0.0,0.0,0.0,0.0,0.0,0.0,0.0,0.0,0.0,0.0,0.0,0.0,0.0,0.0,0.0,0.0547,0.0802,0.1021,0.1422,0.175,0.1932,0.2223,0.2296,0.226,0.2262,0.2303,0.233,0.2373,0.2394,0.2454,0.2487,0.2514,0.2514,0.2514,0.2514,0.2514,0.2514,0.2553,0.2632,0.2632,0.2789,0.3062,0.3219,0.2632,0.2514,0.2514,0.287,0.4608,0.63,0.7713,0.9693,1.2307,1.3322,1.3376,1.3397,1.3397,1.3397,1.3397,1.3397,1.3397,-0.8623,-0.8623,-0.8623,-0.8623,-0.8623,-0.8623,-0.8623,-0.8623,-0.8623,-0.8623,-0.8623,-0.8623,-0.8623,-0.8623,-0.8623,-0.8623,-0.8623,-0.8623,-0.8623,-0.8623,-0.8623,-0.8623,-0.8623,-0.8623,-0.8623,-0.8656,-0.8699,-0.8736,-0.8818,-0.8965,-0.9109,-0.928,-0.9302,-0.8357,-0.6906,-0.5456,-0.4257,-0.2803,-0.0875,0.0,0.0,0.0,0.0,0.0,0.0,0.0,0.0,0.0,0.0,0.0,0.0,0.0,0.0,0.0,0.0,0.0,0.0,0.0,0.0,0.0,0.0,0.0,0.0,0.0,0.0,0.0,0.0,0.0,0.0,0.0,0.0401,0.0584,0.0912,0.1239,0.1531,0.1713,0.2006,0.2187,0.2187,0.23,0.2304,0.2372,0.2416,0.2446,0.2467,0.2497,0.2514,0.2514,0.2514,0.2514,0.2514,0.2514,0.2553,0.2671,0.3101,0.3336,0.3687,0.3844,0.3101,0.2514,0.2553,0.3186,0.454,0.6579,0.9028,1.0968,1.2882,1.3397,1.3397,1.3397,1.3397,1.3397,1.3397,1.3397,1.3397,-0.8623,-0.8623,-0.8623,-0.8623,-0.8623,-0.8623,-0.8623,-0.8623,-0.8623,-0.8623,-0.8623,-0.8623,-0.8623,-0.8623,-0.8623,-0.8623,-0.8623,-0.8623,-0.8623,-0.8623,-0.8623,-0.8623,-0.8623,-0.8628,-0.8656,-0.8705,-0.8776,-0.8818,-0.8921,-0.9079,-0.9217,-0.9296,-0.9302,-0.7923,-0.6398,-0.4984,-0.3457,-0.1894,0.0,0.0,0.0,0.0,0.0,0.0,0.0,0.0,0.0,0.0,0.0,0.0,0.0,0.0,0.0,0.0,0.0,0.0,0.0,0.0,0.0,0.0,0.0,0.0,0.0,0.0,0.0,0.0,0.0,0.0,0.0,0.0073,0.0219,0.0438,0.0802,0.1203,0.1349,0.1495,0.1751,0.2005,0.2153,0.2265,0.2358,0.2387,0.242,0.2488,0.2516,0.2502,0.2514,0.2514,0.2514,0.2514,0.2514,0.2514,0.2592,0.271,0.3219,0.3531,0.3491,0.3452,0.2983,0.2553,0.2592,0.3819,0.5494,0.8145,1.1074,1.2455,1.3397,1.3397,1.3397,1.3397,1.3397,1.3397,1.3397,1.3397,1.3397,-0.8623,-0.8623,-0.8623,-0.8623,-0.8623,-0.8623,-0.8623,-0.8623,-0.8623,-0.8623,-0.8623,-0.8623,-0.8623,-0.8623,-0.8623,-0.8623,-0.8623,-0.8623,-0.8623,-0.8623,-0.8623,-0.8623,-0.859,-0.8606,-0.8705,-0.8776,-0.8868,-0.8954,-0.9117,-0.9231,-0.928,-0.9302,-0.8977,-0.7598,-0.5383,-0.4439,0.0,0.0,0.0,0.0,0.0,0.0,0.0,0.0,0.0,0.0,0.0,0.0,0.0,0.0,0.0,0.0,0.0,0.0,0.0,0.0,0.0,0.0,0.0,0.0,0.0,0.0,0.0,0.0,0.0,0.0,0.0,0.0,0.0,0.0,0.0,0.0,0.0474,0.0729,0.0912,0.1277,0.1713,0.2006,0.223,0.2312,0.2376,0.2405,0.2435,0.2505,0.2489,0.2508,0.2514,0.2514,0.2514,0.2514,0.2514,0.2514,0.2592,0.2789,0.3219,0.3413,0.3062,0.2828,0.2749,0.2553,0.2553,0.4296,0.6537,0.9161,1.1691,1.2665,1.3397,1.3397,1.3397,1.3397,1.3397,1.3397,1.3397,1.3397,1.3397,-0.8623,-0.8623,-0.8623,-0.8623,-0.8623,-0.8623,-0.8623,-0.8623,-0.8623,-0.8623,-0.8623,-0.8623,-0.8623,-0.8623,-0.8623,-0.8623,-0.8623,-0.8623,-0.8623,-0.8595,-0.8595,-0.865,-0.8656,-0.8693,-0.8781,-0.8858,-0.8943,-0.9101,-0.922,-0.9285,-0.923,-0.9085,-0.8394,-0.658,-0.4548,-0.3712,0.0,0.0,0.0,0.0,0.0,0.0,0.0,0.0,0.0,0.0,0.0,0.0,0.0,0.0,0.0,0.0,0.0,0.0,0.0,0.0,0.0,0.0,0.0,0.0,0.0,0.0,0.0,0.0,0.0,0.0,0.0,0.0,0.0,0.0,0.0,0.0,0.0109,0.0292,0.0511,0.1094,0.1713,0.2008,0.2269,0.233,0.2393,0.2423,0.2451,0.2477,0.25,0.2511,0.2514,0.2514,0.2514,0.2514,0.2514,0.2514,0.2592,0.2828,0.3374,0.3922,0.3883,0.3493,0.3415,0.3062,0.2712,0.5354,0.8096,0.9946,1.1893,1.2806,1.3397,1.3397,1.3397,1.3397,1.3397,1.3397,1.3397,1.3397,1.3397,-0.8456,-0.859,-0.8623,-0.8623,-0.8623,-0.8623,-0.8623,-0.8623,-0.8623,-0.8623,-0.8623,-0.8623,-0.8623,-0.8623,-0.8623,-0.8623,-0.8623,-0.8623,-0.8623,-0.859,-0.8649,-0.8705,-0.8754,-0.8791,-0.8889,-0.897,-0.9106,-0.9242,-0.9296,-0.923,-0.9121,-0.8357,-0.7159,-0.5891,-0.4,-0.2585,-0.1494,0.0,0.0,0.0,0.0,0.0,0.0,0.0,0.0,0.0,0.0,0.0,0.0,0.0,0.0,0.0,0.0,0.0,0.0,0.0,0.0,0.0,0.0,0.0,0.0,0.0,0.0,0.0,0.0,0.0,0.0,0.0,0.0,0.0,0.0,0.0,0.0,0.0182,0.0474,0.0948,0.1567,0.2079,0.2276,0.2372,0.2399,0.2429,0.2459,0.2489,0.2508,0.2512,0.2514,0.2514,0.2514,0.2514,0.2514,0.271,0.2946,0.3493,0.4273,0.486,0.5212,0.4782,0.4079,0.4645,0.51,0.7413,0.9708,1.1312,1.2418,1.2984,1.3397,1.3397,1.3397,1.3397,1.3397,1.3397,1.3397,1.3397,1.3397,-0.8289,-0.8584,-0.8656,-0.8656,-0.8623,-0.8623,-0.8623,-0.8623,-0.8623,-0.8623,-0.8623,-0.8623,-0.8623,-0.8623,-0.8623,-0.8623,-0.8634,-0.8667,-0.8656,-0.8694,-0.8781,-0.878,-0.884,-0.8916,-0.8984,-0.9087,-0.9201,-0.9275,-0.9302,-0.9193,-0.8652,-0.7308,-0.6217,-0.5238,-0.3128,-0.1893,0.0,0.0,0.0,0.0,0.0,0.0,0.0,0.0,0.0,0.0,0.0,0.0,0.0,0.0,0.0,0.0,0.0,0.0,0.0,0.0,0.0,0.0,0.0,0.0,0.0,0.0,0.0,0.0,0.0,0.0,0.0,0.0,0.0,0.0,0.0,0.0,0.0,0.0146,0.0511,0.0912,0.1532,0.2119,0.2286,0.2419,0.2413,0.2443,0.2472,0.2502,0.2508,0.2512,0.2514,0.2514,0.2514,0.2514,0.2514,0.3062,0.3609,0.4273,0.4975,0.5835,0.6381,0.5248,0.4745,0.6,0.7362,0.8807,1.0462,1.2329,1.3267,1.3376,1.3397,1.3397,1.3397,1.3397,1.3397,1.3397,1.3397,1.3397,1.3397,-0.8289,-0.8623,-0.8884,-0.8851,-0.8623,-0.8623,-0.8623,-0.8623,-0.8623,-0.8623,-0.859,-0.8623,-0.8623,-0.8623,-0.8623,-0.8628,-0.8667,-0.8682,-0.8765,-0.8792,-0.8861,-0.8865,-0.8919,-0.9006,-0.916,-0.9237,-0.9285,-0.9296,-0.9302,-0.923,-0.8543,-0.7091,-0.5564,-0.4257,-0.2619,0.0,0.0,0.0,0.0,0.0,0.0,0.0,0.0,0.0,0.0,0.0,0.0,0.0,0.0,0.0,0.0,0.0,0.0,0.0,0.0,0.0,0.0,0.0,0.0,0.0,0.0,0.0,0.0,0.0,0.0,0.0,0.0,0.0,0.0,0.0,0.0,0.0,0.0,0.0,0.062,0.1132,0.1717,0.2099,0.238,0.2445,0.2439,0.2467,0.2496,0.2511,0.2511,0.2514,0.2514,0.2514,0.2514,0.2514,0.2514,0.3258,0.4079,0.4586,0.5092,0.6733,0.7162,0.5952,0.5263,0.6174,0.7501,0.9307,1.101,1.2749,1.3336,1.339,1.3397,1.3397,1.3397,1.3397,1.3397,1.3397,1.3397,1.3397,1.3397]},{"header":{"parameterUnit":"m.s-1","parameterCategory":1,"la1":31.0,"la2":29.5877,"lo1":-88.7671,"lo2":-86.6584,"dy":0.0162,"dx":0.0185,"nx":115,"ny":88,"refTime":"2023-09-30T06:00:00:Z","depth":0,"parameterNumber":3,"parameterNumberName":"V-component_of_WINDS"},"data":[0.0,0.0,0.0,0.0,0.0,0.0,0.0,0.0,0.0,0.0,0.0,0.0,0.0,0.0,0.0,0.0,0.0,0.0,0.0,0.0,0.0,0.0,0.0,0.0,0.0,0.0,0.0,0.0,0.0,0.0,0.0,0.0,0.0,0.0,0.0,0.0,0.0,0.0,0.0,0.0,0.0,0.0,0.0,0.0,0.0,0.0,0.0,0.0,0.0,0.0,0.0,0.0,0.0,0.0,0.0,0.0,0.0,0.0,0.0,0.0,0.0,0.0,0.0,0.0,0.0,0.0,0.0,0.0,0.0,0.0,0.0,0.0,0.0,0.0,0.0,0.0,0.0,0.0,0.0,0.0,0.0,0.0,0.0,0.0,0.0,0.0,0.0,0.0,0.0,0.0,0.0,0.0,0.0,0.0,0.0,0.0,0.0,0.0,0.0,0.0,0.0,0.0,0.0,0.0,0.0,0.0,0.0,0.0,0.0,0.0,0.0,0.0,0.0,0.0,0.0,0.0,0.0,0.0,0.0,0.0,0.0,0.0,0.0,0.0,0.0,0.0,0.0,0.0,0.0,0.0,0.0,0.0,0.0,0.0,0.0,0.0,0.0,0.0,0.0,0.0,0.0,0.0,0.0,0.0,0.0,0.0,0.0,0.0,0.0,0.0,0.0,0.0,0.0,0.0,0.0,0.0,0.0,0.0,0.0,0.0,0.0,0.0,0.0,0.0,0.0,0.0,0.0,0.0,0.0,0.0,0.0,0.0,0.0,0.0,0.0,0.0,0.0,0.0,0.0,0.0,0.0,0.0,0.0,0.0,0.0,0.0,0.0,0.0,0.0,0.0,0.0,0.0,0.0,0.0,0.0,0.0,0.0,0.0,0.0,0.0,0.0,0.0,0.0,0.0,0.0,0.0,0.0,0.0,0.0,0.0,0.0,0.0,0.0,0.0,0.0,0.0,0.0,0.0,0.0,0.0,0.0,0.0,0.0,0.0,0.0,0.0,0.0,0.0,0.0,0.0,0.0,0.0,0.0,0.0,0.0,0.0,0.0,0.0,0.0,0.0,0.0,0.0,0.0,0.0,0.0,0.0,0.0,0.0,0.0,0.0,0.0,0.0,0.0,0.0,0.0,0.0,0.0,0.0,0.0,0.0,0.0,0.0,0.0,0.0,0.0,0.0,0.0,0.0,0.0,0.0,0.0,0.0,0.0,0.0,0.0,0.0,0.0,0.0,0.0,0.0,0.0,0.0,0.0,0.0,0.0,0.0,0.0,0.0,0.0,0.0,0.0,0.0,0.0,0.0,0.0,0.0,0.0,0.0,0.0,0.0,0.0,0.0,0.0,0.0,0.0,0.0,0.0,0.0,0.0,0.0,0.0,0.0,0.0,0.0,0.0,0.0,0.0,0.0,0.0,0.0,0.0,0.0,0.0,0.0,0.0,0.0,0.0,0.0,0.0,0.0,0.0,0.0,0.0,0.0,0.0,0.0,0.0,0.0,0.0,0.0,0.0,0.0,0.0,0.0,0.0,0.0,0.0,0.0,0.0,0.0,0.0,0.0,0.0,0.0,0.0,0.0,0.0,0.0,0.0,0.0,0.0,0.0,0.0,0.0,0.0,0.0,0.0,0.0,0.0,0.0,0.0,0.0,0.0,0.0,0.0,0.0,0.0,0.0,0.0,0.0,0.0,0.0,0.0,0.0,0.0,0.0,0.0,0.0,0.0,0.0,0.0,0.0,0.0,0.0,0.0,0.0,0.0,0.0,0.0,0.0,0.0,0.0,0.0,0.0,0.0,0.0,0.0,0.0,0.0,0.0,0.0,0.0,0.0,0.0,0.0,0.0,0.0,0.0,0.0,0.0,0.0,0.0,0.0,0.0,0.0,0.0,0.0,0.0,0.0,0.0,0.0,0.0,0.0,0.0,0.0,0.0,0.0,0.0,0.0,0.0,0.0,0.0,0.0,0.0,0.0,0.0,0.0,0.0,0.0,0.0,0.0,0.0,0.0,0.0,0.0,0.0,0.0,0.0,0.0,0.0,0.0,0.0,0.0,0.0,0.0,0.0,0.0,0.0,0.0,0.0,0.0,0.0,0.0,0.0,0.0,0.0,0.0,0.0,0.0,0.0,0.0,0.0,0.0,0.0,0.0,0.0,0.0,0.0,0.0,0.0,0.0,0.0,0.0,0.0,0.0,0.0,0.0,0.0,0.0,0.0,0.0,0.0,0.0,0.0,0.0,0.0,0.0,0.0,0.0,0.0,0.0,0.0,0.0,0.0,0.0,0.0,0.0,0.0,0.0,0.0,0.0,0.0,0.0,0.0,0.0,0.0,0.0,0.0,0.0,0.0,0.0,0.0,0.0,0.0,0.0,0.0,0.0,0.0,0.0,0.0,0.0,0.0,0.0,0.0,0.0,0.0,0.0,0.0,0.0,0.0,0.0,0.0,0.0,0.0,0.0,0.0,0.0,0.0,0.0,0.0,0.0,0.0,0.0,0.0,0.0,0.0,0.0,0.0,0.0,0.0,0.0,0.0,0.0,0.0,0.0,0.0,0.0,0.0,0.0,0.0,0.0,0.0,0.0,0.0,0.0,0.0,0.0,0.0,0.0,0.0,0.0,0.0,0.0,0.0,0.0,0.0,0.0,0.0,0.0,0.0,0.0,0.0,0.0,0.0,0.0,0.0,0.0,0.0,0.0,0.0,0.0,0.0,0.0,0.0,0.0,0.0,0.0,0.0,0.0,0.0,0.0,0.0,0.0,0.0,0.0,0.0,0.0,0.0,0.0,0.0,0.0,0.0,0.0,0.0,0.0,0.0,0.0,0.0,0.0,0.0,0.0,0.0,0.0,0.0,0.0,0.0,0.0,0.0,0.0,0.0,0.0,0.0,0.0,0.0,0.0,0.0,0.0,0.0,0.0,0.0,0.0,0.0,0.0,0.0,0.0,0.0,0.0,0.0,0.0,0.0,0.0,0.0,0.0,0.0,0.0,0.0,0.0,0.0,0.0,0.0,0.0,0.0,0.0,0.0,0.0,0.0,0.0,0.0,0.0,0.0,0.0,0.0,0.0,0.0,0.0,0.0,0.0,0.0,0.0,0.0,0.0,0.0,0.0,0.0,0.0,0.0,0.0,0.0,0.0,0.0,0.0,0.0,0.0,0.0,0.0,0.0,0.0,0.0,0.0,0.0,0.0,0.0,0.0,0.0,0.0,0.0,0.0,0.0,0.0,0.0,0.0,0.0,0.0,0.0,0.0,0.0,0.0,0.0,0.0,0.0,0.0,0.0,0.0,0.0,0.0,0.0,0.0,0.0,0.0,0.0,0.0,0.0,0.0,0.0,0.0,0.0,0.0,0.0,0.0,0.0,0.0,0.0,0.0,0.0,0.0,0.0,0.0,0.0,0.0,0.0,0.0,0.0,0.0,0.0,0.0,0.0,0.0,0.0,0.0,0.0,0.0,0.0,0.0,0.0,0.0,0.0,0.0,0.0,0.0,0.0,0.0,0.0,0.0,0.0,0.0,0.0,0.0,0.0,0.0,0.0,0.0,0.0,0.0,0.0,0.0,0.0,0.0,0.0,0.0,0.0,0.0,0.0,0.0,0.0,0.0,0.0,0.0,0.0,0.0,0.0,0.0,0.0,0.0,0.0,0.0,0.0,0.0,0.0,0.0,0.0,0.0,0.0,0.0,0.0,0.0,0.0,0.0,0.0,0.0,0.0,0.0,0.0,0.0,0.0,0.0,0.0,0.0,0.0,0.0,0.0,0.0,0.0,0.0,0.0,0.0,0.0,0.0,0.0,0.0,0.0,0.0,0.0,0.0,0.0,0.0,0.0,0.0,0.0,0.0,0.0,0.0,0.0,0.0,0.0,0.0,0.0,0.0,0.0,0.0,0.0,0.0,0.0,0.0,0.0,0.0,0.0,0.0,0.0,0.0,0.0,0.0,0.0,0.0,0.0,0.0,0.0,0.0,0.0,0.0,0.0,0.0,0.0,0.0,0.0,0.0,0.0,0.0,0.0,0.0,0.0,0.0,0.0,0.0,0.0,0.0,0.0,0.0,0.0,0.0,0.0,0.0,0.0,0.0,0.0,0.0,0.0,0.0,0.0,0.0,0.0,0.0,0.0,0.0,0.0,0.0,0.0,0.0,0.0,0.0,0.0,0.0,0.0,0.0,0.0,0.0,0.0,0.0,0.0,0.0,0.0,0.0,0.0,0.0,0.0,0.0,0.0,0.0,0.0,0.0,0.0,0.0,0.0,0.0,0.0,0.0,0.0,1.939,0.0,0.0,0.0,0.0,0.0,0.0,0.0,0.0,0.0,0.0,0.0,0.0,0.0,0.0,0.0,0.0,0.0,0.0,0.0,0.0,0.0,0.0,0.0,0.0,0.0,0.0,0.0,0.0,0.0,0.0,0.0,0.0,0.0,0.0,0.0,0.0,0.0,0.0,0.0,0.0,0.0,0.0,0.0,0.0,0.0,0.0,0.0,0.0,0.0,0.0,0.0,0.0,0.0,0.0,0.0,0.0,0.0,0.0,0.0,0.0,0.0,0.0,0.0,0.0,0.0,0.0,0.0,0.0,0.0,0.0,0.0,0.0,0.0,0.0,0.0,0.0,0.0,0.0,0.0,0.0,0.0,0.0,0.0,0.0,0.0,0.0,0.0,0.0,0.0,0.0,0.0,0.0,0.0,0.0,0.0,0.0,0.0,0.0,0.0,0.0,0.0,0.0,0.0,0.0,0.0,0.0,0.0,0.0,0.0,0.0,1.9282,1.9282,1.9331,1.9386,1.9398,0.0,0.0,0.0,0.0,0.0,0.0,0.0,0.0,0.0,0.0,0.0,0.0,0.0,0.0,0.0,0.0,0.0,0.0,0.0,0.0,0.0,0.0,0.0,0.0,0.0,0.0,0.0,0.0,0.0,0.0,0.0,0.0,0.0,0.0,0.0,0.0,0.0,0.0,0.0,0.0,0.0,0.0,0.0,0.0,0.0,0.0,0.0,0.0,0.0,0.0,0.0,0.0,0.0,0.0,0.0,0.0,0.0,0.0,0.0,0.0,0.0,0.0,0.0,0.0,0.0,0.0,0.0,0.0,0.0,0.0,0.0,0.0,0.0,0.0,0.0,0.0,0.0,0.0,0.0,0.0,0.0,0.0,0.0,0.0,0.0,0.0,0.0,0.0,0.0,0.0,0.0,0.0,0.0,0.0,0.0,0.0,0.0,0.0,0.0,0.0,0.0,0.0,0.0,0.0,0.0,0.0,0.0,0.0,0.0,0.0,0.0,0.0,1.939,1.9413,1.9427,0.0,0.0,0.0,0.0,0.0,0.0,0.0,0.0,0.0,0.0,0.0,0.0,0.0,0.0,0.0,0.0,0.0,0.0,0.0,0.0,0.0,0.0,0.0,0.0,0.0,0.0,0.0,0.0,0.0,0.0,0.0,0.0,0.0,0.0,0.0,0.0,0.0,0.0,0.0,0.0,0.0,0.0,0.0,0.0,0.0,0.0,0.0,0.0,0.0,0.0,0.0,0.0,0.0,0.0,0.0,0.0,0.0,0.0,0.0,0.0,0.0,0.0,0.0,0.0,0.0,0.0,0.0,0.0,0.0,0.0,0.0,0.0,0.0,0.0,0.0,0.0,0.0,0.0,0.0,0.0,0.0,0.0,0.0,0.0,0.0,0.0,0.0,0.0,0.0,0.0,0.0,0.0,0.0,0.0,0.0,0.0,0.0,0.0,0.0,0.0,0.0,0.0,0.0,0.0,0.0,0.0,0.0,0.0,0.0,0.0,1.9342,1.9282,1.9464,0.0,1.9515,0.0,0.0,0.0,0.0,0.0,0.0,0.0,0.0,0.0,0.0,0.0,0.0,0.0,0.0,0.0,0.0,0.0,0.0,0.0,0.0,0.0,0.0,0.0,0.0,0.0,0.0,0.0,0.0,0.0,0.0,0.0,0.0,0.0,0.0,0.0,0.0,0.0,0.0,0.0,0.0,0.0,0.0,0.0,0.0,0.0,0.0,0.0,0.0,0.0,0.0,0.0,0.0,0.0,0.0,0.0,0.0,0.0,0.0,0.0,0.0,0.0,0.0,0.0,0.0,0.0,0.0,0.0,0.0,0.0,0.0,0.0,0.0,0.0,0.0,0.0,0.0,0.0,0.0,0.0,0.0,0.0,0.0,0.0,0.0,0.0,0.0,0.0,0.0,0.0,0.0,0.0,0.0,0.0,0.0,0.0,0.0,0.0,0.0,0.0,0.0,0.0,0.0,0.0,0.0,0.0,0.0,0.0,0.0,0.0,0.0,2.0797,2.0784,2.0869,2.0936,0.0,0.0,0.0,0.0,0.0,0.0,0.0,0.0,0.0,0.0,0.0,0.0,0.0,0.0,0.0,0.0,0.0,0.0,0.0,0.0,0.0,0.0,0.0,0.0,0.0,0.0,0.0,0.0,0.0,0.0,0.0,0.0,0.0,0.0,0.0,0.0,0.0,0.0,0.0,0.0,0.0,0.0,0.0,0.0,0.0,0.0,0.0,0.0,0.0,0.0,0.0,0.0,0.0,0.0,0.0,0.0,0.0,0.0,0.0,0.0,0.0,0.0,0.0,0.0,0.0,0.0,0.0,0.0,0.0,0.0,0.0,0.0,0.0,0.0,0.0,0.0,0.0,0.0,0.0,0.0,0.0,0.0,0.0,0.0,0.0,0.0,0.0,0.0,0.0,0.0,0.0,0.0,0.0,0.0,0.0,0.0,0.0,0.0,0.0,0.0,0.0,0.0,0.0,0.0,0.0,0.0,0.0,0.0,0.0,0.0,2.149,2.1801,2.181,2.1877,2.1935,2.1954,0.0,0.0,0.0,0.0,0.0,0.0,0.0,0.0,0.0,0.0,0.0,0.0,0.0,0.0,0.0,0.0,0.0,0.0,0.0,0.0,0.0,0.0,0.0,0.0,0.0,0.0,0.0,0.0,0.0,0.0,0.0,0.0,0.0,0.0,0.0,0.0,0.0,0.0,0.0,0.0,0.0,0.0,0.0,0.0,0.0,0.0,0.0,0.0,0.0,0.0,0.0,0.0,0.0,0.0,0.0,0.0,0.0,0.0,0.0,0.0,0.0,0.0,0.0,0.0,0.0,0.0,0.0,0.0,0.0,0.0,0.0,0.0,0.0,0.0,0.0,0.0,0.0,0.0,0.0,0.0,0.0,0.0,0.0,0.0,0.0,0.0,0.0,0.0,0.0,0.0,0.0,0.0,0.0,0.0,0.0,0.0,0.0,0.0,0.0,0.0,0.0,0.0,0.0,0.0,0.0,0.0,0.0,0.0,2.1743,2.1823,2.1848,2.1947,2.1902,2.1927,0.0,0.0,0.0,0.0,0.0,0.0,0.0,0.0,0.0,0.0,0.0,0.0,0.0,0.0,0.0,0.0,0.0,0.0,0.0,0.0,0.0,0.0,0.0,0.0,0.0,0.0,0.0,0.0,0.0,0.0,0.0,0.0,0.0,0.0,0.0,0.0,0.0,0.0,0.0,0.0,0.0,0.0,0.0,0.0,0.0,0.0,0.0,0.0,0.0,0.0,0.0,0.0,0.0,0.0,0.0,0.0,0.0,0.0,0.0,0.0,0.0,0.0,0.0,0.0,0.0,0.0,0.0,0.0,0.0,0.0,0.0,0.0,0.0,0.0,0.0,0.0,0.0,0.0,0.0,0.0,0.0,0.0,0.0,0.0,0.0,0.0,0.0,0.0,0.0,0.0,0.0,0.0,0.0,0.0,0.0,0.0,0.0,0.0,0.0,0.0,0.0,0.0,0.0,0.0,0.0,0.0,0.0,0.0,0.0,2.2575,2.306,2.3359,2.344,2.3475,2.3523,0.0,0.0,0.0,0.0,0.0,0.0,0.0,0.0,0.0,0.0,0.0,0.0,0.0,0.0,0.0,0.0,0.0,0.0,0.0,0.0,0.0,0.0,0.0,0.0,0.0,0.0,0.0,0.0,0.0,0.0,0.0,0.0,0.0,0.0,0.0,0.0,0.0,0.0,0.0,0.0,0.0,0.0,0.0,0.0,0.0,0.0,0.0,0.0,0.0,0.0,0.0,0.0,0.0,0.0,0.0,0.0,0.0,0.0,0.0,0.0,0.0,0.0,0.0,0.0,0.0,0.0,0.0,0.0,0.0,0.0,0.0,0.0,0.0,0.0,0.0,0.0,0.0,0.0,0.0,0.0,0.0,0.0,0.0,0.0,0.0,0.0,0.0,0.0,0.0,0.0,0.0,0.0,0.0,0.0,0.0,0.0,0.0,0.0,0.0,0.0,0.0,0.0,0.0,0.0,0.0,0.0,0.0,0.0,0.0,2.3396,0.0,2.4224,2.4294,2.4358,2.4407,0.0,0.0,0.0,0.0,0.0,0.0,0.0,0.0,0.0,0.0,0.0,0.0,0.0,0.0,0.0,0.0,0.0,0.0,0.0,0.0,0.0,0.0,0.0,0.0,0.0,0.0,0.0,0.0,0.0,0.0,0.0,0.0,0.0,0.0,0.0,0.0,0.0,0.0,0.0,0.0,0.0,0.0,0.0,0.0,0.0,0.0,0.0,0.0,0.0,0.0,0.0,0.0,0.0,0.0,0.0,0.0,0.0,0.0,0.0,0.0,0.0,0.0,0.0,0.0,0.0,0.0,0.0,0.0,0.0,0.0,0.0,0.0,0.0,0.0,0.0,0.0,0.0,0.0,0.0,0.0,0.0,0.0,0.0,0.0,0.0,0.0,0.0,0.0,0.0,0.0,0.0,0.0,0.0,0.0,0.0,0.0,0.0,0.0,0.0,0.0,0.0,0.0,0.0,0.0,0.0,0.0,0.0,0.0,2.4214,2.4178,2.4182,2.4247,2.4294,2.4335,2.4358,0.0,0.0,0.0,0.0,0.0,0.0,0.0,0.0,0.0,0.0,0.0,0.0,0.0,0.0,0.0,0.0,0.0,0.0,0.0,0.0,0.0,0.0,0.0,0.0,0.0,0.0,0.0,0.0,0.0,0.0,0.0,0.0,0.0,0.0,0.0,0.0,0.0,0.0,0.0,0.0,0.0,0.0,0.0,0.0,0.0,0.0,0.0,0.0,0.0,0.0,0.0,0.0,0.0,0.0,0.0,0.0,0.0,0.0,0.0,0.0,0.0,0.0,0.0,0.0,0.0,0.0,0.0,0.0,0.0,0.0,0.0,0.0,0.0,0.0,0.0,0.0,0.0,0.0,0.0,0.0,0.0,0.0,0.0,0.0,0.0,0.0,0.0,0.0,0.0,0.0,0.0,0.0,0.0,0.0,0.0,0.0,0.0,0.0,0.0,0.0,0.0,0.0,0.0,0.0,0.0,0.0,0.0,0.0,0.0,2.4215,2.4238,2.4321,2.4376,2.4944,2.5272,0.0,0.0,0.0,0.0,0.0,0.0,0.0,0.0,0.0,0.0,0.0,0.0,0.0,0.0,0.0,0.0,0.0,0.0,0.0,0.0,0.0,0.0,0.0,0.0,0.0,0.0,0.0,0.0,0.0,0.0,0.0,0.0,0.0,0.0,0.0,0.0,0.0,0.0,0.0,0.0,0.0,0.0,0.0,0.0,0.0,0.0,0.0,0.0,0.0,0.0,0.0,0.0,0.0,0.0,0.0,0.0,0.0,0.0,0.0,0.0,0.0,0.0,0.0,0.0,0.0,0.0,0.0,0.0,0.0,0.0,0.0,0.0,0.0,0.0,0.0,0.0,0.0,0.0,0.0,0.0,0.0,0.0,0.0,0.0,0.0,0.0,0.0,0.0,0.0,0.0,0.0,0.0,0.0,0.0,0.0,0.0,0.0,0.0,0.0,0.0,0.0,0.0,0.0,0.0,0.0,0.0,0.0,0.0,0.0,2.6065,2.6033,2.6105,2.6184,2.6689,2.6723,2.6163,0.0,0.0,0.0,0.0,0.0,0.0,0.0,0.0,0.0,0.0,0.0,0.0,0.0,0.0,0.0,0.0,0.0,0.0,0.0,0.0,0.0,0.0,0.0,0.0,0.0,0.0,0.0,0.0,0.0,0.0,0.0,0.0,0.0,0.0,0.0,0.0,0.0,0.0,0.0,0.0,0.0,0.0,0.0,0.0,0.0,0.0,0.0,0.0,0.0,0.0,0.0,0.0,0.0,0.0,0.0,0.0,0.0,0.0,0.0,0.0,0.0,0.0,0.0,0.0,0.0,0.0,0.0,0.0,0.0,0.0,0.0,0.0,0.0,0.0,0.0,0.0,0.0,0.0,0.0,0.0,0.0,0.0,0.0,0.0,0.0,0.0,0.0,0.0,0.0,0.0,0.0,0.0,0.0,0.0,0.0,0.0,0.0,0.0,0.0,0.0,0.0,0.0,0.0,0.0,0.0,0.0,0.0,0.0,2.9347,2.9383,2.9375,2.9309,2.9202,2.8486,0.0,0.0,0.0,0.0,0.0,0.0,0.0,0.0,0.0,0.0,0.0,0.0,0.0,0.0,0.0,0.0,0.0,0.0,0.0,0.0,0.0,0.0,0.0,0.0,0.0,0.0,0.0,0.0,0.0,0.0,0.0,0.0,0.0,0.0,0.0,0.0,0.0,0.0,0.0,0.0,0.0,0.0,0.0,0.0,0.0,0.0,0.0,0.0,0.0,0.0,0.0,0.0,0.0,0.0,0.0,0.0,0.0,0.0,0.0,0.0,0.0,0.0,0.0,0.0,0.0,0.0,0.0,0.0,0.0,0.0,0.0,0.0,0.0,0.0,0.0,0.0,0.0,0.0,0.0,0.0,0.0,0.0,0.0,0.0,0.0,0.0,0.0,0.0,0.0,0.0,0.0,0.0,0.0,0.0,0.0,0.0,0.0,0.0,0.0,0.0,0.0,0.0,0.0,0.0,0.0,0.0,0.0,0.0,0.0,3.2599,3.3797,3.3309,3.1063,3.044,2.995,0.0,0.0,0.0,0.0,0.0,0.0,0.0,0.0,0.0,0.0,0.0,0.0,0.0,0.0,0.0,0.0,0.0,0.0,0.0,0.0,0.0,0.0,0.0,0.0,0.0,0.0,0.0,0.0,0.0,0.0,0.0,0.0,0.0,0.0,0.0,0.0,0.0,0.0,0.0,0.0,0.0,0.0,0.0,0.0,0.0,0.0,0.0,0.0,0.0,0.0,0.0,0.0,0.0,0.0,0.0,0.0,0.0,0.0,0.0,0.0,0.0,0.0,0.0,0.0,0.0,0.0,0.0,0.0,0.0,0.0,0.0,0.0,0.0,0.0,0.0,0.0,0.0,0.0,0.0,0.0,0.0,0.0,0.0,0.0,0.0,0.0,0.0,0.0,0.0,0.0,0.0,0.0,0.0,0.0,0.0,0.0,0.0,0.0,0.0,0.0,0.0,0.0,0.0,0.0,0.0,0.0,0.0,0.0,3.2444,3.3854,3.6134,3.6442,3.4636,3.2852,3.1616,0.0,0.0,0.0,0.0,0.0,0.0,0.0,0.0,0.0,0.0,0.0,0.0,0.0,0.0,0.0,0.0,0.0,0.0,0.0,0.0,0.0,0.0,0.0,0.0,0.0,0.0,0.0,0.0,0.0,0.0,0.0,0.0,0.0,0.0,0.0,0.0,0.0,0.0,0.0,0.0,0.0,0.0,0.0,0.0,0.0,0.0,0.0,0.0,0.0,0.0,0.0,0.0,0.0,0.0,0.0,0.0,0.0,0.0,0.0,0.0,0.0,0.0,0.0,0.0,0.0,0.0,0.0,0.0,0.0,0.0,0.0,0.0,0.0,0.0,0.0,0.0,0.0,0.0,0.0,0.0,0.0,0.0,0.0,0.0,0.0,0.0,0.0,0.0,0.0,0.0,0.0,0.0,0.0,0.0,0.0,0.0,0.0,0.0,0.0,0.0,0.0,0.0,0.0,0.0,0.0,0.0,0.0,0.0,3.4007,3.4217,3.7228,3.8872,3.8836,3.5698,3.33,0.0,0.0,0.0,0.0,0.0,0.0,0.0,0.0,0.0,0.0,0.0,0.0,0.0,0.0,0.0,0.0,0.0,0.0,0.0,0.0,0.0,0.0,0.0,0.0,0.0,0.0,0.0,0.0,0.0,0.0,0.0,0.0,0.0,0.0,0.0,0.0,0.0,0.0,0.0,0.0,0.0,0.0,0.0,0.0,0.0,0.0,0.0,0.0,0.0,0.0,0.0,0.0,0.0,0.0,0.0,0.0,0.0,0.0,0.0,0.0,0.0,0.0,0.0,0.0,0.0,0.0,0.0,0.0,0.0,0.0,0.0,0.0,0.0,0.0,0.0,0.0,0.0,0.0,0.0,0.0,0.0,0.0,0.0,0.0,0.0,0.0,0.0,0.0,0.0,0.0,0.0,0.0,0.0,0.0,0.0,0.0,0.0,0.0,0.0,0.0,0.0,0.0,0.0,0.0,0.0,0.0,0.0,0.0,3.4836,3.6779,3.8683,3.9937,4.0553,3.6299,3.4125,0.0,0.0,0.0,0.0,0.0,0.0,0.0,0.0,0.0,0.0,0.0,0.0,0.0,0.0,0.0,0.0,0.0,0.0,0.0,0.0,0.0,0.0,0.0,0.0,0.0,0.0,0.0,0.0,0.0,0.0,0.0,0.0,0.0,0.0,0.0,0.0,0.0,0.0,0.0,0.0,0.0,0.0,0.0,0.0,0.0,0.0,0.0,0.0,2.6523,0.0,0.0,0.0,0.0,0.0,0.0,0.0,0.0,0.0,0.0,0.0,0.0,0.0,0.0,0.0,0.0,0.0,0.0,0.0,0.0,0.0,0.0,0.0,0.0,0.0,0.0,0.0,0.0,0.0,0.0,0.0,0.0,0.0,0.0,0.0,0.0,0.0,0.0,0.0,0.0,0.0,0.0,0.0,0.0,0.0,0.0,0.0,0.0,0.0,0.0,0.0,0.0,0.0,0.0,0.0,0.0,0.0,0.0,0.0,3.6043,3.8073,3.9659,4.0663,4.0956,3.7971,3.6097,0.0,0.0,0.0,0.0,0.0,0.0,0.0,0.0,0.0,0.0,0.0,0.0,0.0,0.0,0.0,0.0,0.0,0.0,0.0,0.0,0.0,0.0,0.0,0.0,0.0,0.0,0.0,0.0,0.0,0.0,0.0,0.0,0.0,0.0,0.0,0.0,0.0,0.0,0.0,0.0,0.0,0.0,0.0,0.0,0.0,0.0,0.0,0.0,0.0,0.0,0.0,0.0,0.0,0.0,0.0,0.0,0.0,0.0,0.0,0.0,0.0,0.0,0.0,0.0,0.0,0.0,0.0,0.0,0.0,0.0,0.0,0.0,0.0,0.0,0.0,0.0,0.0,0.0,0.0,0.0,0.0,0.0,0.0,0.0,0.0,0.0,0.0,0.0,0.0,0.0,0.0,0.0,0.0,0.0,0.0,0.0,0.0,0.0,0.0,0.0,0.0,0.0,0.0,0.0,0.0,0.0,0.0,3.5227,3.725,3.9203,4.0589,4.1315,4.1434,3.9963,3.842,3.6833,0.0,0.0,0.0,0.0,0.0,0.0,0.0,0.0,0.0,0.0,0.0,0.0,0.0,0.0,0.0,0.0,0.0,0.0,0.0,0.0,0.0,0.0,0.0,0.0,0.0,0.0,0.0,0.0,0.0,0.0,0.0,0.0,0.0,0.0,0.0,0.0,0.0,0.0,2.6243,2.664,0.0,0.0,0.0,0.0,0.0,0.0,0.0,0.0,2.8689,0.0,0.0,0.0,0.0,0.0,0.0,0.0,0.0,0.0,0.0,0.0,0.0,0.0,0.0,0.0,0.0,0.0,0.0,0.0,0.0,0.0,0.0,0.0,0.0,0.0,0.0,0.0,0.0,0.0,0.0,0.0,0.0,0.0,0.0,0.0,0.0,0.0,0.0,0.0,0.0,0.0,0.0,0.0,0.0,0.0,0.0,0.0,0.0,0.0,0.0,0.0,0.0,0.0,0.0,0.0,0.0,3.5642,3.611,3.8059,4.1589,4.1956,4.2433,4.3029,4.1618,4.007,3.8486,0.0,0.0,0.0,0.0,0.0,0.0,0.0,0.0,0.0,0.0,0.0,0.0,0.0,0.0,0.0,0.0,0.0,0.0,0.0,0.0,0.0,0.0,0.0,0.0,0.0,0.0,0.0,0.0,0.0,0.0,0.0,0.0,0.0,0.0,0.0,0.0,0.0,0.0,0.0,2.8463,2.8312,0.0,0.0,0.0,0.0,0.0,0.0,0.0,0.0,3.1127,0.0,0.0,0.0,0.0,0.0,0.0,0.0,0.0,0.0,0.0,0.0,0.0,0.0,0.0,0.0,0.0,0.0,0.0,0.0,0.0,0.0,0.0,0.0,0.0,0.0,0.0,0.0,0.0,0.0,0.0,0.0,0.0,0.0,0.0,0.0,0.0,0.0,0.0,0.0,0.0,0.0,0.0,0.0,0.0,0.0,0.0,0.0,0.0,0.0,0.0,0.0,0.0,0.0,0.0,0.0,3.6824,3.8132,4.0152,4.2808,4.2919,4.3102,4.3478,4.2022,4.0651,0.0,0.0,0.0,0.0,0.0,0.0,0.0,0.0,0.0,0.0,0.0,0.0,0.0,0.0,0.0,0.0,0.0,0.0,0.0,0.0,0.0,0.0,0.0,0.0,0.0,0.0,0.0,0.0,0.0,0.0,0.0,0.0,0.0,0.0,0.0,0.0,0.0,0.0,0.0,0.0,3.0074,3.059,3.2154,0.0,0.0,0.0,0.0,0.0,0.0,3.2337,3.2044,0.0,0.0,0.0,0.0,0.0,0.0,0.0,0.0,0.0,0.0,0.0,0.0,0.0,0.0,0.0,0.0,0.0,0.0,0.0,0.0,0.0,0.0,0.0,0.0,0.0,0.0,0.0,0.0,0.0,0.0,0.0,0.0,0.0,0.0,0.0,0.0,0.0,0.0,0.0,0.0,0.0,0.0,0.0,0.0,0.0,0.0,0.0,0.0,0.0,0.0,0.0,0.0,0.0,0.0,0.0,3.7742,3.9974,4.1874,4.3433,4.3653,4.3726,4.369,4.2112,4.0859,0.0,0.0,0.0,0.0,0.0,0.0,0.0,0.0,0.0,0.0,0.0,0.0,0.0,0.0,0.0,0.0,0.0,0.0,0.0,0.0,0.0,0.0,0.0,0.0,0.0,0.0,0.0,0.0,0.0,0.0,0.0,0.0,0.0,0.0,0.0,0.0,0.0,0.0,0.0,0.0,0.0,3.2655,3.4349,3.3111,0.0,0.0,0.0,0.0,3.3009,3.3292,0.0,0.0,0.0,0.0,0.0,0.0,0.0,0.0,0.0,0.0,0.0,0.0,0.0,0.0,0.0,0.0,0.0,0.0,0.0,0.0,0.0,0.0,0.0,0.0,0.0,0.0,0.0,0.0,0.0,0.0,0.0,0.0,0.0,0.0,0.0,0.0,0.0,0.0,0.0,0.0,0.0,0.0,0.0,0.0,0.0,0.0,0.0,0.0,0.0,0.0,0.0,0.0,0.0,0.0,0.0,0.0,3.8542,4.0223,4.1882,4.3433,4.4195,4.4553,4.4516,4.2427,4.0921,0.0,0.0,0.0,0.0,0.0,0.0,0.0,0.0,0.0,0.0,0.0,0.0,0.0,0.0,0.0,0.0,0.0,0.0,0.0,0.0,0.0,0.0,0.0,0.0,0.0,0.0,0.0,0.0,0.0,0.0,0.0,0.0,0.0,0.0,0.0,0.0,0.0,0.0,0.0,0.0,0.0,3.3122,3.5015,3.3687,3.2769,0.0,0.0,3.607,3.7022,3.8034,0.0,0.0,0.0,0.0,0.0,0.0,0.0,0.0,0.0,0.0,0.0,0.0,0.0,0.0,0.0,0.0,0.0,0.0,0.0,0.0,0.0,0.0,0.0,0.0,0.0,0.0,0.0,0.0,0.0,0.0,0.0,0.0,0.0,0.0,0.0,0.0,0.0,0.0,0.0,0.0,0.0,0.0,0.0,0.0,0.0,0.0,0.0,0.0,0.0,0.0,0.0,0.0,0.0,0.0,0.0,3.8212,3.9423,4.1874,4.3709,4.4819,4.5223,4.5369,4.5369,4.273,4.1121,0.0,0.0,0.0,0.0,0.0,0.0,0.0,0.0,0.0,0.0,0.0,0.0,0.0,0.0,0.0,0.0,0.0,0.0,0.0,0.0,0.0,0.0,0.0,0.0,0.0,0.0,0.0,0.0,0.0,0.0,0.0,0.0,0.0,0.0,0.0,0.0,0.0,0.0,0.0,0.0,0.0,0.0,3.7116,3.68,0.0,0.0,0.0,3.8047,3.7613,0.0,0.0,0.0,0.0,0.0,0.0,0.0,0.0,0.0,0.0,0.0,0.0,0.0,0.0,0.0,0.0,0.0,0.0,0.0,0.0,0.0,0.0,0.0,0.0,0.0,0.0,0.0,0.0,0.0,0.0,0.0,0.0,0.0,0.0,0.0,0.0,0.0,0.0,0.0,0.0,0.0,0.0,0.0,0.0,0.0,0.0,0.0,0.0,0.0,0.0,0.0,0.0,0.0,0.0,0.0,0.0,0.0,4.023,4.3379,4.5296,4.5883,4.6104,4.6214,4.6177,4.3781,0.0,0.0,0.0,0.0,0.0,0.0,0.0,0.0,0.0,0.0,0.0,0.0,0.0,0.0,0.0,0.0,0.0,0.0,0.0,0.0,0.0,0.0,0.0,0.0,0.0,0.0,0.0,3.2211,0.0,0.0,0.0,0.0,0.0,0.0,0.0,0.0,0.0,0.0,0.0,0.0,0.0,0.0,3.8628,3.8989,3.9362,3.9932,0.0,0.0,3.9635,3.8986,4.1487,4.2268,0.0,0.0,0.0,0.0,0.0,0.0,0.0,0.0,0.0,0.0,0.0,0.0,0.0,0.0,0.0,0.0,0.0,0.0,0.0,0.0,0.0,0.0,0.0,0.0,0.0,0.0,0.0,0.0,0.0,0.0,0.0,0.0,0.0,0.0,0.0,0.0,0.0,0.0,0.0,0.0,0.0,0.0,0.0,0.0,0.0,0.0,0.0,0.0,0.0,0.0,0.0,0.0,0.0,0.0,3.9946,4.1087,4.4186,4.5847,4.592,4.6645,4.7039,4.7012,4.6131,4.4637,0.0,0.0,0.0,0.0,0.0,0.0,0.0,0.0,0.0,0.0,0.0,0.0,0.0,0.0,0.0,0.0,0.0,0.0,0.0,0.0,0.0,0.0,0.0,0.0,0.0,0.0,0.0,0.0,0.0,0.0,0.0,0.0,0.0,0.0,0.0,0.0,0.0,0.0,0.0,0.0,0.0,3.866,4.0068,3.9971,4.0628,0.0,4.1631,4.0998,4.2798,4.4509,4.4536,4.1244,0.0,0.0,0.0,0.0,0.0,0.0,0.0,0.0,0.0,0.0,0.0,0.0,0.0,0.0,0.0,0.0,0.0,0.0,0.0,0.0,0.0,0.0,0.0,0.0,0.0,0.0,0.0,0.0,0.0,0.0,0.0,0.0,0.0,0.0,0.0,0.0,0.0,0.0,0.0,0.0,0.0,0.0,0.0,0.0,0.0,0.0,0.0,0.0,0.0,0.0,0.0,0.0,0.0,4.0939,4.1874,4.4993,4.6865,4.7352,4.7672,4.7856,4.7819,4.6645,4.4886,0.0,0.0,0.0,0.0,0.0,0.0,0.0,0.0,0.0,0.0,0.0,0.0,0.0,0.0,0.0,0.0,0.0,0.0,0.0,0.0,0.0,0.0,0.0,0.0,0.0,0.0,0.0,0.0,3.6667,3.6748,3.539,0.0,0.0,0.0,0.0,0.0,0.0,0.0,0.0,0.0,0.0,4.0948,4.2465,4.2929,0.0,0.0,4.4043,4.3376,4.3482,4.4415,4.3892,4.0198,3.8915,0.0,0.0,0.0,0.0,0.0,0.0,0.0,0.0,0.0,0.0,0.0,0.0,0.0,0.0,0.0,0.0,0.0,0.0,0.0,0.0,0.0,0.0,0.0,0.0,0.0,0.0,0.0,0.0,0.0,0.0,0.0,0.0,0.0,0.0,0.0,0.0,0.0,0.0,0.0,0.0,0.0,0.0,0.0,0.0,0.0,0.0,0.0,0.0,0.0,0.0,0.0,0.0,4.1787,4.2678,4.5847,4.7709,4.8296,4.8296,4.8296,4.826,4.7251,4.5697,0.0,0.0,0.0,0.0,0.0,0.0,0.0,0.0,0.0,0.0,0.0,0.0,0.0,0.0,0.0,0.0,0.0,0.0,0.0,0.0,0.0,0.0,0.0,0.0,0.0,0.0,0.0,0.0,3.748,3.737,3.6112,0.0,0.0,0.0,0.0,0.0,0.0,0.0,0.0,0.0,0.0,4.2859,4.3805,4.4378,4.4718,4.482,4.4145,4.3424,4.2867,4.3461,4.3012,4.0223,0.0,0.0,0.0,0.0,0.0,0.0,0.0,0.0,0.0,0.0,0.0,0.0,0.0,0.0,0.0,0.0,0.0,0.0,0.0,0.0,0.0,0.0,0.0,0.0,0.0,0.0,0.0,2.8917,0.0,0.0,2.8875,0.0,0.0,0.0,0.0,0.0,0.0,0.0,0.0,0.0,0.0,0.0,0.0,0.0,0.0,0.0,0.0,0.0,0.0,0.0,0.0,0.0,0.0,4.2436,4.3572,4.6654,4.826,4.8296,4.8296,4.8296,4.8296,4.8269,4.749,4.5927,0.0,0.0,0.0,0.0,0.0,0.0,0.0,0.0,0.0,0.0,0.0,0.0,0.0,0.0,0.0,0.0,0.0,0.0,0.0,0.0,0.0,0.0,0.0,0.0,0.0,0.0,3.4392,3.5896,3.7443,0.0,0.0,0.0,0.0,0.0,0.0,0.0,0.0,0.0,3.916,4.2096,4.3943,4.3564,4.3525,4.337,4.2616,4.1177,4.0369,4.1132,4.1837,4.2314,0.0,0.0,0.0,0.0,0.0,0.0,0.0,0.0,0.0,0.0,0.0,0.0,0.0,0.0,0.0,0.0,0.0,0.0,0.0,0.0,0.0,0.0,0.0,0.0,0.0,0.0,0.0,3.0508,3.0404,0.0,0.0,0.0,0.0,0.0,0.0,0.0,0.0,0.0,0.0,0.0,3.808,3.8598,0.0,0.0,0.0,0.0,0.0,0.0,0.0,0.0,0.0,0.0,0.0,0.0,4.3178,4.371,4.6691,4.8296,4.8296,4.8296,4.8296,4.8296,4.8296,4.76,4.6028,0.0,0.0,0.0,0.0,0.0,0.0,0.0,0.0,0.0,0.0,0.0,0.0,0.0,0.0,0.0,0.0,0.0,0.0,0.0,0.0,0.0,0.0,0.0,0.0,0.0,3.6667,0.0,0.0,0.0,0.0,0.0,0.0,0.0,0.0,0.0,0.0,3.763,3.9423,4.1103,4.1804,4.246,4.3379,4.3506,4.3763,0.0,0.0,0.0,0.0,0.0,0.0,0.0,0.0,0.0,0.0,0.0,0.0,0.0,0.0,4.2066,3.8872,3.8733,3.9247,3.979,0.0,0.0,0.0,0.0,0.0,0.0,0.0,0.0,0.0,0.0,0.0,0.0,0.0,0.0,3.3064,3.2517,3.3062,0.0,0.0,0.0,0.0,0.0,0.0,0.0,0.0,3.9165,4.0496,4.1307,4.1795,4.1777,0.0,4.1334,3.9899,0.0,0.0,0.0,0.0,0.0,0.0,0.0,0.0,4.3583,4.3753,4.67,4.8296,4.8296,4.8296,4.8296,4.8296,4.8296,4.7848,4.6829,4.4812,4.325,0.0,0.0,0.0,0.0,0.0,0.0,0.0,0.0,0.0,0.0,0.0,0.0,0.0,0.0,0.0,0.0,0.0,0.0,0.0,0.0,0.0,0.0,0.0,3.8061,0.0,0.0,0.0,0.0,0.0,0.0,0.0,0.0,0.0,3.7671,3.9243,4.0968,4.2518,4.2718,4.2755,4.269,0.0,0.0,0.0,0.0,0.0,0.0,0.0,4.0569,4.0092,4.0495,4.1083,4.1846,4.3718,4.5039,4.4737,0.0,0.0,4.1842,4.1405,4.1735,4.2241,4.2468,4.2397,4.1897,4.2524,4.2988,0.0,0.0,0.0,0.0,0.0,0.0,0.0,0.0,3.6426,3.5963,0.0,3.6872,0.0,0.0,0.0,0.0,3.6628,3.8476,0.0,0.0,4.4126,4.5085,4.3754,4.4434,4.4406,4.369,4.3681,4.3269,4.2472,4.1951,0.0,0.0,0.0,0.0,0.0,0.0,4.3651,4.3885,4.6765,4.8296,4.8296,4.8296,4.8296,4.8296,4.8296,4.8296,4.8233,4.6829,4.6038,4.5865,4.2405,0.0,0.0,0.0,0.0,0.0,0.0,0.0,0.0,0.0,0.0,0.0,0.0,0.0,0.0,0.0,0.0,0.0,0.0,0.0,0.0,3.859,0.0,0.0,0.0,0.0,0.0,0.0,0.0,0.0,0.0,4.0103,3.9185,4.0903,4.2605,4.3331,0.0,0.0,0.0,0.0,4.3357,3.969,3.969,3.9955,3.933,4.1058,4.2961,4.4468,0.0,0.0,4.6186,4.6195,4.6149,4.5267,4.6946,4.7622,4.6552,4.5541,4.4954,4.501,4.5283,4.5433,4.5501,4.6188,4.695,3.8411,0.0,0.0,0.0,0.0,3.6558,3.807,4.0113,4.0645,4.0546,3.9923,4.0429,0.0,0.0,0.0,0.0,0.0,0.0,4.1612,4.3442,4.4573,4.57,4.6911,4.7159,4.7122,4.6911,4.6911,4.6801,4.6571,4.644,4.4281,4.0312,0.0,0.0,0.0,0.0,4.4178,4.5356,4.7288,4.8296,4.8296,4.8296,4.8296,4.8296,4.8296,4.8296,4.8296,4.7875,4.7398,4.682,4.5263,0.0,0.0,0.0,0.0,0.0,0.0,0.0,0.0,0.0,0.0,0.0,0.0,0.0,0.0,0.0,0.0,0.0,0.0,0.0,3.9015,4.0372,4.0039,0.0,0.0,0.0,0.0,0.0,0.0,0.0,0.0,0.0,4.3734,4.3169,4.2805,0.0,0.0,4.2477,4.0778,4.2828,4.4557,4.455,4.4789,0.0,4.6218,4.5956,4.5814,4.6255,4.8162,4.9708,5.0036,5.1568,5.2689,5.239,5.3383,5.4063,5.3601,5.1033,4.9168,4.9301,4.9058,4.8727,4.8736,4.9015,4.9329,4.3266,4.0949,3.938,3.9022,3.9532,4.021,4.1569,4.3351,4.3825,4.3461,4.2575,4.3204,4.1866,3.9148,3.9557,0.0,0.0,0.0,4.3793,4.6067,4.6113,4.6902,4.826,4.8296,4.8296,4.8296,4.8296,4.8296,4.8296,4.7795,4.5733,4.2213,0.0,4.1644,4.1586,4.3532,4.5007,4.6028,4.7536,4.8296,4.8296,4.8296,4.8296,4.8296,4.8296,4.8296,4.8296,4.8296,4.8105,4.7647,4.6268,4.4786,0.0,0.0,0.0,0.0,0.0,0.0,0.0,0.0,0.0,0.0,0.0,3.8491,3.5538,0.0,0.0,0.0,4.0972,4.1089,4.0538,4.1385,0.0,0.0,0.0,0.0,0.0,0.0,0.0,4.0704,4.4021,4.6508,4.6776,4.6069,4.544,4.5164,4.4998,4.4458,4.3142,0.0,4.7557,4.7919,4.852,4.9295,5.0214,5.0139,5.0146,5.0801,5.2057,5.316,5.37,5.5081,5.5946,5.6076,5.6555,5.6995,5.6995,5.5002,5.3452,5.3495,5.3205,5.2969,5.294,5.3085,5.3253,4.7086,4.6764,4.311,4.2191,4.3141,4.3576,4.4643,4.6056,4.6131,4.5313,4.4063,4.5452,4.4452,4.1682,4.1724,0.0,4.4993,4.5029,4.6204,4.8296,4.8296,4.8296,4.8296,4.8335,4.8344,4.8344,4.8382,4.8401,4.8346,4.7288,4.6294,4.5466,4.5912,4.5341,4.3866,4.5102,4.5935,4.6138,4.7518,4.8306,4.8489,4.848,4.8517,4.8517,4.8489,4.8517,4.848,4.8517,4.8517,4.8526,4.6489,4.5506,4.5938,0.0,0.0,0.0,0.0,0.0,0.0,0.0,0.0,0.0,0.0,0.0,0.0,0.0,0.0,4.2021,4.3385,0.0,4.2887,4.2407,0.0,0.0,0.0,4.2944,4.4536,4.558,4.6188,4.632,0.0,0.0,4.8947,4.939,4.9728,5.0023,4.9792,4.9076,4.7657,5.0153,5.1767,5.0604,5.1632,5.2605,5.3051,5.4003,5.5217,5.6451,5.7044,5.687,5.6853,5.6966,5.7015,5.7032,5.7286,5.7597,5.7559,5.7775,5.788,5.7117,5.7049,5.7164,5.6959,5.7141,5.7312,4.8717,4.8626,4.767,4.6791,4.5968,4.6694,4.7211,4.7607,4.7953,4.7906,4.7556,4.7666,4.7305,4.659,4.685,4.7119,4.7471,4.7728,4.7996,4.8306,4.8296,4.8296,4.8306,4.8569,4.8676,4.8693,4.8932,4.9064,4.9035,4.8794,4.7889,4.6548,4.7227,4.6195,4.3535,4.4222,4.5451,4.7142,4.7362,4.8373,5.0131,5.0215,5.0215,5.0215,5.0215,5.0215,5.0215,5.0215,5.0472,5.1022,5.0004,4.8895,4.7831,4.4418,0.0,0.0,0.0,0.0,0.0,0.0,0.0,0.0,0.0,3.8726,3.5238,0.0,4.012,0.0,4.6287,4.8868,4.7476,4.7449,0.0,0.0,4.455,4.4474,4.5689,4.7751,4.8705,4.7673,4.9997,5.202,5.2845,5.3018,5.3828,5.5664,5.3188,5.1161,5.1292,5.3734,5.5766,5.6065,5.7282,5.8525,5.8383,5.8817,5.9189,5.9545,5.9123,5.8665,5.8575,5.858,5.864,5.8613,5.919,5.9591,5.966,5.9762,5.9724,5.9466,5.8372,5.7331,5.7331,5.7438,5.755,5.064,5.0331,5.0331,4.958,4.8437,4.858,4.8649,4.8664,4.8918,4.9015,4.9007,4.8805,4.8755,4.8764,4.8932,4.8907,4.8735,4.8932,4.8915,4.8755,4.8755,4.8755,4.8764,4.8924,4.9015,4.9023,4.9216,4.9505,4.9859,5.0026,4.9821,4.9248,4.9882,4.9108,4.7056,4.5933,4.6001,4.7199,4.7856,4.9185,5.1157,5.1259,5.0676,4.951,4.9555,4.9027,4.7803,4.783,4.8015,4.8393,4.8292,4.7675,4.6489,4.4116,4.2046,0.0,0.0,0.0,0.0,0.0,0.0,0.0,0.0,0.0,0.0,0.0,4.2031,4.262,4.7722,5.0052,4.7729,4.8481,4.8882,4.831,4.8302,4.8869,5.0209,5.1614,5.2368,5.1957,5.3563,5.5065,5.5886,5.6013,5.6638,5.8418,5.6609,5.5219,5.5645,5.7302,5.8801,5.9677,6.0597,6.1173,6.1166,6.148,6.1697,6.1619,6.1294,6.0987,6.0907,6.0889,6.0909,6.0901,6.1277,6.159,6.159,6.159,6.1628,6.1454,6.0707,5.9814,5.9307,5.952,5.9885,5.2384,5.1767,5.1767,5.1314,5.0553,5.0003,4.9627,4.9431,4.9394,4.9393,4.9468,4.946,4.946,4.9468,4.9393,4.9356,4.931,4.9356,4.9348,4.931,4.9422,4.946,4.9468,4.9619,4.9679,4.9679,4.9717,5.0124,5.0855,5.1187,5.1571,5.2041,5.2463,5.2193,5.1214,4.8586,4.7167,4.7084,4.8912,5.0485,5.1745,5.149,5.0223,4.8002,4.7905,4.681,4.4497,4.4416,4.4416,4.4392,4.4901,4.5099,4.4794,4.3289,4.2282,0.0,3.9841,0.0,0.0,0.0,0.0,0.0,0.0,0.0,0.0,4.4662,4.5033,4.5351,4.8819,4.9912,4.7216,4.8599,5.0253,5.1663,5.2821,5.4072,5.5452,5.5765,5.6154,5.6895,5.7057,5.7382,5.8109,5.8324,5.8638,5.9337,5.9553,5.9565,5.9977,6.0469,6.1173,6.2113,6.2343,6.2669,6.2816,6.3277,6.3699,6.3762,6.3692,6.3609,6.3582,6.3481,6.3442,6.3397,6.3391,6.3429,6.3436,6.3429,6.3436,6.3422,6.3409,6.3061,6.2032,6.2111,6.2882,5.2696,5.2575,5.2581,5.2467,5.2302,5.2171,5.1364,5.0082,4.983,4.9971,5.0347,5.0377,5.0377,5.0325,4.9887,4.9556,4.9333,4.9577,4.9556,4.931,5.0031,5.0339,5.0393,5.1284,5.1741,5.1755,5.2022,5.2209,5.2399,5.245,5.1852,5.0746,5.1443,5.1079,4.9671,0.0,0.0,0.0,5.0898,5.2199,5.1732,4.9814,4.8566,4.807,4.7431,0.0,4.6367,4.6338,4.627,4.6255,4.6344,0.0,0.0,0.0,0.0,0.0,0.0,0.0,0.0,0.0,0.0,0.0,4.7716,4.6687,4.5711,4.7387,4.8848,4.9543,5.1788,5.3245,5.3287,5.3805,5.4341,5.4691,5.5499,5.6243,5.6635,5.7249,5.7805,5.7966,5.8027,5.8335,5.9131,5.9258,5.9604,6.0438,6.1142,6.2109,6.336,6.3085,6.3129,6.3937,6.4622,6.5366,6.6019,6.6128,6.6378,6.7036,6.6717,6.6281,6.6078,6.5645,6.5268,6.522,6.52,6.5207,6.52,6.52,6.5214,6.52,6.5705,6.55,6.3325,6.2967,6.3043,5.3847,5.3471,5.3545,5.3289,0.0,5.29,5.2441,5.1632,5.1401,5.1503,5.1785,5.1785,5.1785,5.1753,5.151,5.1307,5.1145,5.132,5.1307,5.1177,5.1595,5.1785,5.1791,5.238,5.2666,5.2635,5.2803,5.3136,5.3519,5.3519,5.3289,5.2862,5.3322,5.3322,5.2939,5.4089,5.3302,5.0516,5.2572,5.3817,5.4137,5.3386,5.2288,5.0946,5.021,0.0,0.0,0.0,0.0,0.0,0.0,0.0,0.0,4.8644,0.0,4.9864,4.9169,4.9474,5.1115,5.1268,5.2003,5.3622,5.3796,5.2513,4.9504,5.2023,5.3949,5.4327,5.5326,5.5906,5.5912,5.6439,5.6836,5.6875,5.7633,5.8283,5.8773,5.924,5.9669,6.0044,5.9787,5.9858,6.0671,6.0787,6.1127,6.1935,6.2781,6.3826,6.4897,6.4859,6.4897,6.5705,6.659,6.709,6.7128,6.7513,6.7814,6.8166,6.7987,6.7749,6.7651,6.7325,6.7069,6.7036,6.7029,6.7022,6.7022,6.7029,6.7029,6.7068,6.7337,6.7337,6.5909,6.5324,6.5001,5.5018,5.4456,5.4476,5.411,5.3453,5.3453,5.3425,5.3425,5.3221,0.0,0.0,5.3222,5.3222,5.3228,5.3069,5.3031,5.3031,5.3031,5.3031,5.3031,5.3146,5.3222,5.3228,5.3376,5.3453,5.3453,5.3453,5.3798,5.4494,5.4538,5.4839,5.5446,5.5638,5.6175,5.7051,5.8336,5.7296,5.3962,5.4331,5.5198,5.6339,5.669,5.5721,5.3453,5.2805,5.1397,4.9206,4.8442,4.8055,4.8045,4.8498,4.8788,4.87,4.9955,5.071,5.0715,5.1294,5.2638,5.4867,5.502,5.5925,5.8087,5.9038,5.7857,5.3958,5.6645,5.843,5.8161,5.8365,5.8218,5.7367,5.81,5.8661,5.8667,5.9444,6.0242,6.0902,6.1166,6.1512,6.2095,6.1627,6.155,6.2403,6.2518,6.2826,6.3666,6.4512,6.5436,6.6282,6.6288,6.632,6.7128,6.7782,6.8122,6.7859,6.8167,6.866,6.893,6.8891,6.8853,6.8853,6.8853,6.8853,6.8808,6.8853,6.8853,6.8853,6.8846,6.8853,6.8814,6.8853,6.8853,6.8769,6.8073,6.7351,5.5435,5.532,5.5326,5.5255,5.514,5.514,5.5169,5.5176,5.4434,5.411,5.411,5.4116,5.411,5.4072,5.3338,5.3031,5.3031,5.3031,5.3031,5.3069,5.3765,5.411,5.4154,5.4833,5.514,5.5134,5.514,5.5211,5.5331,5.5337,5.5402,5.5567,5.6258,5.7069,5.7874,5.8137,5.7971,5.7352,5.6715,5.6097,5.5549,5.3601,5.2399,5.1993,5.1359,5.0676,5.0303,5.016,4.999,4.9979,5.0024,5.0993,5.3041,5.3378,5.4486,5.6518,5.6869,5.743,5.8451,5.8566,5.8725,5.9121,5.9989,5.9573,5.762,5.9177,5.9757,5.8446,5.9569,6.0071,5.9296,5.9879,6.034,6.0462,6.1204,6.1787,6.2018,6.2551,6.3045,6.3237,6.3045,6.3281,6.4089,6.4255,6.4576,6.5442,6.632,6.7327,6.8398,6.7859,6.7398,6.8013,6.8314,6.8667,6.9129,6.9398,6.9744,7.0475,7.0437,7.036,7.036,7.0321,7.0321,7.0475,7.036,7.0398,7.0437,7.0552,7.0398,7.036,7.0321,7.0398,7.036,6.9717,6.9012,5.7187,5.7191,5.7219,5.7228,5.7189,5.6759,5.6261,5.5849,5.5445,5.5196,5.5061,5.5056,5.5056,5.5012,5.4628,5.4474,5.4474,5.4474,5.4436,5.4512,5.4858,5.5325,5.5709,5.567,5.6159,5.7045,5.6631,5.6459,5.6518,5.6527,5.6527,5.6596,5.7347,5.8351,5.954,5.9536,5.9714,6.0137,5.8796,5.7927,5.7544,5.6873,5.6502,5.6508,5.5703,5.5281,5.5275,5.4848,5.4568,5.4568,5.4544,5.5068,5.6173,5.6671,5.7443,5.8623,5.916,5.9594,5.9965,6.0047,6.0264,6.0725,6.1209,6.131,6.0972,6.1227,6.1322,6.1003,6.1346,6.1133,6.0319,6.0556,6.1012,6.1479,6.2249,6.3134,6.4019,6.4436,6.4897,6.5217,6.5036,6.5103,6.5884,6.6032,6.6397,6.7212,6.8282,6.9475,7.0206,6.9667,6.9251,6.9667,6.9744,6.9898,7.0283,7.036,7.0514,7.086,7.0898,7.0898,7.0898,7.0898,7.0898,7.0898,7.0898,7.0898,7.0898,7.0898,7.0898,7.0898,7.0898,7.0898,7.0821,7.0591,6.9937,5.8637,5.8641,5.8668,5.8678,5.8639,5.7978,5.7311,5.6683,5.668,5.6552,5.6348,5.5972,5.5774,5.5774,5.5774,5.5774,5.5818,5.6011,5.6093,5.6093,5.6286,5.6748,5.7255,5.6671,5.7148,5.8363,5.7834,5.7591,5.7693,5.7667,5.7897,5.8276,5.8866,5.9943,6.1523,6.1443,6.1714,6.2207,6.1014,6.0059,5.9632,6.0272,6.0617,6.054,5.9933,5.9588,5.9549,5.898,5.868,5.868,5.868,5.868,5.8718,5.9249,5.9594,5.9651,6.0227,6.0732,6.0942,6.1184,6.1555,6.224,6.2334,6.2743,6.3429,6.3012,6.2704,6.2935,6.2551,6.2095,6.1589,6.1826,6.221,6.2903,6.3512,6.4397,6.5628,6.6051,6.6397,6.7004,6.6869,6.6956,6.7625,6.7949,6.8313,6.9069,7.0137,7.0821,7.0898,7.0898,7.0898,7.0898,7.0898,7.0821,7.0898,7.086,7.086,7.0898,7.0898,7.0898,7.0898,7.0898,7.0898,7.0898,7.0898,7.0898,7.0898,7.0898,7.0898,7.0898,7.0898,7.0898,7.0898,7.086,7.0552,5.8717,5.8674,5.8768,5.8678,5.8726,5.861,5.8535,5.8415,5.8445,5.8474,5.8213,5.6763,5.6132,5.6057,5.6128,5.616,5.6199,5.6883,5.7229,5.7342,5.8055,5.8443,5.8545,5.8436,5.8528,5.8735,5.8619,5.8555,5.8584,5.8616,5.9345,6.0773,6.0992,6.184,6.3312,6.3452,6.3519,6.3639,6.3484,6.2428,6.0623,6.0578,6.0617,6.0617,6.0546,6.0508,6.0514,6.0431,6.0355,6.0355,6.0316,6.0355,6.0355,6.047,6.0501,6.0602,6.0685,6.1055,6.1879,6.2654,6.3032,6.3154,6.3192,6.3545,6.4391,6.4397,6.3705,6.2787,6.2897,6.3121,6.316,6.4282,6.4974,6.5057,6.5378,6.5743,6.5999,6.6558,6.7075,6.732,6.8039,6.881,6.9562,6.9796,7.0097,7.0595,7.0771,7.094,7.0946,7.0946,7.0919,7.0905,7.0898,7.0898,7.0898,7.0898,7.0898,7.0898,7.0898,7.0898,7.0898,7.0898,7.0898,7.0898,7.0898,7.0898,7.0898,7.0898,7.0898,7.0898,7.0898,7.0898,7.0898,7.0898,7.0706,6.0469,6.0469,6.0471,6.0157,5.973,5.9691,5.9416,5.8948,5.8946,5.8946,5.8868,5.8167,5.7795,5.7625,5.7661,5.7622,5.7664,5.8017,5.8173,5.8173,5.8522,5.8989,5.9374,5.8911,5.926,6.0222,5.9838,5.9638,5.9683,5.973,6.0079,6.0811,6.17,6.2791,6.3872,6.4344,6.4577,6.4577,6.4577,6.3875,6.2674,6.2486,6.2467,6.2381,6.2359,6.2055,6.1573,6.1478,6.1247,6.0819,6.1209,6.1472,6.1478,6.1933,6.2208,6.2239,6.2245,6.2405,6.2781,6.3128,6.3506,6.4006,6.4089,6.4436,6.5243,6.4897,6.4282,6.3782,6.3858,6.4083,6.4089,6.4282,6.4545,6.507,6.562,6.6218,6.6758,6.7617,6.8394,6.8937,6.9422,6.9997,7.0755,7.098,7.1064,7.1338,7.128,7.1181,7.1101,7.1065,7.103,7.0939,7.0898,7.0898,7.0898,7.0898,7.0898,7.0898,7.0898,7.0898,7.0898,7.0898,7.0898,7.0898,7.0898,7.0898,7.0898,7.0898,7.0898,7.0898,7.0898,7.0898,7.0898,7.0898,7.0898,6.1719,6.1719,6.1719,6.1328,6.0783,6.0744,6.0393,5.9845,5.9806,5.9806,5.9806,5.9806,5.9723,5.9457,5.9051,5.8818,5.8818,5.9054,5.9171,5.9168,5.9402,5.9872,6.0372,5.9869,6.022,6.1248,6.0908,6.0664,6.0741,6.0783,6.0861,6.1285,6.2496,6.3596,6.4443,6.5192,6.5585,6.5549,6.5585,6.5238,6.4699,6.4624,6.4305,6.3723,6.3658,6.3318,6.2583,6.2573,6.2302,6.1685,6.2225,6.2573,6.2573,6.3141,6.345,6.345,6.3676,6.3792,6.3792,6.3985,6.4409,6.4988,6.5065,6.5335,6.576,6.5412,6.5104,6.5038,6.5065,6.5027,6.4582,6.4332,6.4525,6.5319,6.6133,6.6873,6.7735,6.8674,6.9481,7.0159,7.047,7.0951,7.1472,7.1591,7.1516,7.1551,7.1505,7.1448,7.1295,7.1213,7.1141,7.1005,7.0965,7.0898,7.0898,7.0898,7.0898,7.0898,7.0898,7.0898,7.0898,7.0898,7.0898,7.0898,7.0898,7.0898,7.0898,7.0898,7.0898,7.0898,7.0898,7.0898,7.0898,7.0898,7.0898,6.1719,6.1719,6.1719,6.1642,6.1641,6.1603,6.1602,6.1409,6.1486,6.1525,6.1448,6.1485,6.1559,6.1355,5.9907,5.9094,5.9211,5.9948,6.0298,6.0378,6.1082,6.1554,6.1596,6.1596,6.1594,6.1668,6.1551,6.1557,6.1563,6.1602,6.207,6.2851,6.3628,6.4565,6.538,6.6116,6.6669,6.658,6.6619,6.6628,6.6589,6.6589,6.5663,6.4153,6.3839,6.3867,6.3697,6.3704,6.3662,6.363,6.365,6.3735,6.3739,6.3774,6.388,6.3926,6.4579,6.5006,6.5072,6.5603,6.603,6.6155,6.6092,6.6198,6.62,6.6122,6.6049,6.6159,6.6104,6.5786,6.5238,6.5656,6.6329,6.7121,6.7464,6.7985,6.8727,6.9651,7.0131,7.0542,7.1126,7.159,7.1883,7.1796,7.1744,7.1674,7.1591,7.1493,7.1465,7.1325,7.1218,7.1153,7.1049,7.0905,7.0898,7.0898,7.0898,7.0898,7.0898,7.0898,7.0898,7.0898,7.0898,7.0898,7.0898,7.0898,7.0898,7.0898,7.0898,7.0898,7.0898,7.0898,7.0898,7.0898,7.0898,6.1701,6.17,6.1695,6.1695,6.17,6.17,6.1701,6.17,6.1701,6.1701,6.17,6.1695,6.1692,6.1652,6.1059,6.0782,6.0782,6.1094,6.1211,6.125,6.1563,6.1719,6.1719,6.1719,6.1719,6.1719,6.1719,6.1719,6.1719,6.1719,6.1836,6.2226,6.3047,6.3907,6.4766,6.5624,6.6289,6.6757,6.6796,6.6796,6.6796,6.6796,6.6423,6.579,6.5642,6.5294,6.462,6.4616,6.4386,6.385,6.4348,6.4616,6.4694,6.5117,6.5386,6.5424,6.5693,6.5848,6.5887,6.6116,6.6272,6.6272,6.6272,6.6283,6.6272,6.6272,6.6272,6.6329,6.6449,6.6458,6.6821,6.7016,6.7254,6.7658,6.867,6.946,6.9946,7.0734,7.1376,7.1439,7.1757,7.1925,7.1935,7.1927,7.1913,7.1909,7.1844,7.1755,7.1647,7.158,7.1434,7.125,7.1141,7.1061,7.0905,7.0898,7.0898,7.0898,7.0898,7.0898,7.0898,7.0898,7.0898,7.0898,7.0898,7.0898,7.0898,7.0898,7.0898,7.0898,7.0898,7.0898,7.0898,7.0898,7.0898,6.1709,6.1708,6.1704,6.1705,6.1709,6.1709,6.1709,6.1709,6.1709,6.1709,6.1708,6.1704,6.1702,6.1701,6.1694,6.1691,6.169,6.1684,6.1719,6.1719,6.1719,6.1719,6.172,6.1722,6.1726,6.1726,6.169,6.1691,6.1691,6.1691,6.1691,6.177,6.259,6.3449,6.4309,6.5167,6.6026,6.6651,6.6803,6.6801,6.6801,6.6798,6.6796,6.6791,6.6713,6.6381,6.5684,6.5642,6.5411,6.495,6.5333,6.5642,6.572,6.6145,6.6454,6.6454,6.6457,6.6454,6.6454,6.6454,6.6457,6.6454,6.6457,6.6454,6.6454,6.6454,6.657,6.6824,6.7024,6.7461,6.8195,6.8535,6.8604,6.873,6.9728,7.0626,7.0903,7.1571,7.1903,7.1945,7.1944,7.1986,7.1987,7.1987,7.1986,7.1987,7.1987,7.1927,7.1846,7.1716,7.1617,7.14,7.1334,7.1236,7.1077,7.1049,7.0927,7.0939,7.0898,7.0898,7.0898,7.0898,7.0898,7.0898,7.0898,7.0898,7.0898,7.0898,7.0898,7.0898,7.0898,7.0898,7.0898,7.0898,7.0898,6.171,6.171,6.1709,6.171,6.1711,6.171,6.171,6.171,6.171,6.1711,6.1711,6.1709,6.1709,6.1709,6.1707,6.1708,6.1705,6.1692,6.1722,6.1722,6.1721,6.1721,6.1723,6.1694,6.1697,6.1698,6.1705,6.1708,6.1707,6.1707,6.1707,6.1864,6.2488,6.3269,6.4248,6.5027,6.5925,6.6588,6.6738,6.6812,6.6811,6.6805,6.68,6.6799,6.6794,6.6752,6.6712,6.6709,6.6625,6.663,6.6631,6.6794,6.6666,6.6742,6.679,6.6742,6.6788,6.6791,6.6788,6.6744,6.6738,6.6775,6.6826,6.6894,6.6928,6.6972,6.7323,6.7907,6.8108,6.8429,6.9287,6.9982,7.0406,7.0656,7.0686,7.1117,7.1669,7.1947,7.1987,7.1987,7.1987,7.1987,7.1987,7.1987,7.1948,7.187,7.1948,7.1986,7.1932,7.185,7.1716,7.1665,7.1562,7.1408,7.1285,7.1192,7.1041,7.0947,7.0925,7.0898,7.0898,7.0898,7.0898,7.0898,7.0898,7.0898,7.0898,7.0898,7.0898,7.0898,7.0898,7.0898,7.0898,7.0898,7.0898,6.1679,6.1718,6.1716,6.1716,6.1718,6.1718,6.1718,6.1719,6.1719,6.1719,6.1717,6.1716,6.1715,6.1714,6.1711,6.1709,6.1709,6.1704,6.1702,6.1702,6.1702,6.1701,6.1702,6.1705,6.1705,6.1706,6.1708,6.1709,6.1709,6.1709,6.1709,6.1787,6.1983,6.2529,6.3428,6.4287,6.5146,6.5965,6.6589,6.686,6.686,6.6858,6.6857,6.6857,6.6857,6.6857,6.6856,6.6806,6.6798,6.6796,6.6796,6.6796,6.6796,6.6796,6.6796,6.6796,6.6796,6.6796,6.6796,6.6835,6.6835,6.6913,6.7342,6.7654,6.7771,6.8239,6.8631,6.8981,6.902,6.9333,7.0152,7.0502,7.0737,7.0737,7.1206,7.1597,7.1831,7.1909,7.1987,7.1987,7.1987,7.1753,7.1363,7.148,7.1675,7.1324,7.1597,7.1948,7.1983,7.193,7.1811,7.1713,7.1641,7.1562,7.1413,7.1275,7.1164,7.1042,7.0959,7.0898,7.0898,7.0898,7.0898,7.0898,7.0898,7.0898,7.0898,7.0898,7.0898,7.0898,7.0898,7.0898,7.0898,7.0898,7.0898,6.1625,6.1677,6.1639,6.1679,6.1719,6.1719,6.1719,6.1719,6.1719,6.1719,6.1719,6.1718,6.1718,6.1717,6.1716,6.1715,6.1715,6.1715,6.1715,6.1714,6.171,6.1709,6.1709,6.1711,6.1713,6.1715,6.1715,6.1715,6.1715,6.1715,6.1715,6.1715,6.1715,6.2145,6.3004,6.3863,6.4723,6.5581,6.6478,6.6907,6.6907,6.6904,6.6903,6.6903,6.6903,6.6903,6.6902,6.6854,6.6807,6.6802,6.6799,6.6796,6.6796,6.6796,6.6796,6.6796,6.6796,6.6796,6.6835,6.7109,6.7303,6.742,6.8083,6.8552,6.8669,6.9176,6.945,6.984,6.9879,7.023,7.0972,7.1167,7.1206,7.1167,7.1636,7.1831,7.1597,7.1206,7.1013,7.0935,7.0974,7.0738,7.0543,7.0582,7.1011,7.0776,7.1167,7.1753,7.187,7.1987,7.1877,7.1811,7.18,7.1671,7.145,7.1347,7.1305,7.1141,7.0992,7.0932,7.0898,7.0898,7.0898,7.0898,7.0898,7.0898,7.0898,7.0898,7.0898,7.0898,7.0898,7.0898,7.0898,7.0898,7.0898,6.1589,6.162,6.1623,6.1635,6.1719,6.1719,6.1719,6.1719,6.1719,6.1719,6.1719,6.1719,6.1719,6.1719,6.1719,6.1719,6.1719,6.1875,6.1914,6.1953,6.1989,6.2024,6.1751,6.1716,6.1717,6.1718,6.1719,6.1719,6.1719,6.1719,6.1719,6.1719,6.1758,6.207,6.2812,6.375,6.457,6.539,6.6287,6.6755,6.6872,6.6908,6.6906,6.6906,6.6906,6.6906,6.6906,6.6904,6.686,6.6813,6.6806,6.6801,6.6799,6.6837,6.6955,6.7031,6.6952,6.7109,6.7187,6.7771,6.8161,6.8239,6.8942,6.9489,6.9528,6.9723,7.0113,7.0698,7.0777,7.101,7.1636,7.1714,7.1675,7.1753,7.1636,7.1441,7.0776,7.0074,6.9801,6.9645,6.945,6.9372,6.9411,6.9489,6.9879,7.0152,7.0463,7.0972,7.1558,7.1714,7.1909,7.1941,7.193,7.1794,7.1608,7.1527,7.1438,7.1219,7.1055,7.0979,7.0925,7.0905,7.0898,7.0898,7.0898,7.0898,7.0898,7.0898,7.0898,7.0898,7.0898,7.0898,7.0898,7.0898,7.0937,6.1643,6.1678,6.1678,6.1679,6.1719,6.1719,6.1719,6.1719,6.1719,6.1719,6.1719,6.1719,6.168,6.1719,6.1719,6.1719,6.1836,6.2344,6.2656,6.2773,6.3359,6.2773,6.1913,6.1719,6.1758,6.1797,6.1875,6.1719,6.1719,6.1758,6.1719,6.1719,6.1719,6.1797,6.2148,6.2969,6.3789,6.4648,6.5508,6.6289,6.6797,6.6914,6.6913,6.6913,6.6914,6.6914,6.6914,6.6911,6.6907,6.6901,6.686,6.6855,6.6926,6.7433,6.7782,6.7814,6.8319,6.867,6.8709,6.8904,6.9059,6.9137,6.984,7.0348,7.0385,7.0972,7.1363,7.1675,7.1636,7.1441,7.1167,7.1049,7.0816,7.027,7.0621,7.0854,7.0541,6.9957,6.9411,6.9411,6.9333,6.902,6.8708,6.8864,6.9176,6.9059,6.9489,7.0152,7.0933,7.1363,7.1519,7.187,7.1937,7.186,7.1772,7.1705,7.1552,7.128,7.1136,7.1059,7.0985,7.0919,7.0905,7.0898,7.0898,7.0898,7.0898,7.0898,7.0898,7.0898,7.0898,7.0898,7.0898,7.0898,7.0975,6.1545,6.1664,6.1621,6.1633,6.1719,6.1719,6.1719,6.1719,6.1719,6.1678,6.1675,6.1634,6.1628,6.1578,6.164,6.164,6.1697,6.2576,6.2969,6.3086,6.3827,6.3672,6.2969,6.2812,6.2773,6.2812,6.2773,6.2617,6.2344,6.2265,6.207,6.1758,6.1719,6.1719,6.1797,6.2578,6.3203,6.3906,6.4922,6.5859,6.6328,6.6758,6.6914,6.6914,6.6914,6.6914,6.6914,6.7226,6.7302,6.7101,6.7176,6.737,6.7444,6.8185,6.8652,6.8645,6.9154,6.9387,6.946,6.9694,6.9925,7.0115,7.0738,7.1167,7.1324,7.1753,7.1987,7.1948,7.1675,7.1245,7.0776,7.0385,6.9957,6.9606,6.9528,6.9644,6.9605,6.8747,6.8358,6.8319,6.828,6.8161,6.7615,6.8083,6.82,6.8357,6.902,6.9801,7.0582,7.0894,7.1324,7.1753,7.1987,7.1924,7.1909,7.1854,7.1721,7.1446,7.131,7.1229,7.1077,7.0979,7.0953,7.0947,7.0939,7.0898,7.0898,7.0898,7.0898,7.0898,7.0898,7.0937,7.0937,7.1091,7.1129,6.1439,6.1591,6.1532,6.1549,6.1676,6.168,6.168,6.168,6.1719,6.1675,6.1616,6.1606,6.1544,6.1419,6.1732,6.1685,6.1667,6.294,6.3376,6.3802,6.4358,6.457,6.4531,6.4101,6.3984,6.4023,6.4219,6.375,6.3164,6.3008,6.2578,6.207,6.1836,6.1719,6.1797,6.2461,6.2851,6.332,6.4375,6.5156,6.5547,6.6172,6.6562,6.6601,6.6875,6.7031,6.7265,6.7695,6.789,6.7219,6.7843,6.8195,6.835,6.9053,6.9481,6.9597,6.9752,6.9906,6.9862,7.0524,7.0831,7.0938,7.1521,7.1909,7.1753,7.1831,7.187,7.1402,7.105,7.0659,7.0113,6.9567,6.9059,6.8747,6.8357,6.8043,6.7809,6.7264,6.6796,6.6796,6.6835,6.6835,6.6796,6.6874,6.7109,6.7693,6.8435,6.9294,7.0113,7.0777,7.1285,7.187,7.1987,7.1987,7.1983,7.1982,7.1852,7.1668,7.1559,7.1443,7.1213,7.1124,7.1071,7.1035,7.1049,7.0966,7.0898,7.0898,7.0898,7.0898,7.0898,7.0975,7.1091,7.1321,7.1444,6.1445,6.153,6.147,6.1439,6.1478,6.1564,6.1618,6.162,6.1677,6.1632,6.161,6.1602,6.1524,6.1444,6.2008,6.2474,6.2484,6.3789,6.5115,6.5817,6.5938,6.6108,6.5787,6.4984,6.433,6.4279,6.4193,6.4016,6.3756,6.3321,6.2826,6.2596,6.207,6.1719,6.1758,6.1914,6.2344,6.293,6.3476,6.4023,6.4765,6.5508,6.6015,6.6094,6.6562,6.7226,6.7812,6.8086,6.8398,6.875,6.9023,6.9217,6.9293,6.9918,7.0385,7.0539,7.1044,7.1355,7.1431,7.1426,7.1654,7.1495,7.1527,7.1714,7.1088,7.1558,7.1206,7.0504,7.0307,6.9956,6.8903,6.7888,6.7615,6.7538,6.7343,6.7148,6.707,6.6913,6.6835,6.6796,6.6796,6.6796,6.6796,6.6796,6.6992,6.7224,6.7927,6.8747,6.9684,7.066,7.1324,7.1948,7.1987,7.1987,7.1987,7.1986,7.1922,7.1844,7.1747,7.165,7.1477,7.1358,7.1353,7.1255,7.1164,7.1059,7.0973,7.0898,7.0898,7.0898,7.1052,7.1398,7.1668,7.1752,7.2136,6.1369,6.1412,6.1387,6.1367,6.1417,6.1463,6.1481,6.1488,6.1516,6.1538,6.1478,6.1465,6.1401,6.1291,6.1765,6.2004,6.2277,6.3375,6.4453,6.513,6.5628,6.5945,6.6001,6.5644,6.5334,6.5264,6.5301,6.5071,6.4597,6.4173,6.3712,6.2931,6.2495,6.2109,6.1758,6.1719,6.1953,6.2383,6.2851,6.3398,6.4297,6.5156,6.5898,6.6172,6.664,6.7148,6.75,6.8398,6.8906,6.9492,7.0117,7.039,7.0195,7.0781,7.125,7.1443,7.1676,7.1714,7.1517,7.1357,7.1159,7.0841,7.0793,7.0515,7.0237,7.0548,7.0388,6.9645,6.9333,6.8902,6.7654,6.7224,6.6835,6.6796,6.6796,6.6796,6.6796,6.6796,6.6796,6.6796,6.6796,6.6796,6.6796,6.6796,6.7187,6.7537,6.8396,6.9255,7.0152,7.105,7.148,7.1948,7.1987,7.1987,7.1987,7.1984,7.1979,7.1922,7.1905,7.1846,7.1755,7.1704,7.1628,7.1481,7.126,7.1192,7.1071,7.0998,7.1168,7.1514,7.1783,7.2091,7.2399,7.2668,7.3168,6.1279,6.1281,6.1285,6.1305,6.1356,6.138,6.1388,6.1391,6.1408,6.138,6.133,6.1306,6.1267,6.1199,6.1481,6.1448,6.1875,6.2442,6.3647,6.4438,6.5061,6.5432,6.5559,6.6011,6.6262,6.654,6.6363,6.6001,6.5539,6.5273,6.4349,6.3255,6.2957,6.2422,6.1836,6.1719,6.1875,6.2226,6.2734,6.3437,6.4297,6.5156,6.5976,6.664,6.6836,6.707,6.75,6.8359,6.9219,6.9453,7.082,7.1055,7.0976,7.1445,7.1992,7.1953,7.1992,7.1601,7.1014,7.0739,7.0424,6.9482,6.9475,6.9354,6.9312,6.9423,6.9301,6.8829,6.8359,6.7732,6.6913,6.6835,6.6835,6.6796,6.6796,6.6796,6.6796,6.6796,6.6796,6.6796,6.6796,6.6796,6.6796,6.6835,6.7381,6.7966,6.8864,6.9723,7.0621,7.1285,7.1714,7.1948,7.1987,7.1987,7.1987,7.1987,7.1982,7.1979,7.1977,7.1974,7.193,7.1905,7.1757,7.154,7.1367,7.1332,7.1362,7.1441,7.1727,7.2182,7.2552,7.2822,7.3206,7.3623,7.4123,6.125,6.1229,6.1147,6.1147,6.116,6.1246,6.1301,6.1324,6.1365,6.1348,6.1313,6.1299,6.1201,6.1289,6.191,6.2534,6.2849,6.3204,6.3795,6.4487,6.5011,6.5289,6.5802,6.6096,6.6294,6.6299,6.6349,6.6256,6.5924,6.5402,6.471,6.3762,6.32,6.2549,6.19,6.1719,6.2148,6.2578,6.3008,6.3555,6.4414,6.5273,6.6055,6.6797,6.6914,6.7187,6.7734,6.8203,6.8711,6.9336,6.9648,6.9765,7.0039,7.1133,7.1719,7.1875,7.1758,7.1289,7.0703,7.0545,7.0192,6.9644,6.9249,6.8894,6.8658,6.8808,6.8527,6.7742,6.7308,6.6992,6.6835,6.6796,6.6796,6.6796,6.6796,6.6796,6.6796,6.6796,6.6796,6.6796,6.6796,6.6796,6.6796,6.6952,6.7459,6.8122,6.8942,6.9918,7.0855,7.1441,7.187,7.1987,7.1987,7.1987,7.1987,7.1987,7.1986,7.1984,7.1983,7.1983,7.1982,7.1984,7.1889,7.181,7.1723,7.1693,7.1788,7.191,7.2465,7.3053,7.3322,7.3553,7.4053,7.4553,7.4861,6.1255,6.115,6.1084,6.1113,6.1132,6.1174,6.1216,6.1189,6.1221,6.1213,6.1197,6.1212,6.1174,6.1214,6.1505,6.2201,6.2859,6.3052,6.3516,6.4217,6.4798,6.5146,6.5721,6.5992,6.6185,6.6215,6.6288,6.6263,6.6182,6.5963,6.5006,6.4026,6.3517,6.2855,6.2031,6.213,6.2497,6.3008,6.3476,6.4101,6.4961,6.582,6.6484,6.6758,6.6914,6.7109,6.7461,6.8047,6.8359,6.8789,6.9219,6.9414,6.9648,7.0078,7.0859,7.1133,7.0976,7.0547,7.0,6.9687,6.8944,6.8241,6.8121,6.7924,6.7687,6.7681,6.771,6.7117,6.6802,6.6796,6.6796,6.6796,6.6796,6.6796,6.6796,6.6796,6.6796,6.6796,6.6796,6.6796,6.6796,6.6796,6.6796,6.707,6.7577,6.8279,6.9059,7.0035,7.1089,7.1558,7.1987,7.1987,7.1987,7.1987,7.1987,7.1987,7.1987,7.1987,7.1987,7.1987,7.1987,7.1987,7.2135,7.2244,7.2168,7.2245,7.2358,7.2559,7.3251,7.3892,7.4084,7.4399,7.5014,7.5476,7.563,6.1238,6.1113,6.1113,6.1113,6.1113,6.1118,6.1084,6.1113,6.1089,6.1098,6.1113,6.1123,6.1127,6.1113,6.1195,6.1582,6.2351,6.2428,6.3091,6.4101,6.4682,6.5069,6.5455,6.5799,6.6185,6.6185,6.62,6.6185,6.621,6.6212,6.535,6.4229,6.3884,6.3143,6.2039,6.2345,6.2837,6.3476,6.4101,6.5,6.582,6.6484,6.6914,6.6914,6.6914,6.6914,6.707,6.75,6.7812,6.8086,6.8437,6.8867,6.8867,6.8867,6.9297,6.9922,6.9726,6.9453,6.9023,6.8711,6.8086,6.7305,6.6992,6.6912,6.695,6.706,6.6929,6.68,6.6796,6.6796,6.6796,6.6796,6.6796,6.6796,6.6796,6.6796,6.6796,6.6796,6.6796,6.6796,6.6796,6.6796,6.6796,6.6992,6.746,6.8513,6.9333,7.027,7.1245,7.1675,7.1987,7.1987,7.1987,7.1987,7.1987,7.1987,7.1987,7.1987,7.1987,7.1987,7.1987,7.1987,7.2225,7.2485,7.2953,7.302,7.3087,7.3363,7.4053,7.4591,7.4815,7.5123,7.5553,7.5745,7.5822,6.1164,6.1113,6.1113,6.1113,6.1113,6.1113,6.1113,6.1113,6.1113,6.1113,6.1113,6.1113,6.1113,6.1113,6.1113,6.1616,6.224,6.2627,6.34,6.4682,6.5069,6.5455,6.5915,6.6108,6.6185,6.6147,6.6147,6.6185,6.6084,6.6114,6.535,6.4045,6.355,6.3064,6.1892,6.2586,6.3305,6.414,6.5,6.582,6.6523,6.6797,6.6875,6.6914,6.6914,6.6914,6.6914,6.7148,6.7187,6.7187,6.7187,6.7226,6.7187,6.7187,6.7656,6.8437,6.8945,6.914,6.8515,6.8164,6.7773,6.707,6.6914,6.6914,6.6913,6.6909,6.6857,6.6799,6.6798,6.6796,6.6796,6.6796,6.6796,6.6796,6.6796,6.6796,6.6796,6.6796,6.6796,6.6796,6.6796,6.6796,6.6796,6.7031,6.7382,6.8514,6.9606,7.0543,7.1324,7.1753,7.1987,7.1987,7.1987,7.1987,7.1987,7.1987,7.1987,7.1987,7.1987,7.1987,7.1987,7.2054,7.2357,7.2694,7.3239,7.3937,7.4243,7.4585,7.5029,7.5245,7.5399,7.563,7.5899,7.5976,7.5976,6.1137,6.1113,6.1113,6.1113,6.1113,6.1113,6.1113,6.1113,6.1113,6.1113,6.1113,6.1113,6.1113,6.1113,6.1113,6.1892,6.2859,6.3052,6.4058,6.5257,6.561,6.5799,6.6108,6.6185,6.6185,6.5992,6.576,6.5455,6.5533,6.5417,6.4836,6.3806,6.3257,6.2797,6.2145,6.3033,6.4006,6.4922,6.582,6.6484,6.6797,6.6914,6.6914,6.6914,6.6914,6.6914,6.6914,6.6914,6.6914,6.6914,6.6914,6.6914,6.6914,6.6953,6.7148,6.7383,6.7773,6.8047,6.8125,6.7734,6.7305,6.707,6.6914,6.6914,6.6913,6.6911,6.6864,6.6808,6.6806,6.6803,6.6799,6.6796,6.6796,6.6796,6.6796,6.6796,6.6796,6.6796,6.6796,6.6796,6.6796,6.6796,6.6835,6.707,6.7616,6.8786,6.9684,7.0465,7.1245,7.187,7.1987,7.1987,7.1987,7.1987,7.1987,7.1987,7.1987,7.1987,7.1987,7.1987,7.1987,7.2115,7.2389,7.2938,7.36,7.4319,7.5089,7.5438,7.5553,7.5745,7.5976,7.5976,7.5976,7.5976,7.5976,6.1113,6.1113,6.1113,6.1113,6.1113,6.1113,6.1113,6.1113,6.1113,6.1113,6.1113,6.1113,6.1113,6.1113,6.1191,6.1853,6.3245,6.3366,6.4256,6.5146,6.5571,6.5455,6.5373,6.545,6.545,6.5571,6.4914,6.4682,6.4604,6.4372,6.3908,6.3405,6.3149,6.2715,6.2903,6.3753,6.4836,6.5806,6.6444,6.6797,6.6914,6.6914,6.6914,6.6914,6.6914,6.6914,6.6914,6.6914,6.6914,6.6914,6.6914,6.6914,6.6914,6.6914,6.6914,6.7031,6.7148,6.7344,6.75,6.7305,6.6953,6.6914,6.6914,6.6914,6.6912,6.6911,6.687,6.6817,6.6855,6.6811,6.6803,6.6801,6.6799,6.6799,6.6796,6.6796,6.6796,6.6796,6.6796,6.6796,6.6796,6.6796,6.6874,6.707,6.7811,6.9059,6.984,7.0466,7.1167,7.1948,7.1987,7.1987,7.1987,7.1987,7.1987,7.1987,7.1987,7.1987,7.1987,7.1987,7.1987,7.2124,7.234,7.301,7.37,7.4254,7.4749,7.5418,7.5976,7.5976,7.5976,7.5976,7.5976,7.5976,7.5976,6.1113,6.1113,6.1113,6.1113,6.1113,6.1113,6.1113,6.1113,6.1113,6.1113,6.1113,6.1113,6.1113,6.1113,6.1191,6.1621,6.2549,6.2506,6.3245,6.3792,6.3913,6.414,6.4217,6.4217,6.4063,6.4063,6.3831,6.3792,6.3598,6.3052,6.2704,6.2511,6.2975,6.2982,6.3397,6.4387,6.5585,6.6393,6.6835,6.6875,6.6914,6.6914,6.6914,6.6914,6.6914,6.6914,6.6914,6.6914,6.6914,6.6914,6.6914,6.6914,6.6914,6.6914,6.6914,6.6914,6.6914,6.7031,6.707,6.707,6.6953,6.6914,6.6914,6.6914,6.6912,6.6911,6.687,6.6865,6.6863,6.6858,6.6814,6.681,6.6805,6.6799,6.6796,6.6796,6.6796,6.6796,6.6796,6.6796,6.6796,6.6796,6.7265,6.7538,6.8085,6.9255,7.0426,7.1089,7.1402,7.1987,7.1987,7.1987,7.1987,7.1987,7.1987,7.1987,7.1987,7.1987,7.1987,7.1987,7.1987,7.2154,7.2288,7.2721,7.335,7.3911,7.4539,7.5355,7.5899,7.5976,7.5976,7.5976,7.5976,7.5976,7.5976,6.1141,6.1113,6.1113,6.1113,6.1113,6.1113,6.1113,6.1113,6.1113,6.1113,6.1113,6.1113,6.1113,6.1113,6.1157,6.1577,6.2312,6.2428,6.2936,6.3444,6.3715,6.3676,6.3676,6.3598,6.3715,6.3521,6.3212,6.2897,6.2781,6.2162,6.2158,6.239,6.2897,6.3124,6.37,6.5022,6.6159,6.6579,6.6836,6.6914,6.6914,6.6914,6.6914,6.6914,6.6914,6.6914,6.6914,6.6914,6.6914,6.6914,6.6914,6.6914,6.6914,6.6914,6.6914,6.6914,6.6914,6.6914,6.6914,6.6914,6.6914,6.6914,6.6914,6.6914,6.6914,6.6914,6.6914,6.691,6.6909,6.6866,6.6815,6.6811,6.6808,6.68,6.6796,6.6796,6.6796,6.6796,6.6796,6.6796,6.6796,6.6796,6.7421,6.8046,6.867,6.945,7.0621,7.1597,7.1831,7.1987,7.1987,7.1987,7.1987,7.1987,7.1987,7.1987,7.1987,7.1987,7.1987,7.1987,7.1987,7.2025,7.2182,7.2572,7.3061,7.3778,7.4539,7.5401,7.5822,7.5938,7.5976,7.5976,7.5976,7.5976,7.5976,6.1146,6.1118,6.1113,6.1113,6.1113,6.1113,6.1113,6.1113,6.1113,6.1113,6.1113,6.1113,6.1113,6.1113,6.1118,6.135,6.181,6.2008,6.2356,6.2627,6.2781,6.2941,6.2941,6.2863,6.2665,6.2747,6.2433,6.2008,6.2003,6.1616,6.1926,6.2428,6.2975,6.3642,6.4316,6.5609,6.6603,6.6717,6.6797,6.6875,6.6914,6.6914,6.6914,6.6914,6.6914,6.6914,6.6914,6.6914,6.6914,6.6914,6.6914,6.6914,6.6914,6.6914,6.6914,6.6914,6.6914,6.6914,6.6914,6.6914,6.6914,6.6914,6.6914,6.6914,6.6914,6.6914,6.6914,6.6913,6.6912,6.687,6.6819,6.6856,6.681,6.6841,6.6798,6.6796,6.6796,6.6796,6.6796,6.6796,6.6796,6.6835,6.746,6.8241,6.9528,7.0191,7.105,7.1792,7.187,7.1987,7.1987,7.1987,7.1987,7.1987,7.1987,7.1987,7.1987,7.1987,7.1987,7.1987,7.1987,7.1987,7.1938,7.2104,7.2723,7.365,7.4339,7.491,7.5476,7.5938,7.5976,7.5976,7.5976,7.5976,7.5976,6.1079,6.1113,6.1113,6.1113,6.1113,6.1113,6.1113,6.1113,6.1113,6.1113,6.1113,6.1113,6.1113,6.1113,6.1113,6.1229,6.1268,6.1273,6.1389,6.1505,6.166,6.1389,6.1389,6.1505,6.1698,6.1273,6.1268,6.1345,6.1268,6.1887,6.2274,6.2975,6.3942,6.4798,6.5074,6.604,6.6601,6.6716,6.6829,6.6875,6.6914,6.6914,6.6914,6.6914,6.6914,6.6914,6.6914,6.6914,6.6914,6.6914,6.6914,6.6914,6.6914,6.6914,6.6914,6.6914,6.6914,6.6914,6.6914,6.6914,6.6914,6.6914,6.6914,6.6914,6.6914,6.6914,6.6914,6.6914,6.6914,6.6914,6.6908,6.6902,6.6853,6.6843,6.6799,6.6796,6.6796,6.6796,6.6796,6.6796,6.6796,6.6913,6.7499,6.8358,7.0035,7.105,7.1714,7.1987,7.1987,7.1987,7.1987,7.1987,7.1987,7.1987,7.1987,7.1987,7.1987,7.1987,7.1987,7.1987,7.1987,7.1987,7.1908,7.1785,7.2543,7.363,7.3965,7.4238,7.5084,7.5938,7.5976,7.5976,7.5976,7.5976,7.5976,6.1146,6.1113,6.1113,6.1113,6.1113,6.1113,6.1113,6.1113,6.1113,6.1113,6.1113,6.1113,6.1113,6.1113,6.1113,6.1113,6.1113,6.1113,6.1113,6.1113,6.1113,6.1113,6.1113,6.1113,6.1113,6.1113,6.1113,6.1113,6.1152,6.208,6.2781,6.3521,6.4836,6.5682,6.5909,6.6369,6.6619,6.6666,6.6797,6.6914,6.6914,6.6914,6.6914,6.6914,6.6914,6.6914,6.6914,6.6914,6.6914,6.6914,6.6914,6.6914,6.6914,6.6914,6.6914,6.6914,6.6914,6.6914,6.6914,6.6914,6.6914,6.6914,6.6914,6.6914,6.6914,6.6914,6.6914,6.6914,6.6914,6.6914,6.6907,6.6904,6.6857,6.6843,6.6796,6.6796,6.6796,6.6796,6.6796,6.6796,6.6796,6.7655,6.8319,6.867,7.0074,7.1245,7.187,7.1987,7.1987,7.1987,7.1987,7.1987,7.1987,7.1987,7.1987,7.1987,7.1987,7.1987,7.1987,7.1987,7.1987,7.1987,7.1936,7.1824,7.2703,7.3607,7.4107,7.4661,7.5353,7.5938,7.5976,7.5976,7.5976,7.5976,7.5976,6.1146,6.1079,6.1113,6.1113,6.1113,6.1113,6.1113,6.1113,6.1113,6.1113,6.1113,6.1113,6.1113,6.1113,6.1113,6.1113,6.1113,6.1113,6.1113,6.1113,6.1113,6.1113,6.1113,6.1113,6.1113,6.1113,6.1157,6.1195,6.166,6.2472,6.3516,6.4682,6.561,6.6051,6.6291,6.6484,6.6595,6.6654,6.6797,6.6914,6.6914,6.6914,6.6914,6.6914,6.6914,6.6914,6.6914,6.6914,6.6914,6.6914,6.6914,6.6914,6.6914,6.6914,6.6914,6.6914,6.6914,6.6914,6.6914,6.6914,6.6914,6.6914,6.6914,6.6914,6.6914,6.6914,6.6914,6.6914,6.6914,6.6914,6.6909,6.6907,6.6861,6.6809,6.6802,6.6802,6.6796,6.6796,6.6796,6.6796,6.6992,6.8007,6.9022,6.9412,7.0037,7.105,7.1987,7.1987,7.1987,7.1987,7.1987,7.1987,7.1987,7.1986,7.1986,7.1987,7.1987,7.1987,7.1987,7.1987,7.1987,7.1984,7.1916,7.2036,7.3027,7.3912,7.4578,7.5207,7.5707,7.5938,7.5976,7.5976,7.5976,7.5976,7.5976,6.1118,6.1113,6.1113,6.1113,6.1113,6.1113,6.1113,6.1113,6.1113,6.1113,6.1113,6.1113,6.1113,6.1113,6.1113,6.1113,6.1113,6.1113,6.1113,6.1113,6.1113,6.1113,6.1113,6.1113,6.1113,6.1113,6.1273,6.1737,6.2433,6.3323,6.4561,6.5644,6.6031,6.6244,6.6369,6.6507,6.6595,6.6668,6.6797,6.6875,6.6914,6.6914,6.6914,6.6914,6.6914,6.6914,6.6914,6.6914,6.6914,6.6914,6.6914,6.6914,6.6914,6.6914,6.6914,6.6914,6.6914,6.6914,6.6914,6.6914,6.6914,6.6914,6.6914,6.6914,6.6914,6.6914,6.6914,6.6914,6.6914,6.6914,6.6912,6.687,6.6867,6.6821,6.6813,6.6808,6.6799,6.6796,6.6798,6.6876,6.6992,6.7772,6.9022,6.9646,7.027,7.1206,7.1987,7.1987,7.1987,7.1987,7.1987,7.1987,7.1986,7.1983,7.1983,7.1977,7.1927,7.192,7.1983,7.1987,7.1987,7.2052,7.2118,7.2461,7.3385,7.4253,7.5052,7.5553,7.5861,7.5976,7.5976,7.5976,7.5976,7.5976,7.5976,6.1113,6.1113,6.1113,6.1113,6.1113,6.1113,6.1113,6.1113,6.1113,6.1113,6.1113,6.1113,6.1113,6.1113,6.1113,6.1113,6.1113,6.1113,6.1113,6.1113,6.1113,6.1113,6.1113,6.1113,6.1113,6.1345,6.1655,6.2162,6.2743,6.3787,6.5069,6.6031,6.6185,6.6272,6.64,6.6534,6.6622,6.6699,6.683,6.6875,6.6914,6.6914,6.6914,6.6914,6.6914,6.6914,6.6914,6.6914,6.6914,6.6914,6.6914,6.6914,6.6914,6.6914,6.6914,6.6914,6.6914,6.6914,6.6914,6.6914,6.6914,6.6914,6.6914,6.6914,6.6914,6.6914,6.6914,6.6914,6.6914,6.6914,6.6913,6.6872,6.6869,6.6824,6.6818,6.6814,6.6845,6.68,6.68,6.6913,6.7031,6.7927,6.9176,7.0035,7.066,7.1519,7.1987,7.1987,7.1987,7.1987,7.1987,7.1987,7.1986,7.1982,7.1925,7.1915,7.1858,7.185,7.1925,7.1987,7.1986,7.2078,7.2279,7.2907,7.3864,7.4786,7.5709,7.5976,7.5976,7.5976,7.5976,7.5976,7.5976,7.5976,7.5976,6.1113,6.1113,6.1113,6.1113,6.1113,6.1113,6.1113,6.1113,6.1113,6.1113,6.1113,6.1113,6.1113,6.1113,6.1113,6.1113,6.1113,6.1113,6.1113,6.1113,6.1113,6.1113,6.1113,6.1152,6.1345,6.1693,6.2196,6.2743,6.3478,6.4599,6.5842,6.6147,6.6185,6.6325,6.645,6.6571,6.6668,6.677,6.6836,6.6875,6.6914,6.6914,6.6914,6.6914,6.6914,6.6914,6.6914,6.6914,6.6914,6.6914,6.6914,6.6914,6.6914,6.6914,6.6914,6.6914,6.6914,6.6914,6.6914,6.6914,6.6914,6.6914,6.6914,6.6914,6.6914,6.6914,6.6914,6.6914,6.6914,6.6914,6.6914,6.6873,6.687,6.6825,6.6861,6.6858,6.6852,6.6806,6.6879,6.6954,6.7537,6.8357,6.9294,7.0151,7.0932,7.1636,7.1987,7.1987,7.1987,7.1987,7.1987,7.1987,7.1984,7.198,7.192,7.1866,7.1868,7.187,7.193,7.1986,7.1984,7.2125,7.2331,7.3259,7.4375,7.5186,7.5976,7.5976,7.5976,7.5976,7.5976,7.5976,7.5976,7.5976,7.5976,6.1113,6.1113,6.1113,6.1113,6.1113,6.1113,6.1113,6.1113,6.1113,6.1113,6.1113,6.1113,6.1113,6.1113,6.1113,6.1113,6.1113,6.1113,6.1113,6.1113,6.1113,6.1113,6.1118,6.1234,6.1693,6.2196,6.2854,6.371,6.487,6.5682,6.6031,6.6185,6.623,6.6363,6.654,6.661,6.6719,6.6836,6.6875,6.6914,6.6914,6.6914,6.6914,6.6914,6.6914,6.6914,6.6914,6.6914,6.6914,6.6914,6.6914,6.6914,6.6914,6.6914,6.6914,6.6914,6.6914,6.6914,6.6914,6.6914,6.6914,6.6914,6.6914,6.6914,6.6914,6.6914,6.6914,6.6914,6.6914,6.6914,6.6914,6.6914,6.6873,6.6871,6.6869,6.6863,6.6814,6.6845,6.6994,6.7265,6.8044,6.8864,6.9723,7.0619,7.1285,7.1831,7.1987,7.1987,7.1987,7.1987,7.1987,7.1987,7.1984,7.1977,7.192,7.1872,7.1927,7.1976,7.1979,7.1986,7.1986,7.2177,7.244,7.3612,7.4874,7.5428,7.5976,7.5976,7.5976,7.5976,7.5976,7.5976,7.5976,7.5976,7.5976,6.1113,6.1113,6.1113,6.1113,6.1113,6.1113,6.1113,6.1113,6.1113,6.1113,6.1113,6.1113,6.1113,6.1113,6.1113,6.1113,6.1113,6.1113,6.1113,6.1157,6.1157,6.1307,6.1345,6.1853,6.2235,6.2776,6.3632,6.4754,6.5605,6.6069,6.6195,6.6215,6.6267,6.6433,6.6603,6.6654,6.6758,6.6875,6.6914,6.6914,6.6914,6.6914,6.6914,6.6914,6.6914,6.6914,6.6914,6.6914,6.6914,6.6914,6.6914,6.6914,6.6914,6.6914,6.6914,6.6914,6.6914,6.6914,6.6914,6.6914,6.6914,6.6914,6.6914,6.6914,6.6914,6.6914,6.6914,6.6914,6.6914,6.6914,6.6914,6.6914,6.6914,6.6913,6.6912,6.6866,6.6814,6.6923,6.7071,6.7772,6.8513,6.9372,7.0191,7.0933,7.1597,7.1909,7.1987,7.1987,7.1987,7.1987,7.1987,7.1987,7.1984,7.1976,7.1874,7.1846,7.1848,7.1907,7.1911,7.1927,7.2019,7.2576,7.3186,7.4298,7.5356,7.5761,7.5976,7.5976,7.5976,7.5976,7.5976,7.5976,7.5976,7.5976,7.5976,6.1137,6.1118,6.1113,6.1113,6.1113,6.1113,6.1113,6.1113,6.1113,6.1113,6.1113,6.1113,6.1113,6.1113,6.1113,6.1113,6.1113,6.1113,6.1113,6.1118,6.1543,6.1693,6.2042,6.2549,6.3245,6.3826,6.4793,6.576,6.6147,6.6195,6.621,6.6272,6.6373,6.6497,6.6599,6.6708,6.678,6.6914,6.6914,6.6914,6.6914,6.6914,6.6914,6.6914,6.6914,6.6914,6.6914,6.6914,6.6914,6.6914,6.6914,6.6914,6.6914,6.6914,6.6914,6.6914,6.6914,6.6914,6.6914,6.6914,6.6914,6.6914,6.6914,6.6914,6.6914,6.6914,6.6914,6.6914,6.6914,6.6914,6.6914,6.6914,6.6914,6.6914,6.6873,6.6868,6.6817,6.6843,6.7266,6.7927,6.8708,6.9567,7.0426,7.1285,7.1831,7.1948,7.1987,7.1987,7.1987,7.1987,7.1987,7.198,7.1971,7.1907,7.1787,7.1749,7.1725,7.1755,7.1837,7.2077,7.2359,7.3219,7.4054,7.4853,7.5469,7.581,7.5976,7.5976,7.5976,7.5976,7.5976,7.5976,7.5976,7.5976,7.5976,6.1159,6.1079,6.1109,6.1109,6.1113,6.1113,6.1113,6.1113,6.1113,6.1113,6.1113,6.1113,6.1113,6.1113,6.1113,6.1113,6.1191,6.1423,6.1345,6.1616,6.2235,6.2472,6.2897,6.3439,6.4179,6.4914,6.5726,6.5992,6.6185,6.62,6.6273,6.6396,6.6468,6.6552,6.6645,6.6731,6.6797,6.6875,6.6914,6.6914,6.6914,6.6914,6.6914,6.6914,6.6914,6.6914,6.6914,6.6914,6.6914,6.6914,6.6914,6.6914,6.6914,6.6914,6.6914,6.6914,6.6914,6.6914,6.6914,6.6914,6.6914,6.6914,6.6914,6.6914,6.6914,6.6914,6.6914,6.6914,6.6914,6.6914,6.6914,6.6914,6.6914,6.6914,6.6873,6.6869,6.6857,6.6959,6.7578,6.8199,6.9098,6.9957,7.0777,7.1636,7.1831,7.1948,7.1987,7.1987,7.1987,7.1987,7.1987,7.1927,7.1862,7.1787,7.1702,7.1638,7.1591,7.1683,7.1796,7.2212,7.2714,7.3379,7.4148,7.493,7.5483,7.5861,7.5976,7.5976,7.5976,7.5976,7.5976,7.5976,7.5976,7.5976,7.5976,6.1159,6.1113,6.1036,6.1041,6.1113,6.1113,6.1113,6.1113,6.1113,6.1113,6.1118,6.1113,6.1113,6.1113,6.1113,6.1152,6.1423,6.1776,6.2119,6.2312,6.3052,6.3328,6.3715,6.4334,6.518,6.5721,6.6069,6.6147,6.6185,6.6195,6.6288,6.6419,6.6525,6.6622,6.6667,6.6758,6.6836,6.6914,6.6914,6.6914,6.6914,6.6914,6.6914,6.6914,6.6914,6.6914,6.6914,6.6914,6.6914,6.6914,6.6914,6.6914,6.6914,6.6914,6.6914,6.6914,6.6914,6.6914,6.6914,6.6914,6.6914,6.6914,6.6914,6.6914,6.6914,6.6914,6.6914,6.6914,6.6914,6.6914,6.6914,6.6914,6.6914,6.6914,6.6872,6.6943,6.697,6.7506,6.8161,6.8941,6.984,7.066,7.148,7.1909,7.1909,7.1987,7.1987,7.1987,7.1987,7.1987,7.1987,7.1918,7.1837,7.1768,7.1694,7.1559,7.1517,7.1628,7.1878,7.2393,7.2896,7.3475,7.4227,7.5176,7.563,7.5938,7.5976,7.5976,7.5976,7.5976,7.5976,7.5976,7.5976,7.5976,7.5976]}]]